Time,TemperatureF,DewpointF,PressureIn,WindDirection,WindDirectionDegrees,WindSpeedMPH,WindSpeedGustMPH,Humidity,HourlyPrecipIn,Conditions,Clouds,dailyrainin,SolarRadiationWatts/m^2,SoftwareType,DateUTC
2013-01-08 00:00:00,45.2,41.0,30.34,NNE,32,1.1,1.1,85,0.00,,,0.00,0.00,VWS V14.01,2013-01-08 05:00:00,
2013-01-08 00:01:00,45.2,41.0,30.34,NNE,15,0.0,1.1,85,0.00,,,0.00,0.00,VWS V14.01,2013-01-08 05:01:00,
2013-01-08 00:02:00,45.2,41.0,30.34,NNE,18,0.0,0.0,85,0.00,,,0.00,0.00,VWS V14.01,2013-01-08 05:02:00,
2013-01-08 00:03:00,45.2,41.0,30.34,NNE,18,0.0,0.0,85,0.00,,,0.00,0.00,VWS V14.01,2013-01-08 05:03:00,
2013-01-08 00:04:00,45.2,41.0,30.34,NNE,19,0.0,1.1,85,0.00,,,0.00,0.00,VWS V14.01,2013-01-08 05:04:00,
2013-01-08 00:05:00,45.2,41.0,30.34,NNE,19,0.0,0.0,85,0.00,,,0.00,0.00,VWS V14.01,2013-01-08 05:05:00,
2013-01-08 00:06:00,45.2,40.9,30.35,NNE,19,0.0,1.1,85,0.00,,,0.00,0.00,VWS V14.01,2013-01-08 05:06:00,
2013-01-08 00:07:00,45.2,41.0,30.34,NNE,12,1.1,2.2,85,0.00,,,0.00,0.00,VWS V14.01,2013-01-08 05:07:00,
2013-01-08 00:08:00,45.2,40.9,30.34,North,353,0.0,1.1,85,0.00,,,0.00,0.00,VWS V14.01,2013-01-08 05:08:00,
2013-01-08 00:09:00,45.2,40.9,30.34,North,353,0.0,1.1,85,0.00,,,0.00,0.00,VWS V14.01,2013-01-08 05:09:00,
2013-01-08 00:10:00,45.2,40.9,30.34,North,353,0.0,0.0,85,0.00,,,0.00,0.00,VWS V14.01,2013-01-08 05:10:00,
2013-01-08 00:11:00,45.2,40.9,30.35,North,358,0.0,0.0,85,0.00,,,0.00,0.00,VWS V14.01,2013-01-08 05:11:00,
2013-01-08 00:12:00,45.2,40.9,30.34,North,358,0.0,0.0,85,0.00,,,0.00,0.00,VWS V14.01,2013-01-08 05:12:00,
2013-01-08 00:13:00,45.0,40.8,30.34,NNE,24,1.1,3.3,85,0.00,,,0.00,0.00,VWS V14.01,2013-01-08 05:13:00,
2013-01-08 00:14:00,45.0,40.8,30.34,NNE,28,0.0,3.3,85,0.00,,,0.00,0.00,VWS V14.01,2013-01-08 05:14:00,
2013-01-08 00:15:00,45.0,40.8,30.34,NNE,28,0.0,1.1,85,0.00,,,0.00,0.00,VWS V14.01,2013-01-08 05:15:00,
2013-01-08 00:16:00,45.0,40.8,30.34,NNE,28,0.0,1.1,85,0.00,,,0.00,0.00,VWS V14.01,2013-01-08 05:16:00,
2013-01-08 00:17:00,45.0,40.8,30.34,NNE,28,0.0,1.1,85,0.00,,,0.00,0.00,VWS V14.01,2013-01-08 05:17:00,
2013-01-08 00:18:00,45.0,40.8,30.34,NE,42,0.0,1.1,85,0.00,,,0.00,0.00,VWS V14.01,2013-01-08 05:18:00,
2013-01-08 00:19:00,45.0,40.7,30.34,NE,42,0.0,1.1,85,0.00,,,0.00,0.00,VWS V14.01,2013-01-08 05:19:00,
2013-01-08 00:20:00,45.0,40.7,30.34,East,91,1.1,2.2,85,0.00,,,0.00,0.00,VWS V14.01,2013-01-08 05:20:00,
2013-01-08 00:21:00,45.0,40.7,30.34,NNE,27,2.2,2.2,85,0.00,,,0.00,0.00,VWS V14.01,2013-01-08 05:21:00,
2013-01-08 00:22:00,45.0,40.7,30.34,NNE,14,2.2,2.2,85,0.00,,,0.00,0.00,VWS V14.01,2013-01-08 05:22:00,
2013-01-08 00:23:00,45.0,40.8,30.34,NNE,14,4.4,4.4,85,0.00,,,0.00,0.00,VWS V14.01,2013-01-08 05:23:00,
2013-01-08 00:24:00,45.0,40.8,30.34,NNE,23,1.1,4.4,85,0.00,,,0.00,0.00,VWS V14.01,2013-01-08 05:24:00,
2013-01-08 00:25:00,45.0,40.8,30.34,East,84,0.0,3.3,85,0.00,,,0.00,0.00,VWS V14.01,2013-01-08 05:25:00,
2013-01-08 00:26:00,45.0,40.8,30.34,NE,54,0.0,1.1,85,0.00,,,0.00,0.00,VWS V14.01,2013-01-08 05:26:00,
2013-01-08 00:27:00,45.2,40.9,30.34,NNW,348,1.1,2.2,85,0.00,,,0.00,0.00,VWS V14.01,2013-01-08 05:27:00,
2013-01-08 00:28:00,45.2,40.9,30.34,NNE,23,0.0,1.1,85,0.00,,,0.00,0.00,VWS V14.01,2013-01-08 05:28:00,
2013-01-08 00:29:00,45.2,40.9,30.34,NNE,23,0.0,1.1,85,0.00,,,0.00,0.00,VWS V14.01,2013-01-08 05:29:00,
2013-01-08 00:30:00,45.2,40.9,30.34,NNE,23,0.0,0.0,85,0.00,,,0.00,0.00,VWS V14.01,2013-01-08 05:30:00,
2013-01-08 00:31:00,45.2,40.9,30.34,NNE,23,0.0,0.0,85,0.00,,,0.00,0.00,VWS V14.01,2013-01-08 05:31:00,
2013-01-08 00:32:00,45.2,40.9,30.34,NNE,21,0.0,2.2,85,0.00,,,0.00,0.00,VWS V14.01,2013-01-08 05:32:00,
2013-01-08 00:33:00,45.2,40.9,30.34,NNE,21,0.0,0.0,85,0.00,,,0.00,0.00,VWS V14.01,2013-01-08 05:33:00,
2013-01-08 00:34:00,45.0,40.8,30.34,NE,37,2.2,4.4,85,0.00,,,0.00,0.00,VWS V14.01,2013-01-08 05:34:00,
2013-01-08 00:35:00,45.0,40.8,30.34,NNE,31,0.0,2.2,85,0.00,,,0.00,0.00,VWS V14.01,2013-01-08 05:35:00,
2013-01-08 00:36:00,45.0,40.8,30.34,NNE,31,0.0,1.1,85,0.00,,,0.00,0.00,VWS V14.01,2013-01-08 05:36:00,
2013-01-08 00:37:00,45.0,40.8,30.34,NNE,31,0.0,0.0,85,0.00,,,0.00,0.00,VWS V14.01,2013-01-08 05:37:00,
2013-01-08 00:38:00,45.2,40.9,30.34,NNE,25,1.1,1.1,85,0.00,,,0.00,0.00,VWS V14.01,2013-01-08 05:38:00,
2013-01-08 00:39:00,45.2,40.9,30.34,NNE,25,1.1,1.1,85,0.00,,,0.00,0.00,VWS V14.01,2013-01-08 05:39:00,
2013-01-08 00:40:00,45.2,40.9,30.34,NNE,14,0.0,2.2,85,0.00,,,0.00,0.00,VWS V14.01,2013-01-08 05:40:00,
2013-01-08 00:41:00,45.2,40.9,30.34,NNE,14,1.1,1.1,85,0.00,,,0.00,0.00,VWS V14.01,2013-01-08 05:41:00,
2013-01-08 00:42:00,45.2,40.9,30.34,North,11,0.0,3.3,85,0.00,,,0.00,0.00,VWS V14.01,2013-01-08 05:42:00,
2013-01-08 00:43:00,45.2,40.9,30.34,North,358,3.3,3.3,85,0.00,,,0.00,0.00,VWS V14.01,2013-01-08 05:43:00,
2013-01-08 00:44:00,45.2,41.2,30.34,NNE,18,1.1,3.3,86,0.00,,,0.00,0.00,VWS V14.01,2013-01-08 05:44:00,
2013-01-08 00:45:00,45.2,41.2,30.34,NNE,23,1.1,4.4,86,0.00,,,0.00,0.00,VWS V14.01,2013-01-08 05:45:00,
2013-01-08 00:46:00,45.2,41.3,30.34,NNE,13,0.0,3.3,86,0.00,,,0.00,0.00,VWS V14.01,2013-01-08 05:46:00,
2013-01-08 00:47:00,45.2,41.3,30.34,NNE,13,0.0,0.0,86,0.00,,,0.00,0.00,VWS V14.01,2013-01-08 05:47:00,
2013-01-08 00:48:00,45.3,41.4,30.34,NNE,14,1.1,1.1,86,0.00,,,0.00,0.00,VWS V14.01,2013-01-08 05:48:00,
2013-01-08 00:49:00,45.3,41.4,30.34,NNE,14,0.0,1.1,86,0.00,,,0.00,0.00,VWS V14.01,2013-01-08 05:49:00,
2013-01-08 00:50:00,45.3,41.4,30.34,NNW,341,0.0,2.2,86,0.00,,,0.00,0.00,VWS V14.01,2013-01-08 05:50:00,
2013-01-08 00:51:00,45.5,41.5,30.34,NNW,341,0.0,1.1,86,0.00,,,0.00,0.00,VWS V14.01,2013-01-08 05:51:00,
2013-01-08 00:52:00,45.5,41.5,30.34,NNW,341,0.0,1.1,86,0.00,,,0.00,0.00,VWS V14.01,2013-01-08 05:52:00,
2013-01-08 00:53:00,45.5,41.2,30.34,North,358,1.1,1.1,85,0.00,,,0.00,0.00,VWS V14.01,2013-01-08 05:53:00,
2013-01-08 00:54:00,45.5,41.2,30.34,ENE,59,1.1,2.2,85,0.00,,,0.00,0.00,VWS V14.01,2013-01-08 05:54:00,
2013-01-08 00:55:00,45.5,41.2,30.34,NNE,28,0.0,1.1,85,0.00,,,0.00,0.00,VWS V14.01,2013-01-08 05:55:00,
2013-01-08 00:56:00,45.5,41.2,30.34,NNE,27,2.2,2.2,85,0.00,,,0.00,0.00,VWS V14.01,2013-01-08 05:56:00,
2013-01-08 00:57:00,45.5,41.2,30.33,NNE,12,1.1,2.2,85,0.00,,,0.00,0.00,VWS V14.01,2013-01-08 05:57:00,
2013-01-08 00:58:00,45.5,41.2,30.33,NNE,25,1.1,1.1,85,0.00,,,0.00,0.00,VWS V14.01,2013-01-08 05:58:00,
2013-01-08 00:59:00,45.3,41.1,30.33,NNE,25,2.2,2.2,85,0.00,,,0.00,0.00,VWS V14.01,2013-01-08 05:59:00,
2013-01-08 01:00:00,45.2,41.3,30.33,NNE,25,0.0,1.1,86,0.00,,,0.00,0.00,VWS V14.01,2013-01-08 06:00:00,
2013-01-08 01:01:00,45.2,41.3,30.33,NNE,27,0.0,3.3,86,0.00,,,0.00,0.00,VWS V14.01,2013-01-08 06:01:00,
2013-01-08 01:02:00,45.2,41.3,30.33,NNE,27,0.0,1.1,86,0.00,,,0.00,0.00,VWS V14.01,2013-01-08 06:02:00,
2013-01-08 01:03:00,45.2,41.2,30.33,North,353,2.2,2.2,86,0.00,,,0.00,0.00,VWS V14.01,2013-01-08 06:03:00,
2013-01-08 01:04:00,45.2,41.2,30.33,North,358,1.1,2.2,86,0.00,,,0.00,0.00,VWS V14.01,2013-01-08 06:04:00,
2013-01-08 01:05:00,45.0,41.1,30.33,North,358,0.0,1.1,86,0.00,,,0.00,0.00,VWS V14.01,2013-01-08 06:05:00,
2013-01-08 01:06:00,45.0,41.1,30.33,North,358,1.1,1.1,86,0.00,,,0.00,0.00,VWS V14.01,2013-01-08 06:06:00,
2013-01-08 01:07:00,45.0,41.1,30.33,North,358,0.0,1.1,86,0.00,,,0.00,0.00,VWS V14.01,2013-01-08 06:07:00,
2013-01-08 01:08:00,45.0,41.1,30.33,North,358,0.0,0.0,86,0.00,,,0.00,0.00,VWS V14.01,2013-01-08 06:08:00,
2013-01-08 01:09:00,45.0,41.4,30.33,North,8,0.0,2.2,87,0.00,,,0.00,0.00,VWS V14.01,2013-01-08 06:09:00,
2013-01-08 01:10:00,45.0,41.1,30.33,North,8,0.0,0.0,86,0.00,,,0.00,0.00,VWS V14.01,2013-01-08 06:10:00,
2013-01-08 01:11:00,45.0,41.1,30.33,NNW,329,0.0,1.1,86,0.00,,,0.00,0.00,VWS V14.01,2013-01-08 06:11:00,
2013-01-08 01:12:00,45.0,41.1,30.33,NW,326,0.0,1.1,86,0.00,,,0.00,0.00,VWS V14.01,2013-01-08 06:12:00,
2013-01-08 01:13:00,45.0,41.1,30.33,NNW,329,0.0,0.0,86,0.00,,,0.00,0.00,VWS V14.01,2013-01-08 06:13:00,
2013-01-08 01:14:00,45.0,41.1,30.33,NNW,329,0.0,1.1,86,0.00,,,0.00,0.00,VWS V14.01,2013-01-08 06:14:00,
2013-01-08 01:15:00,45.0,41.1,30.33,ENE,62,1.1,2.2,86,0.00,,,0.00,0.00,VWS V14.01,2013-01-08 06:15:00,
2013-01-08 01:16:00,45.0,41.1,30.34,ENE,60,0.0,1.1,86,0.00,,,0.00,0.00,VWS V14.01,2013-01-08 06:16:00,
2013-01-08 01:17:00,45.0,41.1,30.34,North,358,0.0,2.2,86,0.00,,,0.00,0.00,VWS V14.01,2013-01-08 06:17:00,
2013-01-08 01:18:00,45.2,41.2,30.33,NNE,23,1.1,3.3,86,0.00,,,0.00,0.00,VWS V14.01,2013-01-08 06:18:00,
2013-01-08 01:19:00,45.2,41.2,30.33,NNE,17,0.0,1.1,86,0.00,,,0.00,0.00,VWS V14.01,2013-01-08 06:19:00,
2013-01-08 01:20:00,45.2,41.2,30.33,NNE,15,1.1,2.2,86,0.00,,,0.00,0.00,VWS V14.01,2013-01-08 06:20:00,
2013-01-08 01:21:00,45.2,41.2,30.33,NNW,348,1.1,2.2,86,0.00,,,0.00,0.00,VWS V14.01,2013-01-08 06:21:00,
2013-01-08 01:22:00,45.2,41.2,30.33,NNW,348,1.1,1.1,86,0.00,,,0.00,0.00,VWS V14.01,2013-01-08 06:22:00,
2013-01-08 01:23:00,45.2,41.3,30.33,North,358,1.1,1.1,86,0.00,,,0.00,0.00,VWS V14.01,2013-01-08 06:23:00,
2013-01-08 01:24:00,45.2,41.3,30.33,NNE,17,0.0,4.4,86,0.00,,,0.00,0.00,VWS V14.01,2013-01-08 06:24:00,
2013-01-08 01:25:00,45.2,41.3,30.33,NNE,17,0.0,1.1,86,0.00,,,0.00,0.00,VWS V14.01,2013-01-08 06:25:00,
2013-01-08 01:26:00,45.2,41.3,30.33,NNE,17,1.1,1.1,86,0.00,,,0.00,0.00,VWS V14.01,2013-01-08 06:26:00,
2013-01-08 01:27:00,45.2,41.3,30.33,NNE,24,2.2,2.2,86,0.00,,,0.00,0.00,VWS V14.01,2013-01-08 06:27:00,
2013-01-08 01:28:00,45.2,41.2,30.33,NNE,24,0.0,0.0,86,0.00,,,0.00,0.00,VWS V14.01,2013-01-08 06:28:00,
2013-01-08 01:29:00,45.2,41.2,30.33,NNE,24,0.0,1.1,86,0.00,,,0.00,0.00,VWS V14.01,2013-01-08 06:29:00,
2013-01-08 01:30:00,45.2,41.2,30.33,North,353,0.0,3.3,86,0.00,,,0.00,0.00,VWS V14.01,2013-01-08 06:30:00,
2013-01-08 01:31:00,45.0,41.1,30.33,North,353,0.0,0.0,86,0.00,,,0.00,0.00,VWS V14.01,2013-01-08 06:31:00,
2013-01-08 01:32:00,45.0,41.1,30.33,North,353,0.0,1.1,86,0.00,,,0.00,0.00,VWS V14.01,2013-01-08 06:32:00,
2013-01-08 01:33:00,45.0,41.0,30.33,North,11,1.1,1.1,86,0.00,,,0.00,0.00,VWS V14.01,2013-01-08 06:33:00,
2013-01-08 01:34:00,44.8,40.9,30.33,North,11,0.0,1.1,86,0.00,,,0.00,0.00,VWS V14.01,2013-01-08 06:34:00,
2013-01-08 01:35:00,44.8,40.9,30.33,North,11,0.0,0.0,86,0.00,,,0.00,0.00,VWS V14.01,2013-01-08 06:35:00,
2013-01-08 01:36:00,44.8,40.8,30.33,North,11,0.0,0.0,86,0.00,,,0.00,0.00,VWS V14.01,2013-01-08 06:36:00,
2013-01-08 01:37:00,44.8,40.8,30.33,North,11,0.0,0.0,86,0.00,,,0.00,0.00,VWS V14.01,2013-01-08 06:37:00,
2013-01-08 01:38:00,44.7,41.0,30.33,North,11,0.0,0.0,87,0.00,,,0.00,0.00,VWS V14.01,2013-01-08 06:38:00,
2013-01-08 01:39:00,44.7,41.0,30.33,North,11,0.0,0.0,87,0.00,,,0.00,0.00,VWS V14.01,2013-01-08 06:39:00,
2013-01-08 01:40:00,44.7,41.0,30.33,North,11,0.0,1.1,87,0.00,,,0.00,0.00,VWS V14.01,2013-01-08 06:40:00,
2013-01-08 01:41:00,44.5,40.9,30.33,North,11,1.1,1.1,87,0.00,,,0.00,0.00,VWS V14.01,2013-01-08 06:41:00,
2013-01-08 01:42:00,44.5,40.9,30.33,NNE,12,0.0,1.1,87,0.00,,,0.00,0.00,VWS V14.01,2013-01-08 06:42:00,
2013-01-08 01:43:00,44.5,40.9,30.33,North,9,0.0,1.1,87,0.00,,,0.00,0.00,VWS V14.01,2013-01-08 06:43:00,
2013-01-08 01:44:00,44.5,40.8,30.33,North,9,0.0,1.1,87,0.00,,,0.00,0.00,VWS V14.01,2013-01-08 06:44:00,
2013-01-08 01:45:00,44.5,40.8,30.33,North,9,0.0,0.0,87,0.00,,,0.00,0.00,VWS V14.01,2013-01-08 06:45:00,
2013-01-08 01:46:00,44.3,40.7,30.33,North,9,0.0,0.0,87,0.00,,,0.00,0.00,VWS V14.01,2013-01-08 06:46:00,
2013-01-08 01:47:00,44.3,40.7,30.33,North,9,0.0,0.0,87,0.00,,,0.00,0.00,VWS V14.01,2013-01-08 06:47:00,
2013-01-08 01:48:00,44.2,40.6,30.33,North,9,0.0,0.0,87,0.00,,,0.00,0.00,VWS V14.01,2013-01-08 06:48:00,
2013-01-08 01:49:00,44.2,40.6,30.33,North,9,0.0,0.0,87,0.00,,,0.00,0.00,VWS V14.01,2013-01-08 06:49:00,
2013-01-08 01:50:00,44.2,40.8,30.33,North,9,0.0,1.1,88,0.00,,,0.00,0.00,VWS V14.01,2013-01-08 06:50:00,
2013-01-08 01:51:00,44.2,40.8,30.33,North,9,0.0,0.0,88,0.00,,,0.00,0.00,VWS V14.01,2013-01-08 06:51:00,
2013-01-08 01:52:00,44.2,40.8,30.33,North,2,1.1,2.2,88,0.00,,,0.00,0.00,VWS V14.01,2013-01-08 06:52:00,
2013-01-08 01:53:00,44.0,40.7,30.33,North,358,0.0,0.0,88,0.00,,,0.00,0.00,VWS V14.01,2013-01-08 06:53:00,
2013-01-08 01:54:00,44.0,40.6,30.33,North,358,0.0,1.1,88,0.00,,,0.00,0.00,VWS V14.01,2013-01-08 06:54:00,
2013-01-08 01:55:00,44.0,40.6,30.32,North,358,0.0,0.0,88,0.00,,,0.00,0.00,VWS V14.01,2013-01-08 06:55:00,
2013-01-08 01:56:00,44.0,40.6,30.33,NE,39,0.0,1.1,88,0.00,,,0.00,0.00,VWS V14.01,2013-01-08 06:56:00,
2013-01-08 01:57:00,43.8,40.5,30.33,NE,39,1.1,1.1,88,0.00,,,0.00,0.00,VWS V14.01,2013-01-08 06:57:00,
2013-01-08 01:58:00,43.8,40.5,30.33,NE,39,0.0,0.0,88,0.00,,,0.00,0.00,VWS V14.01,2013-01-08 06:58:00,
2013-01-08 01:59:00,43.8,40.5,30.33,NE,39,0.0,0.0,88,0.00,,,0.00,0.00,VWS V14.01,2013-01-08 06:59:00,
2013-01-08 02:00:00,43.8,40.7,30.33,NE,39,1.1,2.2,89,0.00,,,0.00,0.00,VWS V14.01,2013-01-08 07:00:00,
2013-01-08 02:01:00,43.7,40.6,30.32,NE,39,0.0,1.1,89,0.00,,,0.00,0.00,VWS V14.01,2013-01-08 07:01:00,
2013-01-08 02:02:00,43.7,40.3,30.33,NE,39,0.0,0.0,88,0.00,,,0.00,0.00,VWS V14.01,2013-01-08 07:02:00,
2013-01-08 02:03:00,43.5,40.5,30.32,NE,39,0.0,0.0,89,0.00,,,0.00,0.00,VWS V14.01,2013-01-08 07:03:00,
2013-01-08 02:04:00,43.5,40.5,30.32,NE,39,0.0,1.1,89,0.00,,,0.00,0.00,VWS V14.01,2013-01-08 07:04:00,
2013-01-08 02:05:00,43.5,40.4,30.32,NE,41,1.1,1.1,89,0.00,,,0.00,0.00,VWS V14.01,2013-01-08 07:05:00,
2013-01-08 02:06:00,43.5,40.4,30.32,NE,41,0.0,1.1,89,0.00,,,0.00,0.00,VWS V14.01,2013-01-08 07:06:00,
2013-01-08 02:07:00,43.3,40.3,30.32,NE,41,0.0,0.0,89,0.00,,,0.00,0.00,VWS V14.01,2013-01-08 07:07:00,
2013-01-08 02:08:00,43.3,40.3,30.32,NE,41,0.0,1.1,89,0.00,,,0.00,0.00,VWS V14.01,2013-01-08 07:08:00,
2013-01-08 02:09:00,43.3,40.3,30.32,NNE,21,1.1,1.1,89,0.00,,,0.00,0.00,VWS V14.01,2013-01-08 07:09:00,
2013-01-08 02:10:00,43.3,40.3,30.32,NNE,15,1.1,1.1,89,0.00,,,0.00,0.00,VWS V14.01,2013-01-08 07:10:00,
2013-01-08 02:11:00,43.3,40.3,30.32,NNW,333,2.2,4.4,89,0.00,,,0.00,0.00,VWS V14.01,2013-01-08 07:11:00,
2013-01-08 02:12:00,43.3,40.3,30.32,North,358,0.0,2.2,89,0.00,,,0.00,0.00,VWS V14.01,2013-01-08 07:12:00,
2013-01-08 02:13:00,43.3,40.6,30.32,North,358,0.0,1.1,90,0.00,,,0.00,0.00,VWS V14.01,2013-01-08 07:13:00,
2013-01-08 02:14:00,43.3,40.6,30.32,North,358,0.0,0.0,90,0.00,,,0.00,0.00,VWS V14.01,2013-01-08 07:14:00,
2013-01-08 02:16:00,43.2,40.5,30.32,NNE,22,0.0,1.1,90,0.00,,,0.00,0.00,VWS V14.01,2013-01-08 07:16:00,
2013-01-08 02:17:00,43.2,40.4,30.32,NNE,23,2.2,2.2,90,0.00,,,0.00,0.00,VWS V14.01,2013-01-08 07:17:00,
2013-01-08 02:18:00,43.2,40.4,30.32,NE,37,1.1,1.1,90,0.00,,,0.00,0.00,VWS V14.01,2013-01-08 07:18:00,
2013-01-08 02:19:00,43.2,40.4,30.32,NE,41,0.0,2.2,90,0.00,,,0.00,0.00,VWS V14.01,2013-01-08 07:19:00,
2013-01-08 02:20:00,43.2,40.5,30.32,NE,41,0.0,1.1,90,0.00,,,0.00,0.00,VWS V14.01,2013-01-08 07:20:00,
2013-01-08 02:21:00,43.2,40.4,30.32,NNW,343,3.3,3.3,90,0.00,,,0.00,0.00,VWS V14.01,2013-01-08 07:21:00,
2013-01-08 02:22:00,43.2,40.4,30.32,NNE,14,0.0,3.3,90,0.00,,,0.00,0.00,VWS V14.01,2013-01-08 07:22:00,
2013-01-08 02:23:00,43.2,40.5,30.32,NNE,14,0.0,0.0,90,0.00,,,0.00,0.00,VWS V14.01,2013-01-08 07:23:00,
2013-01-08 02:24:00,43.2,40.5,30.32,NNE,14,0.0,0.0,90,0.00,,,0.00,0.00,VWS V14.01,2013-01-08 07:24:00,
2013-01-08 02:25:00,43.2,40.5,30.32,NNE,29,3.3,3.3,90,0.00,,,0.00,0.00,VWS V14.01,2013-01-08 07:25:00,
2013-01-08 02:26:00,43.2,40.5,30.32,North,10,0.0,3.3,90,0.00,,,0.00,0.00,VWS V14.01,2013-01-08 07:26:00,
2013-01-08 02:27:00,43.2,40.5,30.32,NNE,31,4.4,4.4,90,0.00,,,0.00,0.00,VWS V14.01,2013-01-08 07:27:00,
2013-01-08 02:28:00,43.3,40.6,30.32,NNE,12,1.1,4.4,90,0.00,,,0.00,0.00,VWS V14.01,2013-01-08 07:28:00,
2013-01-08 02:29:00,43.5,40.7,30.32,NNE,12,0.0,1.1,90,0.00,,,0.00,0.00,VWS V14.01,2013-01-08 07:29:00,
2013-01-08 02:30:00,43.5,40.7,30.32,NNE,12,0.0,0.0,90,0.00,,,0.00,0.00,VWS V14.01,2013-01-08 07:30:00,
2013-01-08 02:31:00,43.5,40.7,30.32,NNE,12,0.0,1.1,90,0.00,,,0.00,0.00,VWS V14.01,2013-01-08 07:31:00,
2013-01-08 02:32:00,43.5,40.7,30.32,NNE,12,0.0,1.1,90,0.00,,,0.00,0.00,VWS V14.01,2013-01-08 07:32:00,
2013-01-08 02:33:00,43.5,40.7,30.32,NNE,12,0.0,0.0,90,0.00,,,0.00,0.00,VWS V14.01,2013-01-08 07:33:00,
2013-01-08 02:34:00,43.5,40.7,30.32,NNE,19,0.0,1.1,90,0.00,,,0.00,0.00,VWS V14.01,2013-01-08 07:34:00,
2013-01-08 02:35:00,43.5,40.7,30.32,NNE,19,0.0,0.0,90,0.00,,,0.00,0.00,VWS V14.01,2013-01-08 07:35:00,
2013-01-08 02:36:00,43.5,40.7,30.32,NNE,18,0.0,1.1,90,0.00,,,0.00,0.00,VWS V14.01,2013-01-08 07:36:00,
2013-01-08 02:37:00,43.5,40.7,30.32,NNE,18,0.0,0.0,90,0.00,,,0.00,0.00,VWS V14.01,2013-01-08 07:37:00,
2013-01-08 02:38:00,43.5,40.7,30.32,NNE,18,0.0,0.0,90,0.00,,,0.00,0.00,VWS V14.01,2013-01-08 07:38:00,
2013-01-08 02:39:00,43.3,40.6,30.32,NNE,26,3.3,3.3,90,0.00,,,0.00,0.00,VWS V14.01,2013-01-08 07:39:00,
2013-01-08 02:40:00,43.3,40.6,30.32,NNE,15,1.1,3.3,90,0.00,,,0.00,0.00,VWS V14.01,2013-01-08 07:40:00,
2013-01-08 02:41:00,43.3,40.6,30.32,NNE,15,0.0,2.2,90,0.00,,,0.00,0.00,VWS V14.01,2013-01-08 07:41:00,
2013-01-08 02:42:00,43.3,40.6,30.32,NNE,17,0.0,1.1,90,0.00,,,0.00,0.00,VWS V14.01,2013-01-08 07:42:00,
2013-01-08 02:43:00,43.2,40.5,30.32,NNE,18,0.0,0.0,90,0.00,,,0.00,0.00,VWS V14.01,2013-01-08 07:43:00,
2013-01-08 02:44:00,43.2,40.5,30.32,NNE,18,0.0,0.0,90,0.00,,,0.00,0.00,VWS V14.01,2013-01-08 07:44:00,
2013-01-08 02:45:00,43.2,40.4,30.31,NNE,18,0.0,0.0,90,0.00,,,0.00,0.00,VWS V14.01,2013-01-08 07:45:00,
2013-01-08 02:46:00,43.2,40.4,30.31,NNE,18,0.0,0.0,90,0.00,,,0.00,0.00,VWS V14.01,2013-01-08 07:46:00,
2013-01-08 02:47:00,43.0,40.3,30.32,NE,42,2.2,3.3,90,0.00,,,0.00,0.00,VWS V14.01,2013-01-08 07:47:00,
2013-01-08 02:48:00,43.0,40.3,30.31,NNE,32,1.1,1.1,90,0.00,,,0.00,0.00,VWS V14.01,2013-01-08 07:48:00,
2013-01-08 02:49:00,43.0,40.3,30.31,NNE,32,0.0,1.1,90,0.00,,,0.00,0.00,VWS V14.01,2013-01-08 07:49:00,
2013-01-08 02:50:00,43.0,40.3,30.31,NE,44,3.3,3.3,90,0.00,,,0.00,0.00,VWS V14.01,2013-01-08 07:50:00,
2013-01-08 02:51:00,43.2,40.4,30.31,NE,35,1.1,3.3,90,0.00,,,0.00,0.00,VWS V14.01,2013-01-08 07:51:00,
2013-01-08 02:52:00,43.2,40.4,30.31,NNE,28,1.1,1.1,90,0.00,,,0.00,0.00,VWS V14.01,2013-01-08 07:52:00,
2013-01-08 02:53:00,43.2,40.4,30.31,NNE,29,0.0,0.0,90,0.00,,,0.00,0.00,VWS V14.01,2013-01-08 07:53:00,
2013-01-08 02:54:00,43.2,40.5,30.31,NNE,29,0.0,0.0,90,0.00,,,0.00,0.00,VWS V14.01,2013-01-08 07:54:00,
2013-01-08 02:55:00,43.2,40.5,30.31,NNE,31,1.1,2.2,90,0.00,,,0.00,0.00,VWS V14.01,2013-01-08 07:55:00,
2013-01-08 02:56:00,43.2,40.5,30.31,NNE,19,0.0,2.2,90,0.00,,,0.00,0.00,VWS V14.01,2013-01-08 07:56:00,
2013-01-08 02:57:00,43.2,40.5,30.31,NNE,22,2.2,2.2,90,0.00,,,0.00,0.00,VWS V14.01,2013-01-08 07:57:00,
2013-01-08 02:58:00,43.2,40.5,30.31,NNE,22,0.0,2.2,90,0.00,,,0.00,0.00,VWS V14.01,2013-01-08 07:58:00,
2013-01-08 02:59:00,43.2,40.5,30.31,NNE,22,0.0,0.0,90,0.00,,,0.00,0.00,VWS V14.01,2013-01-08 07:59:00,
2013-01-08 03:00:00,43.2,40.4,30.31,NNE,22,0.0,0.0,90,0.00,,,0.00,0.00,VWS V14.01,2013-01-08 08:00:00,
2013-01-08 03:01:00,43.2,40.4,30.31,NNE,22,0.0,0.0,90,0.00,,,0.00,0.00,VWS V14.01,2013-01-08 08:01:00,
2013-01-08 03:02:00,43.2,40.4,30.31,NNE,15,0.0,3.3,90,0.00,,,0.00,0.00,VWS V14.01,2013-01-08 08:02:00,
2013-01-08 03:03:00,43.2,40.4,30.31,NNE,15,0.0,1.1,90,0.00,,,0.00,0.00,VWS V14.01,2013-01-08 08:03:00,
2013-01-08 03:04:00,43.0,40.3,30.31,NNE,15,0.0,0.0,90,0.00,,,0.00,0.00,VWS V14.01,2013-01-08 08:04:00,
2013-01-08 03:05:00,43.0,40.3,30.31,NNE,14,0.0,2.2,90,0.00,,,0.00,0.00,VWS V14.01,2013-01-08 08:05:00,
2013-01-08 03:06:00,43.0,40.3,30.31,NNE,16,0.0,1.1,90,0.00,,,0.00,0.00,VWS V14.01,2013-01-08 08:06:00,
2013-01-08 03:07:00,43.0,40.3,30.31,NNE,16,0.0,0.0,90,0.00,,,0.00,0.00,VWS V14.01,2013-01-08 08:07:00,
2013-01-08 03:08:00,43.0,40.3,30.31,NNE,16,0.0,1.1,90,0.00,,,0.00,0.00,VWS V14.01,2013-01-08 08:08:00,
2013-01-08 03:09:00,43.0,40.3,30.31,NNE,16,0.0,0.0,90,0.00,,,0.00,0.00,VWS V14.01,2013-01-08 08:09:00,
2013-01-08 03:10:00,43.0,40.3,30.32,NNW,348,1.1,2.2,90,0.00,,,0.00,0.00,VWS V14.01,2013-01-08 08:10:00,
2013-01-08 03:11:00,43.0,40.3,30.32,North,353,1.1,4.4,90,0.00,,,0.00,0.00,VWS V14.01,2013-01-08 08:11:00,
2013-01-08 03:12:00,43.0,40.6,30.32,North,353,1.1,1.1,91,0.00,,,0.00,0.00,VWS V14.01,2013-01-08 08:12:00,
2013-01-08 03:13:00,43.0,40.3,30.32,North,353,1.1,1.1,90,0.00,,,0.00,0.00,VWS V14.01,2013-01-08 08:13:00,
2013-01-08 03:14:00,43.2,40.4,30.32,North,353,0.0,1.1,90,0.00,,,0.00,0.00,VWS V14.01,2013-01-08 08:14:00,
2013-01-08 03:15:00,43.2,40.4,30.31,North,353,0.0,1.1,90,0.00,,,0.00,0.00,VWS V14.01,2013-01-08 08:15:00,
2013-01-08 03:16:00,43.2,40.4,30.31,North,358,0.0,2.2,90,0.00,,,0.00,0.00,VWS V14.01,2013-01-08 08:16:00,
2013-01-08 03:17:00,43.2,40.4,30.32,North,358,0.0,1.1,90,0.00,,,0.00,0.00,VWS V14.01,2013-01-08 08:17:00,
2013-01-08 03:18:00,43.0,40.3,30.31,NE,35,0.0,1.1,90,0.00,,,0.00,0.00,VWS V14.01,2013-01-08 08:18:00,
2013-01-08 03:19:00,43.0,40.3,30.32,NNE,32,0.0,1.1,90,0.00,,,0.00,0.00,VWS V14.01,2013-01-08 08:19:00,
2013-01-08 03:20:00,43.0,40.3,30.32,NNE,32,0.0,0.0,90,0.00,,,0.00,0.00,VWS V14.01,2013-01-08 08:20:00,
2013-01-08 03:21:00,43.0,40.2,30.32,NE,39,0.0,1.1,90,0.00,,,0.00,0.00,VWS V14.01,2013-01-08 08:21:00,
2013-01-08 03:22:00,43.0,40.2,30.32,NE,39,0.0,1.1,90,0.00,,,0.00,0.00,VWS V14.01,2013-01-08 08:22:00,
2013-01-08 03:23:00,43.0,40.2,30.32,NNE,31,6.6,6.6,90,0.00,,,0.00,0.00,VWS V14.01,2013-01-08 08:23:00,
2013-01-08 03:24:00,43.0,40.5,30.32,NNE,19,0.0,2.2,91,0.00,,,0.00,0.00,VWS V14.01,2013-01-08 08:24:00,
2013-01-08 03:25:00,43.0,40.5,30.31,NNE,17,0.0,0.0,91,0.00,,,0.00,0.00,VWS V14.01,2013-01-08 08:25:00,
2013-01-08 03:26:00,43.0,40.3,30.31,NNW,344,1.1,2.2,90,0.00,,,0.00,0.00,VWS V14.01,2013-01-08 08:26:00,
2013-01-08 03:27:00,43.0,40.3,30.31,NNW,344,0.0,1.1,90,0.00,,,0.00,0.00,VWS V14.01,2013-01-08 08:27:00,
2013-01-08 03:28:00,43.0,40.3,30.31,NNW,344,0.0,0.0,90,0.00,,,0.00,0.00,VWS V14.01,2013-01-08 08:28:00,
2013-01-08 03:29:00,43.0,40.3,30.32,NNW,348,1.1,1.1,90,0.00,,,0.00,0.00,VWS V14.01,2013-01-08 08:29:00,
2013-01-08 03:30:00,43.0,40.3,30.31,NNW,348,0.0,1.1,90,0.00,,,0.00,0.00,VWS V14.01,2013-01-08 08:30:00,
2013-01-08 03:31:00,43.0,40.3,30.31,NNW,348,1.1,2.2,90,0.00,,,0.00,0.00,VWS V14.01,2013-01-08 08:31:00,
2013-01-08 03:32:00,43.0,40.3,30.31,NNW,348,1.1,1.1,90,0.00,,,0.00,0.00,VWS V14.01,2013-01-08 08:32:00,
2013-01-08 03:33:00,43.0,40.3,30.31,NNE,23,0.0,2.2,90,0.00,,,0.00,0.00,VWS V14.01,2013-01-08 08:33:00,
2013-01-08 03:34:00,43.0,40.3,30.31,NNE,25,1.1,1.1,90,0.00,,,0.00,0.00,VWS V14.01,2013-01-08 08:34:00,
2013-01-08 03:35:00,43.0,40.3,30.31,North,5,0.0,4.4,90,0.00,,,0.00,0.00,VWS V14.01,2013-01-08 08:35:00,
2013-01-08 03:36:00,43.2,40.4,30.31,North,5,1.1,1.1,90,0.00,,,0.00,0.00,VWS V14.01,2013-01-08 08:36:00,
2013-01-08 03:37:00,43.0,40.3,30.31,North,2,3.3,3.3,90,0.00,,,0.00,0.00,VWS V14.01,2013-01-08 08:37:00,
2013-01-08 03:38:00,43.0,40.3,30.31,NE,37,1.1,3.3,90,0.00,,,0.00,0.00,VWS V14.01,2013-01-08 08:38:00,
2013-01-08 03:39:00,43.0,40.3,30.31,NNW,348,1.1,1.1,90,0.00,,,0.00,0.00,VWS V14.01,2013-01-08 08:39:00,
2013-01-08 03:40:00,43.0,40.3,30.31,NNW,348,0.0,1.1,90,0.00,,,0.00,0.00,VWS V14.01,2013-01-08 08:40:00,
2013-01-08 03:41:00,43.0,40.3,30.31,North,358,1.1,3.3,90,0.00,,,0.00,0.00,VWS V14.01,2013-01-08 08:41:00,
2013-01-08 03:42:00,43.0,40.3,30.31,North,358,0.0,2.2,90,0.00,,,0.00,0.00,VWS V14.01,2013-01-08 08:42:00,
2013-01-08 03:43:00,43.0,40.3,30.31,NNE,19,1.1,2.2,90,0.00,,,0.00,0.00,VWS V14.01,2013-01-08 08:43:00,
2013-01-08 03:44:00,43.0,40.3,30.31,NE,34,2.2,2.2,90,0.00,,,0.00,0.00,VWS V14.01,2013-01-08 08:44:00,
2013-01-08 03:45:00,43.0,40.2,30.31,NNW,333,2.2,2.2,90,0.00,,,0.00,0.00,VWS V14.01,2013-01-08 08:45:00,
2013-01-08 03:46:00,43.0,40.2,30.31,NNE,17,1.1,3.3,90,0.00,,,0.00,0.00,VWS V14.01,2013-01-08 08:46:00,
2013-01-08 03:47:00,43.0,40.2,30.31,NNE,17,0.0,2.2,90,0.00,,,0.00,0.00,VWS V14.01,2013-01-08 08:47:00,
2013-01-08 03:48:00,43.0,40.2,30.31,NNW,348,2.2,2.2,90,0.00,,,0.00,0.00,VWS V14.01,2013-01-08 08:48:00,
2013-01-08 03:49:00,43.0,40.2,30.31,NNE,16,1.1,2.2,90,0.00,,,0.00,0.00,VWS V14.01,2013-01-08 08:49:00,
2013-01-08 03:50:00,43.0,40.2,30.31,North,10,1.1,1.1,90,0.00,,,0.00,0.00,VWS V14.01,2013-01-08 08:50:00,
2013-01-08 03:51:00,43.0,40.2,30.31,North,11,0.0,1.1,90,0.00,,,0.00,0.00,VWS V14.01,2013-01-08 08:51:00,
2013-01-08 03:52:00,43.0,40.2,30.30,NE,41,0.0,2.2,90,0.00,,,0.00,0.00,VWS V14.01,2013-01-08 08:52:00,
2013-01-08 03:53:00,43.0,40.2,30.30,NE,41,0.0,2.2,90,0.00,,,0.00,0.00,VWS V14.01,2013-01-08 08:53:00,
2013-01-08 03:54:00,42.8,40.1,30.31,NE,41,0.0,1.1,90,0.00,,,0.00,0.00,VWS V14.01,2013-01-08 08:54:00,
2013-01-08 03:55:00,42.8,40.1,30.30,NNE,24,3.3,3.3,90,0.00,,,0.00,0.00,VWS V14.01,2013-01-08 08:55:00,
2013-01-08 03:56:00,42.8,40.1,30.31,NNE,24,0.0,3.3,90,0.00,,,0.00,0.00,VWS V14.01,2013-01-08 08:56:00,
2013-01-08 03:57:00,42.8,40.1,30.30,NNE,24,1.1,1.1,90,0.00,,,0.00,0.00,VWS V14.01,2013-01-08 08:57:00,
2013-01-08 03:58:00,42.8,40.1,30.30,NNE,24,0.0,1.1,90,0.00,,,0.00,0.00,VWS V14.01,2013-01-08 08:58:00,
2013-01-08 03:59:00,42.8,40.0,30.31,NNE,24,0.0,0.0,90,0.00,,,0.00,0.00,VWS V14.01,2013-01-08 08:59:00,
2013-01-08 04:00:00,42.8,40.0,30.30,NNE,33,2.2,2.2,90,0.00,,,0.00,0.00,VWS V14.01,2013-01-08 09:00:00,
2013-01-08 04:01:00,42.8,40.0,30.30,NNE,19,2.2,3.3,90,0.00,,,0.00,0.00,VWS V14.01,2013-01-08 09:01:00,
2013-01-08 04:02:00,42.8,40.0,30.30,NNE,21,0.0,1.1,90,0.00,,,0.00,0.00,VWS V14.01,2013-01-08 09:02:00,
2013-01-08 04:03:00,42.8,40.0,30.30,NNE,21,0.0,1.1,90,0.00,,,0.00,0.00,VWS V14.01,2013-01-08 09:03:00,
2013-01-08 04:04:00,42.8,40.0,30.30,NNE,21,0.0,0.0,90,0.00,,,0.00,0.00,VWS V14.01,2013-01-08 09:04:00,
2013-01-08 04:05:00,42.8,40.0,30.30,NNE,21,0.0,0.0,90,0.00,,,0.00,0.00,VWS V14.01,2013-01-08 09:05:00,
2013-01-08 04:06:00,42.7,39.9,30.30,NNE,23,0.0,1.1,90,0.00,,,0.00,0.00,VWS V14.01,2013-01-08 09:06:00,
2013-01-08 04:07:00,42.5,39.8,30.30,NNE,23,0.0,0.0,90,0.00,,,0.00,0.00,VWS V14.01,2013-01-08 09:07:00,
2013-01-08 04:08:00,42.5,39.8,30.30,NNE,23,0.0,0.0,90,0.00,,,0.00,0.00,VWS V14.01,2013-01-08 09:08:00,
2013-01-08 04:09:00,42.5,39.8,30.30,NNE,23,0.0,1.1,90,0.00,,,0.00,0.00,VWS V14.01,2013-01-08 09:09:00,
2013-01-08 04:10:00,42.5,39.7,30.30,NNE,23,0.0,0.0,90,0.00,,,0.00,0.00,VWS V14.01,2013-01-08 09:10:00,
2013-01-08 04:11:00,42.5,39.7,30.30,North,8,0.0,2.2,90,0.00,,,0.00,0.00,VWS V14.01,2013-01-08 09:11:00,
2013-01-08 04:12:00,42.5,39.7,30.30,NNE,26,0.0,1.1,90,0.00,,,0.00,0.00,VWS V14.01,2013-01-08 09:12:00,
2013-01-08 04:14:00,42.3,39.6,30.30,NNE,27,0.0,0.0,90,0.00,,,0.00,0.00,VWS V14.01,2013-01-08 09:14:00,
2013-01-08 04:15:00,42.3,39.6,30.30,NNE,26,0.0,0.0,90,0.00,,,0.00,0.00,VWS V14.01,2013-01-08 09:15:00,
2013-01-08 04:16:00,42.3,39.6,30.30,NNE,27,0.0,0.0,90,0.00,,,0.00,0.00,VWS V14.01,2013-01-08 09:16:00,
2013-01-08 04:17:00,42.3,39.9,30.30,NNE,29,1.1,2.2,91,0.00,,,0.00,0.00,VWS V14.01,2013-01-08 09:17:00,
2013-01-08 04:18:00,42.3,39.9,30.30,NNE,29,0.0,2.2,91,0.00,,,0.00,0.00,VWS V14.01,2013-01-08 09:18:00,
2013-01-08 04:19:00,42.3,39.9,30.30,NNE,29,0.0,0.0,91,0.00,,,0.00,0.00,VWS V14.01,2013-01-08 09:19:00,
2013-01-08 04:20:00,42.3,39.9,30.30,NNE,29,0.0,2.2,91,0.00,,,0.00,0.00,VWS V14.01,2013-01-08 09:20:00,
2013-01-08 04:21:00,42.2,39.5,30.30,North,358,0.0,1.1,90,0.00,,,0.00,0.00,VWS V14.01,2013-01-08 09:21:00,
2013-01-08 04:22:00,42.2,39.8,30.30,NNW,348,0.0,2.2,91,0.00,,,0.00,0.00,VWS V14.01,2013-01-08 09:22:00,
2013-01-08 04:23:00,42.2,39.8,30.30,NNW,348,0.0,2.2,91,0.00,,,0.00,0.00,VWS V14.01,2013-01-08 09:23:00,
2013-01-08 04:24:00,42.2,39.8,30.30,North,358,1.1,2.2,91,0.00,,,0.00,0.00,VWS V14.01,2013-01-08 09:24:00,
2013-01-08 04:25:00,42.2,39.8,30.30,North,358,0.0,1.1,91,0.00,,,0.00,0.00,VWS V14.01,2013-01-08 09:25:00,
2013-01-08 04:26:00,42.2,39.8,30.30,North,358,0.0,1.1,91,0.00,,,0.00,0.00,VWS V14.01,2013-01-08 09:26:00,
2013-01-08 04:27:00,42.3,39.9,30.30,North,6,2.2,2.2,91,0.00,,,0.00,0.00,VWS V14.01,2013-01-08 09:27:00,
2013-01-08 04:28:00,42.2,39.8,30.30,North,6,0.0,2.2,91,0.00,,,0.00,0.00,VWS V14.01,2013-01-08 09:28:00,
2013-01-08 04:29:00,42.3,39.9,30.30,North,358,1.1,1.1,91,0.00,,,0.00,0.00,VWS V14.01,2013-01-08 09:29:00,
2013-01-08 04:30:00,42.3,39.9,30.30,North,5,2.2,2.2,91,0.00,,,0.00,0.00,VWS V14.01,2013-01-08 09:30:00,
2013-01-08 04:31:00,42.5,40.0,30.31,North,5,0.0,2.2,91,0.00,,,0.00,0.00,VWS V14.01,2013-01-08 09:31:00,
2013-01-08 04:32:00,42.5,39.7,30.30,North,353,2.2,3.3,90,0.00,,,0.00,0.00,VWS V14.01,2013-01-08 09:32:00,
2013-01-08 04:33:00,42.5,39.8,30.30,North,353,1.1,3.3,90,0.00,,,0.00,0.00,VWS V14.01,2013-01-08 09:33:00,
2013-01-08 04:34:00,42.5,39.7,30.30,North,353,0.0,1.1,90,0.00,,,0.00,0.00,VWS V14.01,2013-01-08 09:34:00,
2013-01-08 04:35:00,42.5,39.8,30.31,North,353,0.0,1.1,90,0.00,,,0.00,0.00,VWS V14.01,2013-01-08 09:35:00,
2013-01-08 04:36:00,42.5,39.8,30.30,North,353,1.1,1.1,90,0.00,,,0.00,0.00,VWS V14.01,2013-01-08 09:36:00,
2013-01-08 04:37:00,42.5,39.8,30.30,North,6,1.1,2.2,90,0.00,,,0.00,0.00,VWS V14.01,2013-01-08 09:37:00,
2013-01-08 04:38:00,42.5,39.8,30.30,NE,50,2.2,2.2,90,0.00,,,0.00,0.00,VWS V14.01,2013-01-08 09:38:00,
2013-01-08 04:39:00,42.5,39.8,30.31,NE,44,0.0,2.2,90,0.00,,,0.00,0.00,VWS V14.01,2013-01-08 09:39:00,
2013-01-08 04:40:00,42.5,39.8,30.31,NNE,31,3.3,4.4,90,0.00,,,0.00,0.00,VWS V14.01,2013-01-08 09:40:00,
2013-01-08 04:41:00,42.5,39.8,30.30,NNE,27,0.0,3.3,90,0.00,,,0.00,0.00,VWS V14.01,2013-01-08 09:41:00,
2013-01-08 04:42:00,42.5,39.8,30.30,NNE,28,0.0,1.1,90,0.00,,,0.00,0.00,VWS V14.01,2013-01-08 09:42:00,
2013-01-08 04:43:00,42.5,39.8,30.30,NNE,28,0.0,1.1,90,0.00,,,0.00,0.00,VWS V14.01,2013-01-08 09:43:00,
2013-01-08 04:44:00,42.5,39.8,30.30,NNE,28,0.0,0.0,90,0.00,,,0.00,0.00,VWS V14.01,2013-01-08 09:44:00,
2013-01-08 04:45:00,42.5,39.8,30.30,NNE,28,0.0,0.0,90,0.00,,,0.00,0.00,VWS V14.01,2013-01-08 09:45:00,
2013-01-08 04:46:00,42.5,39.8,30.30,NNE,28,0.0,0.0,90,0.00,,,0.00,0.00,VWS V14.01,2013-01-08 09:46:00,
2013-01-08 04:47:00,42.5,39.7,30.30,NNE,27,0.0,0.0,90,0.00,,,0.00,0.00,VWS V14.01,2013-01-08 09:47:00,
2013-01-08 04:48:00,42.5,39.7,30.30,NNE,27,0.0,0.0,90,0.00,,,0.00,0.00,VWS V14.01,2013-01-08 09:48:00,
2013-01-08 04:49:00,42.3,39.6,30.31,NNE,12,0.0,2.2,90,0.00,,,0.00,0.00,VWS V14.01,2013-01-08 09:49:00,
2013-01-08 04:50:00,42.3,39.6,30.31,NNE,21,1.1,3.3,90,0.00,,,0.00,0.00,VWS V14.01,2013-01-08 09:50:00,
2013-01-08 04:51:00,42.5,39.7,30.31,NNW,348,1.1,4.4,90,0.00,,,0.00,0.00,VWS V14.01,2013-01-08 09:51:00,
2013-01-08 04:52:00,42.5,39.7,30.30,North,8,0.0,0.0,90,0.00,,,0.00,0.00,VWS V14.01,2013-01-08 09:52:00,
2013-01-08 04:53:00,42.5,39.7,30.30,North,8,0.0,0.0,90,0.00,,,0.00,0.00,VWS V14.01,2013-01-08 09:53:00,
2013-01-08 04:54:00,42.5,39.7,30.30,North,8,0.0,0.0,90,0.00,,,0.00,0.00,VWS V14.01,2013-01-08 09:54:00,
2013-01-08 04:55:00,42.5,39.7,30.31,North,8,1.1,1.1,90,0.00,,,0.00,0.00,VWS V14.01,2013-01-08 09:55:00,
2013-01-08 04:56:00,42.5,39.7,30.31,NNE,32,2.2,2.2,90,0.00,,,0.00,0.00,VWS V14.01,2013-01-08 09:56:00,
2013-01-08 04:57:00,42.5,39.7,30.31,NNE,17,2.2,3.3,90,0.00,,,0.00,0.00,VWS V14.01,2013-01-08 09:57:00,
2013-01-08 04:58:00,42.5,39.8,30.31,NNE,23,2.2,3.3,90,0.00,,,0.00,0.00,VWS V14.01,2013-01-08 09:58:00,
2013-01-08 04:59:00,42.5,39.5,30.31,NNW,344,1.1,2.2,89,0.00,,,0.00,0.00,VWS V14.01,2013-01-08 09:59:00,
2013-01-08 05:00:00,42.5,39.5,30.31,North,358,0.0,1.1,89,0.00,,,0.00,0.00,VWS V14.01,2013-01-08 10:00:00,
2013-01-08 05:01:00,42.5,39.5,30.31,North,358,0.0,1.1,89,0.00,,,0.00,0.00,VWS V14.01,2013-01-08 10:01:00,
2013-01-08 05:02:00,42.5,39.5,30.31,North,10,3.3,3.3,89,0.00,,,0.00,0.00,VWS V14.01,2013-01-08 10:02:00,
2013-01-08 05:03:00,42.5,39.5,30.31,NNE,28,2.2,3.3,89,0.00,,,0.00,0.00,VWS V14.01,2013-01-08 10:03:00,
2013-01-08 05:04:00,42.5,39.5,30.31,NNE,12,1.1,3.3,89,0.00,,,0.00,0.00,VWS V14.01,2013-01-08 10:04:00,
2013-01-08 05:05:00,42.7,39.6,30.31,NNE,12,1.1,2.2,89,0.00,,,0.00,0.00,VWS V14.01,2013-01-08 10:05:00,
2013-01-08 05:06:00,42.7,39.6,30.31,North,5,0.0,3.3,89,0.00,,,0.00,0.00,VWS V14.01,2013-01-08 10:06:00,
2013-01-08 05:07:00,42.8,39.7,30.31,NNE,12,1.1,3.3,89,0.00,,,0.00,0.00,VWS V14.01,2013-01-08 10:07:00,
2013-01-08 05:08:00,42.8,39.7,30.31,NNE,14,2.2,3.3,89,0.00,,,0.00,0.00,VWS V14.01,2013-01-08 10:08:00,
2013-01-08 05:09:00,42.8,39.7,30.31,NNE,12,0.0,2.2,89,0.00,,,0.00,0.00,VWS V14.01,2013-01-08 10:09:00,
2013-01-08 05:10:00,42.8,39.7,30.31,NNE,12,0.0,0.0,89,0.00,,,0.00,0.00,VWS V14.01,2013-01-08 10:10:00,
2013-01-08 05:11:00,42.8,39.7,30.31,NNE,12,0.0,1.1,89,0.00,,,0.00,0.00,VWS V14.01,2013-01-08 10:11:00,
2013-01-08 05:12:00,42.8,39.7,30.31,North,358,0.0,2.2,89,0.00,,,0.00,0.00,VWS V14.01,2013-01-08 10:12:00,
2013-01-08 05:13:00,42.8,39.7,30.31,North,358,0.0,2.2,89,0.00,,,0.00,0.00,VWS V14.01,2013-01-08 10:13:00,
2013-01-08 05:14:00,42.8,39.7,30.31,North,358,0.0,0.0,89,0.00,,,0.00,0.00,VWS V14.01,2013-01-08 10:14:00,
2013-01-08 05:15:00,42.8,39.7,30.31,North,358,0.0,1.1,89,0.00,,,0.00,0.00,VWS V14.01,2013-01-08 10:15:00,
2013-01-08 05:16:00,42.8,39.7,30.32,North,358,0.0,0.0,89,0.00,,,0.00,0.00,VWS V14.01,2013-01-08 10:16:00,
2013-01-08 05:17:00,42.8,39.7,30.32,North,2,1.1,1.1,89,0.00,,,0.00,0.00,VWS V14.01,2013-01-08 10:17:00,
2013-01-08 05:18:00,42.8,39.7,30.32,North,2,2.2,2.2,89,0.00,,,0.00,0.00,VWS V14.01,2013-01-08 10:18:00,
2013-01-08 05:19:00,42.7,39.6,30.32,North,358,0.0,2.2,89,0.00,,,0.00,0.00,VWS V14.01,2013-01-08 10:19:00,
2013-01-08 05:20:00,42.7,39.6,30.32,North,358,0.0,1.1,89,0.00,,,0.00,0.00,VWS V14.01,2013-01-08 10:20:00,
2013-01-08 05:21:00,42.7,39.3,30.32,NNE,31,0.0,2.2,88,0.00,,,0.00,0.00,VWS V14.01,2013-01-08 10:21:00,
2013-01-08 05:22:00,42.7,39.3,30.32,NNE,12,0.0,3.3,88,0.00,,,0.00,0.00,VWS V14.01,2013-01-08 10:22:00,
2013-01-08 05:23:00,42.7,39.3,30.32,NNE,12,2.2,3.3,88,0.00,,,0.00,0.00,VWS V14.01,2013-01-08 10:23:00,
2013-01-08 05:24:00,42.7,39.3,30.32,NNE,12,0.0,2.2,88,0.00,,,0.00,0.00,VWS V14.01,2013-01-08 10:24:00,
2013-01-08 05:25:00,42.7,39.3,30.32,North,353,1.1,1.1,88,0.00,,,0.00,0.00,VWS V14.01,2013-01-08 10:25:00,
2013-01-08 05:26:00,42.7,39.3,30.32,North,4,2.2,3.3,88,0.00,,,0.00,0.00,VWS V14.01,2013-01-08 10:26:00,
2013-01-08 05:27:00,42.7,39.3,30.32,NNE,12,1.1,1.1,88,0.00,,,0.00,0.00,VWS V14.01,2013-01-08 10:27:00,
2013-01-08 05:28:00,42.7,39.3,30.32,North,11,3.3,3.3,88,0.00,,,0.00,0.00,VWS V14.01,2013-01-08 10:28:00,
2013-01-08 05:29:00,42.5,39.2,30.32,NNW,348,2.2,3.3,88,0.00,,,0.00,0.00,VWS V14.01,2013-01-08 10:29:00,
2013-01-08 05:30:00,42.5,39.2,30.32,NNW,344,1.1,2.2,88,0.00,,,0.00,0.00,VWS V14.01,2013-01-08 10:30:00,
2013-01-08 05:31:00,42.5,39.2,30.31,North,8,1.1,2.2,88,0.00,,,0.00,0.00,VWS V14.01,2013-01-08 10:31:00,
2013-01-08 05:32:00,42.5,39.2,30.31,NNE,17,0.0,2.2,88,0.00,,,0.00,0.00,VWS V14.01,2013-01-08 10:32:00,
2013-01-08 05:33:00,42.5,39.2,30.31,NNE,17,1.1,2.2,88,0.00,,,0.00,0.00,VWS V14.01,2013-01-08 10:33:00,
2013-01-08 05:34:00,42.5,39.2,30.31,North,358,0.0,2.2,88,0.00,,,0.00,0.00,VWS V14.01,2013-01-08 10:34:00,
2013-01-08 05:35:00,42.5,39.2,30.32,North,358,0.0,0.0,88,0.00,,,0.00,0.00,VWS V14.01,2013-01-08 10:35:00,
2013-01-08 05:36:00,42.5,39.2,30.32,North,8,0.0,1.1,88,0.00,,,0.00,0.00,VWS V14.01,2013-01-08 10:36:00,
2013-01-08 05:37:00,42.5,39.2,30.32,NE,40,0.0,2.2,88,0.00,,,0.00,0.00,VWS V14.01,2013-01-08 10:37:00,
2013-01-08 05:38:00,42.5,39.2,30.32,NE,40,1.1,2.2,88,0.00,,,0.00,0.00,VWS V14.01,2013-01-08 10:38:00,
2013-01-08 05:39:00,42.5,39.2,30.31,NE,49,2.2,3.3,88,0.00,,,0.00,0.00,VWS V14.01,2013-01-08 10:39:00,
2013-01-08 05:40:00,42.5,39.2,30.31,NE,49,0.0,2.2,88,0.00,,,0.00,0.00,VWS V14.01,2013-01-08 10:40:00,
2013-01-08 05:41:00,42.5,39.2,30.31,NE,49,0.0,0.0,88,0.00,,,0.00,0.00,VWS V14.01,2013-01-08 10:41:00,
2013-01-08 05:42:00,42.5,39.2,30.31,NE,49,0.0,1.1,88,0.00,,,0.00,0.00,VWS V14.01,2013-01-08 10:42:00,
2013-01-08 05:43:00,42.5,39.2,30.31,NE,49,0.0,1.1,88,0.00,,,0.00,0.00,VWS V14.01,2013-01-08 10:43:00,
2013-01-08 05:44:00,42.5,39.2,30.32,NNW,348,1.1,1.1,88,0.00,,,0.00,0.00,VWS V14.01,2013-01-08 10:44:00,
2013-01-08 05:45:00,42.5,39.4,30.32,NNW,348,1.1,1.1,89,0.00,,,0.00,0.00,VWS V14.01,2013-01-08 10:45:00,
2013-01-08 05:46:00,42.5,39.2,30.32,NNW,348,0.0,1.1,88,0.00,,,0.00,0.00,VWS V14.01,2013-01-08 10:46:00,
2013-01-08 05:47:00,42.3,39.1,30.32,NNW,339,0.0,2.2,88,0.00,,,0.00,0.00,VWS V14.01,2013-01-08 10:47:00,
2013-01-08 05:48:00,42.5,39.2,30.32,NNW,339,0.0,2.2,88,0.00,,,0.00,0.00,VWS V14.01,2013-01-08 10:48:00,
2013-01-08 05:49:00,42.3,39.1,30.32,NNW,339,0.0,0.0,88,0.00,,,0.00,0.00,VWS V14.01,2013-01-08 10:49:00,
2013-01-08 05:50:00,42.5,39.4,30.32,NNW,343,1.1,1.1,89,0.00,,,0.00,0.00,VWS V14.01,2013-01-08 10:50:00,
2013-01-08 05:51:00,42.3,39.3,30.32,NNW,343,0.0,2.2,89,0.00,,,0.00,0.00,VWS V14.01,2013-01-08 10:51:00,
2013-01-08 05:52:00,42.5,39.2,30.32,NNW,348,0.0,1.1,88,0.00,,,0.00,0.00,VWS V14.01,2013-01-08 10:52:00,
2013-01-08 05:53:00,42.5,39.2,30.32,NNW,348,0.0,1.1,88,0.00,,,0.00,0.00,VWS V14.01,2013-01-08 10:53:00,
2013-01-08 05:54:00,42.5,39.2,30.32,NNW,348,0.0,1.1,88,0.00,,,0.00,0.00,VWS V14.01,2013-01-08 10:54:00,
2013-01-08 05:55:00,42.5,39.2,30.32,NE,39,2.2,2.2,88,0.00,,,0.00,0.00,VWS V14.01,2013-01-08 10:55:00,
2013-01-08 05:56:00,42.5,39.2,30.32,NNE,26,1.1,2.2,88,0.00,,,0.00,0.00,VWS V14.01,2013-01-08 10:56:00,
2013-01-08 05:57:00,42.5,39.4,30.32,NNE,26,0.0,0.0,89,0.00,,,0.00,0.00,VWS V14.01,2013-01-08 10:57:00,
2013-01-08 05:58:00,42.5,39.4,30.32,NNE,32,0.0,1.1,89,0.00,,,0.00,0.00,VWS V14.01,2013-01-08 10:58:00,
2013-01-08 05:59:00,42.5,39.4,30.32,NNE,32,0.0,1.1,89,0.00,,,0.00,0.00,VWS V14.01,2013-01-08 10:59:00,
2013-01-08 06:00:00,42.5,39.2,30.32,NNE,32,0.0,0.0,88,0.00,,,0.00,0.00,VWS V14.01,2013-01-08 11:00:00,
2013-01-08 06:01:00,42.5,39.2,30.32,NNE,32,1.1,1.1,88,0.00,,,0.00,0.00,VWS V14.01,2013-01-08 11:01:00,
2013-01-08 06:02:00,42.3,39.1,30.32,NNE,21,0.0,3.3,88,0.00,,,0.00,0.00,VWS V14.01,2013-01-08 11:02:00,
2013-01-08 06:03:00,42.3,39.1,30.32,NNW,342,2.2,3.3,88,0.00,,,0.00,0.00,VWS V14.01,2013-01-08 11:03:00,
2013-01-08 06:04:00,42.3,39.3,30.32,NNE,14,0.0,4.4,89,0.00,,,0.00,0.00,VWS V14.01,2013-01-08 11:04:00,
2013-01-08 06:05:00,42.3,39.1,30.32,NNE,14,0.0,2.2,88,0.00,,,0.00,0.00,VWS V14.01,2013-01-08 11:05:00,
2013-01-08 06:06:00,42.3,39.1,30.32,NNE,15,0.0,1.1,88,0.00,,,0.00,0.00,VWS V14.01,2013-01-08 11:06:00,
2013-01-08 06:07:00,42.3,39.3,30.33,NNE,15,0.0,0.0,89,0.00,,,0.00,0.00,VWS V14.01,2013-01-08 11:07:00,
2013-01-08 06:08:00,42.3,39.3,30.33,NNW,339,2.2,2.2,89,0.00,,,0.00,0.00,VWS V14.01,2013-01-08 11:08:00,
2013-01-08 06:09:00,42.3,39.3,30.32,NNW,343,2.2,3.3,89,0.00,,,0.00,0.00,VWS V14.01,2013-01-08 11:09:00,
2013-01-08 06:10:00,42.3,39.3,30.32,North,4,4.4,4.4,89,0.00,,,0.00,0.00,VWS V14.01,2013-01-08 11:10:00,
2013-01-08 06:11:00,42.3,39.3,30.32,NNE,13,0.0,4.4,89,0.00,,,0.00,0.00,VWS V14.01,2013-01-08 11:11:00,
2013-01-08 06:12:00,42.2,39.2,30.33,NNE,19,0.0,0.0,89,0.00,,,0.00,0.00,VWS V14.01,2013-01-08 11:12:00,
2013-01-08 06:13:00,42.3,39.3,30.33,NNE,19,0.0,0.0,89,0.00,,,0.00,0.00,VWS V14.01,2013-01-08 11:13:00,
2013-01-08 06:14:00,42.3,39.3,30.32,NNE,15,0.0,1.1,89,0.00,,,0.00,0.00,VWS V14.01,2013-01-08 11:14:00,
2013-01-08 06:15:00,42.3,39.3,30.33,NNE,15,0.0,0.0,89,0.00,,,0.00,0.00,VWS V14.01,2013-01-08 11:15:00,
2013-01-08 06:16:00,42.3,39.3,30.32,NNE,15,0.0,0.0,89,0.00,,,0.00,0.00,VWS V14.01,2013-01-08 11:16:00,
2013-01-08 06:17:00,42.3,39.3,30.33,NE,39,1.1,2.2,89,0.00,,,0.00,0.00,VWS V14.01,2013-01-08 11:17:00,
2013-01-08 06:18:00,42.3,39.3,30.33,NE,39,1.1,2.2,89,0.00,,,0.00,0.00,VWS V14.01,2013-01-08 11:18:00,
2013-01-08 06:19:00,42.3,39.3,30.33,NE,39,0.0,1.1,89,0.00,,,0.00,0.00,VWS V14.01,2013-01-08 11:19:00,
2013-01-08 06:20:00,42.3,39.3,30.33,NE,39,0.0,0.0,89,0.00,,,0.00,0.00,VWS V14.01,2013-01-08 11:20:00,
2013-01-08 06:21:00,42.3,39.3,30.33,NE,39,1.1,1.1,89,0.00,,,0.00,0.00,VWS V14.01,2013-01-08 11:21:00,
2013-01-08 06:22:00,42.3,39.3,30.33,North,358,2.2,2.2,89,0.00,,,0.00,0.00,VWS V14.01,2013-01-08 11:22:00,
2013-01-08 06:23:00,42.3,39.3,30.33,NNE,15,1.1,2.2,89,0.00,,,0.00,0.00,VWS V14.01,2013-01-08 11:23:00,
2013-01-08 06:24:00,42.3,39.3,30.33,NNE,13,2.2,2.2,89,0.00,,,0.00,0.00,VWS V14.01,2013-01-08 11:24:00,
2013-01-08 06:25:00,42.3,39.3,30.33,NNE,18,1.1,3.3,89,0.00,,,0.00,0.00,VWS V14.01,2013-01-08 11:25:00,
2013-01-08 06:26:00,42.3,39.3,30.33,NNW,341,0.0,2.2,89,0.00,,,0.00,0.00,VWS V14.01,2013-01-08 11:26:00,
2013-01-08 06:27:00,42.3,39.3,30.33,NNW,341,0.0,1.1,89,0.00,,,0.00,0.00,VWS V14.01,2013-01-08 11:27:00,
2013-01-08 06:28:00,42.3,39.3,30.33,NNW,341,0.0,1.1,89,0.00,,,0.00,0.00,VWS V14.01,2013-01-08 11:28:00,
2013-01-08 06:29:00,42.3,39.3,30.33,NNW,341,1.1,1.1,89,0.00,,,0.00,0.00,VWS V14.01,2013-01-08 11:29:00,
2013-01-08 06:30:00,42.3,39.3,30.33,NNW,341,0.0,1.1,89,0.00,,,0.00,0.00,VWS V14.01,2013-01-08 11:30:00,
2013-01-08 06:31:00,42.3,39.3,30.33,NNW,341,0.0,2.2,89,0.00,,,0.00,0.00,VWS V14.01,2013-01-08 11:31:00,
2013-01-08 06:32:00,42.3,39.3,30.33,NNE,12,1.1,1.1,89,0.00,,,0.00,0.00,VWS V14.01,2013-01-08 11:32:00,
2013-01-08 06:33:00,42.3,39.3,30.33,NNW,341,1.1,3.3,89,0.00,,,0.00,0.00,VWS V14.01,2013-01-08 11:33:00,
2013-01-08 06:34:00,42.3,39.3,30.33,NNE,28,0.0,1.1,89,0.00,,,0.00,0.00,VWS V14.01,2013-01-08 11:34:00,
2013-01-08 06:35:00,42.3,39.3,30.33,NNE,28,0.0,0.0,89,0.00,,,0.00,0.00,VWS V14.01,2013-01-08 11:35:00,
2013-01-08 06:36:00,42.3,39.3,30.33,NNE,28,0.0,0.0,89,0.00,,,0.00,0.00,VWS V14.01,2013-01-08 11:36:00,
2013-01-08 06:37:00,42.3,39.3,30.33,NNE,28,0.0,0.0,89,0.00,,,0.00,0.00,VWS V14.01,2013-01-08 11:37:00,
2013-01-08 06:38:00,42.3,39.3,30.33,NNE,28,0.0,0.0,89,0.00,,,0.00,0.00,VWS V14.01,2013-01-08 11:38:00,
2013-01-08 06:39:00,42.2,39.2,30.33,North,2,0.0,2.2,89,0.00,,,0.00,0.00,VWS V14.01,2013-01-08 11:39:00,
2013-01-08 06:40:00,42.2,39.2,30.33,North,358,0.0,1.1,89,0.00,,,0.00,0.00,VWS V14.01,2013-01-08 11:40:00,
2013-01-08 06:41:00,42.2,39.2,30.33,North,358,0.0,1.1,89,0.00,,,0.00,0.00,VWS V14.01,2013-01-08 11:41:00,
2013-01-08 06:42:00,42.2,39.2,30.33,NNE,21,1.1,3.3,89,0.00,,,0.00,0.00,VWS V14.01,2013-01-08 11:42:00,
2013-01-08 06:43:00,42.2,39.2,30.33,NNE,21,0.0,3.3,89,0.00,,,0.00,0.00,VWS V14.01,2013-01-08 11:43:00,
2013-01-08 06:44:00,42.2,39.2,30.33,NE,34,0.0,1.1,89,0.00,,,0.00,0.00,VWS V14.01,2013-01-08 11:44:00,
2013-01-08 06:45:00,42.2,39.2,30.33,NE,34,0.0,1.1,89,0.00,,,0.00,0.00,VWS V14.01,2013-01-08 11:45:00,
2013-01-08 06:46:00,42.2,39.2,30.33,NE,34,0.0,2.2,89,0.00,,,0.00,0.00,VWS V14.01,2013-01-08 11:46:00,
2013-01-08 06:47:00,42.2,39.2,30.33,NNE,21,1.1,2.2,89,0.00,,,0.00,0.00,VWS V14.01,2013-01-08 11:47:00,
2013-01-08 06:48:00,42.2,39.2,30.33,NNE,21,0.0,2.2,89,0.00,,,0.00,0.00,VWS V14.01,2013-01-08 11:48:00,
2013-01-08 06:49:00,42.2,39.2,30.33,NNE,21,0.0,0.0,89,0.00,,,0.00,0.00,VWS V14.01,2013-01-08 11:49:00,
2013-01-08 06:50:00,42.2,39.2,30.33,NNE,21,0.0,1.1,89,0.00,,,0.00,0.00,VWS V14.01,2013-01-08 11:50:00,
2013-01-08 06:51:00,42.0,39.0,30.33,NNE,24,1.1,1.1,89,0.00,,,0.00,0.00,VWS V14.01,2013-01-08 11:51:00,
2013-01-08 06:52:00,42.0,39.0,30.33,NE,46,3.3,3.3,89,0.00,,,0.00,0.00,VWS V14.01,2013-01-08 11:52:00,
2013-01-08 06:53:00,42.0,39.0,30.33,NE,46,0.0,3.3,89,0.00,,,0.00,0.00,VWS V14.01,2013-01-08 11:53:00,
2013-01-08 06:54:00,42.0,39.0,30.33,NE,36,1.1,1.1,89,0.00,,,0.00,0.00,VWS V14.01,2013-01-08 11:54:00,
2013-01-08 06:55:00,42.0,39.0,30.33,NE,43,1.1,2.2,89,0.00,,,0.00,0.00,VWS V14.01,2013-01-08 11:55:00,
2013-01-08 06:56:00,42.0,39.0,30.33,NE,44,0.0,1.1,89,0.00,,,0.00,0.00,VWS V14.01,2013-01-08 11:56:00,
2013-01-08 06:57:00,42.2,39.2,30.33,North,10,2.2,3.3,89,0.00,,,0.00,0.00,VWS V14.01,2013-01-08 11:57:00,
2013-01-08 06:58:00,42.2,39.2,30.33,North,10,0.0,3.3,89,0.00,,,0.00,0.00,VWS V14.01,2013-01-08 11:58:00,
2013-01-08 06:59:00,42.2,39.4,30.33,North,358,0.0,5.5,90,0.00,,,0.00,0.00,VWS V14.01,2013-01-08 11:59:00,
2013-01-08 07:00:00,42.2,39.4,30.33,North,358,0.0,0.0,90,0.00,,,0.00,0.00,VWS V14.01,2013-01-08 12:00:00,
2013-01-08 07:01:00,42.2,39.2,30.33,North,358,0.0,1.1,89,0.00,,,0.00,0.00,VWS V14.01,2013-01-08 12:01:00,
2013-01-08 07:02:00,42.2,39.2,30.33,North,358,0.0,1.1,89,0.00,,,0.00,0.00,VWS V14.01,2013-01-08 12:02:00,
2013-01-08 07:03:00,42.2,39.2,30.33,North,10,1.1,1.1,89,0.00,,,0.00,0.00,VWS V14.01,2013-01-08 12:03:00,
2013-01-08 07:04:00,42.3,39.3,30.34,North,358,2.2,3.3,89,0.00,,,0.00,0.00,VWS V14.01,2013-01-08 12:04:00,
2013-01-08 07:05:00,42.3,39.3,30.34,North,358,0.0,2.2,89,0.00,,,0.00,0.00,VWS V14.01,2013-01-08 12:05:00,
2013-01-08 07:06:00,42.5,39.4,30.34,NNE,33,2.2,3.3,89,0.00,,,0.00,0.00,VWS V14.01,2013-01-08 12:06:00,
2013-01-08 07:07:00,42.5,39.4,30.34,NNE,31,0.0,0.0,89,0.00,,,0.00,0.00,VWS V14.01,2013-01-08 12:07:00,
2013-01-08 07:08:00,42.5,39.4,30.34,NNE,12,1.1,1.1,89,0.00,,,0.00,0.00,VWS V14.01,2013-01-08 12:08:00,
2013-01-08 07:09:00,42.5,39.5,30.34,NNE,12,0.0,1.1,89,0.00,,,0.00,0.00,VWS V14.01,2013-01-08 12:09:00,
2013-01-08 07:10:00,42.5,39.5,30.34,NNE,14,3.3,3.3,89,0.00,,,0.00,0.00,VWS V14.01,2013-01-08 12:10:00,
2013-01-08 07:11:00,42.5,39.5,30.34,NNE,33,2.2,3.3,89,0.00,,,0.00,0.00,VWS V14.01,2013-01-08 12:11:00,
2013-01-08 07:12:00,42.5,39.2,30.34,North,353,0.0,1.1,88,0.00,,,0.00,0.00,VWS V14.01,2013-01-08 12:12:00,
2013-01-08 07:13:00,42.7,39.3,30.34,North,353,0.0,1.1,88,0.00,,,0.00,0.00,VWS V14.01,2013-01-08 12:13:00,
2013-01-08 07:14:00,42.5,39.2,30.34,North,358,0.0,0.0,88,0.00,,,0.00,0.00,VWS V14.01,2013-01-08 12:14:00,
2013-01-08 07:15:00,42.7,39.3,30.34,NNE,17,0.0,2.2,88,0.00,,,0.00,0.00,VWS V14.01,2013-01-08 12:15:00,
2013-01-08 07:16:00,42.7,39.3,30.34,NNE,17,0.0,0.0,88,0.00,,,0.00,0.00,VWS V14.01,2013-01-08 12:16:00,
2013-01-08 07:17:00,42.5,39.2,30.34,NNE,15,0.0,0.0,88,0.00,,,0.00,0.00,VWS V14.01,2013-01-08 12:17:00,
2013-01-08 07:18:00,42.7,39.3,30.34,NNE,15,0.0,0.0,88,0.00,,,0.00,0.00,VWS V14.01,2013-01-08 12:18:00,
2013-01-08 07:19:00,42.5,39.2,30.34,NNE,15,1.1,1.1,88,0.00,,,0.00,0.00,VWS V14.01,2013-01-08 12:19:00,
2013-01-08 07:20:00,42.5,39.2,30.34,NNE,12,0.0,2.2,88,0.00,,,0.00,0.00,VWS V14.01,2013-01-08 12:20:00,
2013-01-08 07:21:00,42.5,39.2,30.34,NNE,12,0.0,1.1,88,0.00,,,0.00,0.00,VWS V14.01,2013-01-08 12:21:00,
2013-01-08 07:22:00,42.5,39.2,30.34,NNE,12,0.0,0.0,88,0.00,,,0.00,5.00,VWS V14.01,2013-01-08 12:22:00,
2013-01-08 07:23:00,42.5,39.2,30.34,NNE,12,0.0,1.1,88,0.00,,,0.00,5.00,VWS V14.01,2013-01-08 12:23:00,
2013-01-08 07:24:00,42.5,39.2,30.34,NNE,12,0.0,0.0,88,0.00,,,0.00,5.00,VWS V14.01,2013-01-08 12:24:00,
2013-01-08 07:25:00,42.5,39.2,30.35,North,3,1.1,2.2,88,0.00,,,0.00,5.00,VWS V14.01,2013-01-08 12:25:00,
2013-01-08 07:26:00,42.5,39.2,30.35,North,3,0.0,1.1,88,0.00,,,0.00,7.00,VWS V14.01,2013-01-08 12:26:00,
2013-01-08 07:27:00,42.5,39.2,30.35,NNE,16,0.0,1.1,88,0.00,,,0.00,7.00,VWS V14.01,2013-01-08 12:27:00,
2013-01-08 07:28:00,42.5,39.2,30.35,NNE,16,0.0,1.1,88,0.00,,,0.00,7.00,VWS V14.01,2013-01-08 12:28:00,
2013-01-08 07:29:00,42.5,39.2,30.35,NNE,17,2.2,2.2,88,0.00,,,0.00,9.00,VWS V14.01,2013-01-08 12:29:00,
2013-01-08 07:30:00,42.5,39.2,30.35,NNE,17,0.0,2.2,88,0.00,,,0.00,9.00,VWS V14.01,2013-01-08 12:30:00,
2013-01-08 07:31:00,42.5,39.2,30.35,NNE,17,0.0,1.1,88,0.00,,,0.00,9.00,VWS V14.01,2013-01-08 12:31:00,
2013-01-08 07:32:00,42.7,39.3,30.35,NNE,17,0.0,1.1,88,0.00,,,0.00,11.00,VWS V14.01,2013-01-08 12:32:00,
2013-01-08 07:33:00,42.7,39.3,30.35,NNE,17,1.1,1.1,88,0.00,,,0.00,11.00,VWS V14.01,2013-01-08 12:33:00,
2013-01-08 07:34:00,42.7,39.3,30.35,NNE,17,0.0,1.1,88,0.00,,,0.00,11.00,VWS V14.01,2013-01-08 12:34:00,
2013-01-08 07:35:00,42.7,39.3,30.35,NNE,17,0.0,1.1,88,0.00,,,0.00,11.00,VWS V14.01,2013-01-08 12:35:00,
2013-01-08 07:36:00,42.8,39.5,30.35,NNE,26,0.0,1.1,88,0.00,,,0.00,12.00,VWS V14.01,2013-01-08 12:36:00,
2013-01-08 07:37:00,42.8,39.5,30.35,NNE,22,0.0,0.0,88,0.00,,,0.00,14.00,VWS V14.01,2013-01-08 12:37:00,
2013-01-08 07:38:00,42.8,39.5,30.35,NNE,22,0.0,0.0,88,0.00,,,0.00,14.00,VWS V14.01,2013-01-08 12:38:00,
2013-01-08 07:39:00,42.8,39.5,30.35,North,353,2.2,2.2,88,0.00,,,0.00,16.00,VWS V14.01,2013-01-08 12:39:00,
2013-01-08 07:40:00,42.8,39.5,30.35,North,353,0.0,2.2,88,0.00,,,0.00,16.00,VWS V14.01,2013-01-08 12:40:00,
2013-01-08 07:41:00,42.8,39.5,30.35,North,8,0.0,3.3,88,0.00,,,0.00,18.00,VWS V14.01,2013-01-08 12:41:00,
2013-01-08 07:42:00,42.8,39.5,30.35,North,9,2.2,2.2,88,0.00,,,0.00,19.00,VWS V14.01,2013-01-08 12:42:00,
2013-01-08 07:43:00,42.8,39.5,30.35,NNE,17,2.2,3.3,88,0.00,,,0.00,19.00,VWS V14.01,2013-01-08 12:43:00,
2013-01-08 07:44:00,42.8,39.5,30.36,NNE,17,0.0,2.2,88,0.00,,,0.00,19.00,VWS V14.01,2013-01-08 12:44:00,
2013-01-08 07:45:00,42.8,39.5,30.36,NNE,17,0.0,0.0,88,0.00,,,0.00,21.00,VWS V14.01,2013-01-08 12:45:00,
2013-01-08 07:46:00,43.0,39.7,30.36,NNE,17,1.1,1.1,88,0.00,,,0.00,21.00,VWS V14.01,2013-01-08 12:46:00,
2013-01-08 07:47:00,43.0,39.7,30.36,NNE,17,0.0,1.1,88,0.00,,,0.00,23.00,VWS V14.01,2013-01-08 12:47:00,
2013-01-08 07:48:00,43.0,39.7,30.36,NNE,17,1.1,1.1,88,0.00,,,0.00,23.00,VWS V14.01,2013-01-08 12:48:00,
2013-01-08 07:49:00,43.0,39.7,30.36,NNE,17,0.0,1.1,88,0.00,,,0.00,25.00,VWS V14.01,2013-01-08 12:49:00,
2013-01-08 07:50:00,43.0,39.7,30.36,NNE,17,0.0,1.1,88,0.00,,,0.00,26.00,VWS V14.01,2013-01-08 12:50:00,
2013-01-08 07:51:00,43.0,39.7,30.36,NNE,17,0.0,1.1,88,0.00,,,0.00,26.00,VWS V14.01,2013-01-08 12:51:00,
2013-01-08 07:52:00,43.0,39.5,30.36,NNE,29,0.0,0.0,87,0.00,,,0.00,28.00,VWS V14.01,2013-01-08 12:52:00,
2013-01-08 07:53:00,43.2,39.5,30.36,North,6,1.1,1.1,87,0.00,,,0.00,28.00,VWS V14.01,2013-01-08 12:53:00,
2013-01-08 07:54:00,43.2,39.7,30.36,NNE,17,1.1,3.3,87,0.00,,,0.00,30.00,VWS V14.01,2013-01-08 12:54:00,
2013-01-08 07:55:00,43.2,39.7,30.36,North,2,0.0,1.1,87,0.00,,,0.00,30.00,VWS V14.01,2013-01-08 12:55:00,
2013-01-08 07:56:00,43.3,39.8,30.36,North,4,0.0,1.1,87,0.00,,,0.00,33.00,VWS V14.01,2013-01-08 12:56:00,
2013-01-08 07:57:00,43.5,39.8,30.37,North,2,2.2,2.2,87,0.00,,,0.00,33.00,VWS V14.01,2013-01-08 12:57:00,
2013-01-08 07:58:00,43.5,39.8,30.37,North,2,1.1,2.2,87,0.00,,,0.00,33.00,VWS V14.01,2013-01-08 12:58:00,
2013-01-08 07:59:00,43.5,39.8,30.37,North,2,0.0,1.1,87,0.00,,,0.00,35.00,VWS V14.01,2013-01-08 12:59:00,
2013-01-08 08:00:00,43.5,39.9,30.37,North,3,0.0,1.1,87,0.00,,,0.00,35.00,VWS V14.01,2013-01-08 13:00:00,
2013-01-08 08:01:00,43.7,40.0,30.37,North,3,1.1,1.1,87,0.00,,,0.00,35.00,VWS V14.01,2013-01-08 13:01:00,
2013-01-08 08:02:00,43.8,39.8,30.36,North,353,2.2,2.2,86,0.00,,,0.00,37.00,VWS V14.01,2013-01-08 13:02:00,
2013-01-08 08:03:00,43.8,39.8,30.36,North,353,1.1,2.2,86,0.00,,,0.00,37.00,VWS V14.01,2013-01-08 13:03:00,
2013-01-08 08:04:00,43.8,39.9,30.37,NE,56,0.0,1.1,86,0.00,,,0.00,37.00,VWS V14.01,2013-01-08 13:04:00,
2013-01-08 08:05:00,43.8,39.9,30.37,NE,56,0.0,0.0,86,0.00,,,0.00,39.00,VWS V14.01,2013-01-08 13:05:00,
2013-01-08 08:06:00,43.8,39.9,30.37,NNE,13,0.0,2.2,86,0.00,,,0.00,40.00,VWS V14.01,2013-01-08 13:06:00,
2013-01-08 08:07:00,44.0,40.0,30.37,NE,45,1.1,2.2,86,0.00,,,0.00,42.00,VWS V14.01,2013-01-08 13:07:00,
2013-01-08 08:08:00,44.0,40.0,30.37,ENE,72,1.1,2.2,86,0.00,,,0.00,44.00,VWS V14.01,2013-01-08 13:08:00,
2013-01-08 08:09:00,44.0,40.0,30.37,North,2,1.1,3.3,86,0.00,,,0.00,46.00,VWS V14.01,2013-01-08 13:09:00,
2013-01-08 08:10:00,44.0,40.1,30.37,NNE,27,0.0,2.2,86,0.00,,,0.00,46.00,VWS V14.01,2013-01-08 13:10:00,
2013-01-08 08:11:00,44.2,40.2,30.37,North,358,1.1,3.3,86,0.00,,,0.00,46.00,VWS V14.01,2013-01-08 13:11:00,
2013-01-08 08:12:00,44.2,40.0,30.37,NNE,17,0.0,3.3,85,0.00,,,0.00,44.00,VWS V14.01,2013-01-08 13:12:00,
2013-01-08 08:13:00,44.2,40.0,30.37,NNE,17,1.1,3.3,85,0.00,,,0.00,44.00,VWS V14.01,2013-01-08 13:13:00,
2013-01-08 08:14:00,44.3,40.1,30.37,NNE,16,0.0,2.2,85,0.00,,,0.00,44.00,VWS V14.01,2013-01-08 13:14:00,
2013-01-08 08:15:00,44.3,40.1,30.37,North,2,3.3,3.3,85,0.00,,,0.00,46.00,VWS V14.01,2013-01-08 13:15:00,
2013-01-08 08:16:00,44.5,40.2,30.37,North,358,0.0,4.4,85,0.00,,,0.00,47.00,VWS V14.01,2013-01-08 13:16:00,
2013-01-08 08:17:00,44.5,40.3,30.37,North,358,0.0,0.0,85,0.00,,,0.00,47.00,VWS V14.01,2013-01-08 13:17:00,
2013-01-08 08:18:00,44.5,40.3,30.37,North,358,0.0,0.0,85,0.00,,,0.00,47.00,VWS V14.01,2013-01-08 13:18:00,
2013-01-08 08:19:00,44.5,40.3,30.37,North,358,0.0,0.0,85,0.00,,,0.00,49.00,VWS V14.01,2013-01-08 13:19:00,
2013-01-08 08:20:00,44.7,40.4,30.37,North,358,2.2,2.2,85,0.00,,,0.00,49.00,VWS V14.01,2013-01-08 13:20:00,
2013-01-08 08:21:00,44.8,40.5,30.37,North,6,0.0,4.4,85,0.00,,,0.00,51.00,VWS V14.01,2013-01-08 13:21:00,
2013-01-08 08:22:00,44.8,40.5,30.37,NNE,15,0.0,3.3,85,0.00,,,0.00,54.00,VWS V14.01,2013-01-08 13:22:00,
2013-01-08 08:23:00,44.8,40.5,30.37,NNW,337,1.1,3.3,85,0.00,,,0.00,54.00,VWS V14.01,2013-01-08 13:23:00,
2013-01-08 08:24:00,44.8,40.6,30.37,NNW,337,0.0,1.1,85,0.00,,,0.00,56.00,VWS V14.01,2013-01-08 13:24:00,
2013-01-08 08:25:00,45.0,40.7,30.37,North,358,2.2,3.3,85,0.00,,,0.00,56.00,VWS V14.01,2013-01-08 13:25:00,
2013-01-08 08:26:00,45.0,40.7,30.37,NNW,343,2.2,6.6,85,0.00,,,0.00,58.00,VWS V14.01,2013-01-08 13:26:00,
2013-01-08 08:27:00,45.0,40.5,30.37,NE,44,2.2,2.2,84,0.00,,,0.00,63.00,VWS V14.01,2013-01-08 13:27:00,
2013-01-08 08:28:00,45.0,40.5,30.37,NNW,329,3.3,3.3,84,0.00,,,0.00,63.00,VWS V14.01,2013-01-08 13:28:00,
2013-01-08 08:29:00,45.2,40.6,30.37,North,358,0.0,3.3,84,0.00,,,0.00,65.00,VWS V14.01,2013-01-08 13:29:00,
2013-01-08 08:30:00,45.2,40.6,30.37,North,358,0.0,1.1,84,0.00,,,0.00,67.00,VWS V14.01,2013-01-08 13:30:00,
2013-01-08 08:31:00,45.2,40.7,30.37,NNE,33,1.1,2.2,84,0.00,,,0.00,72.00,VWS V14.01,2013-01-08 13:31:00,
2013-01-08 08:32:00,45.3,40.8,30.37,NNE,33,0.0,0.0,84,0.00,,,0.00,74.00,VWS V14.01,2013-01-08 13:32:00,
2013-01-08 08:33:00,45.5,40.9,30.37,NE,35,1.1,1.1,84,0.00,,,0.00,76.00,VWS V14.01,2013-01-08 13:33:00,
2013-01-08 08:34:00,45.5,40.9,30.37,NE,35,0.0,1.1,84,0.00,,,0.00,77.00,VWS V14.01,2013-01-08 13:34:00,
2013-01-08 08:35:00,45.5,40.6,30.37,NNE,12,1.1,2.2,83,0.00,,,0.00,79.00,VWS V14.01,2013-01-08 13:35:00,
2013-01-08 08:36:00,45.5,41.0,30.37,NNW,344,0.0,3.3,84,0.00,,,0.00,83.00,VWS V14.01,2013-01-08 13:36:00,
2013-01-08 08:37:00,45.8,41.2,30.37,NE,46,1.1,5.5,84,0.00,,,0.00,88.00,VWS V14.01,2013-01-08 13:37:00,
2013-01-08 08:38:00,45.8,41.2,30.37,North,358,5.5,5.5,84,0.00,,,0.00,91.00,VWS V14.01,2013-01-08 13:38:00,
2013-01-08 08:39:00,45.8,40.9,30.36,NE,35,1.1,5.5,83,0.00,,,0.00,93.00,VWS V14.01,2013-01-08 13:39:00,
2013-01-08 08:40:00,45.8,41.0,30.37,NE,46,0.0,1.1,83,0.00,,,0.00,95.00,VWS V14.01,2013-01-08 13:40:00,
2013-01-08 08:41:00,46.0,41.1,30.37,NE,47,0.0,0.0,83,0.00,,,0.00,97.00,VWS V14.01,2013-01-08 13:41:00,
2013-01-08 08:42:00,46.0,41.2,30.37,North,358,4.4,4.4,83,0.00,,,0.00,102.00,VWS V14.01,2013-01-08 13:42:00,
2013-01-08 08:43:00,46.2,41.0,30.37,NNW,331,0.0,4.4,82,0.00,,,0.00,104.00,VWS V14.01,2013-01-08 13:43:00,
2013-01-08 08:44:00,46.2,41.1,30.37,North,9,1.1,4.4,82,0.00,,,0.00,105.00,VWS V14.01,2013-01-08 13:44:00,
2013-01-08 08:45:00,46.3,41.2,30.37,North,6,0.0,1.1,82,0.00,,,0.00,107.00,VWS V14.01,2013-01-08 13:45:00,
2013-01-08 08:46:00,46.5,41.6,30.37,North,6,0.0,0.0,83,0.00,,,0.00,109.00,VWS V14.01,2013-01-08 13:46:00,
2013-01-08 08:47:00,46.7,41.8,30.37,North,3,4.4,5.5,83,0.00,,,0.00,109.00,VWS V14.01,2013-01-08 13:47:00,
2013-01-08 08:48:00,46.7,41.5,30.37,NNE,27,2.2,5.5,82,0.00,,,0.00,107.00,VWS V14.01,2013-01-08 13:48:00,
2013-01-08 08:49:00,46.8,41.6,30.36,NNE,27,0.0,2.2,82,0.00,,,0.00,107.00,VWS V14.01,2013-01-08 13:49:00,
2013-01-08 08:50:00,46.8,41.7,30.36,North,10,2.2,2.2,82,0.00,,,0.00,107.00,VWS V14.01,2013-01-08 13:50:00,
2013-01-08 08:51:00,47.0,41.4,30.36,ENE,64,2.2,3.3,81,0.00,,,0.00,105.00,VWS V14.01,2013-01-08 13:51:00,
2013-01-08 08:52:00,47.0,41.5,30.36,ENE,70,1.1,3.3,81,0.00,,,0.00,105.00,VWS V14.01,2013-01-08 13:52:00,
2013-01-08 08:53:00,47.2,41.6,30.36,North,358,2.2,3.3,81,0.00,,,0.00,105.00,VWS V14.01,2013-01-08 13:53:00,
2013-01-08 08:54:00,47.2,41.6,30.36,NNE,12,2.2,2.2,81,0.00,,,0.00,102.00,VWS V14.01,2013-01-08 13:54:00,
2013-01-08 08:55:00,47.2,41.4,30.36,North,8,2.2,3.3,80,0.00,,,0.00,100.00,VWS V14.01,2013-01-08 13:55:00,
2013-01-08 08:56:00,47.3,41.5,30.36,North,358,2.2,3.3,80,0.00,,,0.00,98.00,VWS V14.01,2013-01-08 13:56:00,
2013-01-08 08:57:00,47.5,41.9,30.36,ENE,75,1.1,4.4,81,0.00,,,0.00,100.00,VWS V14.01,2013-01-08 13:57:00,
2013-01-08 08:58:00,47.5,41.9,30.36,NNE,22,3.3,4.4,81,0.00,,,0.00,100.00,VWS V14.01,2013-01-08 13:58:00,
2013-01-08 09:00:00,47.5,42.0,30.36,NNE,28,0.0,1.1,81,0.00,,,0.00,111.00,VWS V14.01,2013-01-08 14:00:00,
2013-01-08 09:01:00,47.5,42.0,30.36,NNE,28,0.0,0.0,81,0.00,,,0.00,114.00,VWS V14.01,2013-01-08 14:01:00,
2013-01-08 09:02:00,47.7,42.1,30.37,North,6,1.1,3.3,81,0.00,,,0.00,118.00,VWS V14.01,2013-01-08 14:02:00,
2013-01-08 09:03:00,47.8,42.2,30.37,North,7,2.2,3.3,81,0.00,,,0.00,118.00,VWS V14.01,2013-01-08 14:03:00,
2013-01-08 09:04:00,47.8,41.9,30.37,NE,42,1.1,3.3,80,0.00,,,0.00,120.00,VWS V14.01,2013-01-08 14:04:00,
2013-01-08 09:05:00,47.8,42.0,30.37,North,358,2.2,3.3,80,0.00,,,0.00,121.00,VWS V14.01,2013-01-08 14:05:00,
2013-01-08 09:06:00,48.0,42.4,30.37,North,358,0.0,2.2,81,0.00,,,0.00,127.00,VWS V14.01,2013-01-08 14:06:00,
2013-01-08 09:07:00,48.2,42.3,30.37,NNW,342,1.1,1.1,80,0.00,,,0.00,125.00,VWS V14.01,2013-01-08 14:07:00,
2013-01-08 09:08:00,48.2,42.4,30.37,NNE,31,2.2,2.2,80,0.00,,,0.00,127.00,VWS V14.01,2013-01-08 14:08:00,
2013-01-08 09:09:00,48.2,42.4,30.37,North,11,2.2,3.3,80,0.00,,,0.00,123.00,VWS V14.01,2013-01-08 14:09:00,
2013-01-08 09:10:00,48.3,42.2,30.37,NNE,14,0.0,3.3,79,0.00,,,0.00,123.00,VWS V14.01,2013-01-08 14:10:00,
2013-01-08 09:11:00,48.5,42.6,30.37,NNE,24,1.1,2.2,80,0.00,,,0.00,125.00,VWS V14.01,2013-01-08 14:11:00,
2013-01-08 09:12:00,48.5,42.3,30.37,NE,55,4.4,4.4,79,0.00,,,0.00,123.00,VWS V14.01,2013-01-08 14:12:00,
2013-01-08 09:13:00,48.7,42.4,30.37,North,358,4.4,4.4,79,0.00,,,0.00,123.00,VWS V14.01,2013-01-08 14:13:00,
2013-01-08 09:14:00,48.7,42.4,30.37,NE,46,1.1,4.4,79,0.00,,,0.00,125.00,VWS V14.01,2013-01-08 14:14:00,
2013-01-08 09:15:00,48.8,42.5,30.37,NNE,13,3.3,5.5,79,0.00,,,0.00,127.00,VWS V14.01,2013-01-08 14:15:00,
2013-01-08 09:16:00,48.8,42.5,30.38,NE,47,0.0,5.5,79,0.00,,,0.00,123.00,VWS V14.01,2013-01-08 14:16:00,
2013-01-08 09:17:00,48.8,42.6,30.38,North,10,2.2,4.4,79,0.00,,,0.00,118.00,VWS V14.01,2013-01-08 14:17:00,
2013-01-08 09:18:00,48.8,42.6,30.38,North,353,4.4,4.4,79,0.00,,,0.00,116.00,VWS V14.01,2013-01-08 14:18:00,
2013-01-08 09:19:00,48.8,42.6,30.38,NNW,348,4.4,4.4,79,0.00,,,0.00,114.00,VWS V14.01,2013-01-08 14:19:00,
2013-01-08 09:20:00,48.8,42.6,30.38,NNE,31,3.3,5.5,79,0.00,,,0.00,113.00,VWS V14.01,2013-01-08 14:20:00,
2013-01-08 09:21:00,48.8,42.6,30.38,NW,324,3.3,5.5,79,0.00,,,0.00,107.00,VWS V14.01,2013-01-08 14:21:00,
2013-01-08 09:22:00,48.8,42.6,30.38,WNW,295,2.2,3.3,79,0.00,,,0.00,114.00,VWS V14.01,2013-01-08 14:22:00,
2013-01-08 09:23:00,48.8,42.6,30.38,NNE,25,2.2,3.3,79,0.00,,,0.00,114.00,VWS V14.01,2013-01-08 14:23:00,
2013-01-08 09:24:00,48.8,42.6,30.38,NNW,341,3.3,5.5,79,0.00,,,0.00,105.00,VWS V14.01,2013-01-08 14:24:00,
2013-01-08 09:25:00,49.0,42.7,30.38,NE,40,2.2,3.3,79,0.00,,,0.00,98.00,VWS V14.01,2013-01-08 14:25:00,
2013-01-08 09:26:00,49.0,42.7,30.38,North,2,2.2,3.3,79,0.00,,,0.00,98.00,VWS V14.01,2013-01-08 14:26:00,
2013-01-08 09:27:00,49.0,42.8,30.38,NE,40,0.0,1.1,79,0.00,,,0.00,97.00,VWS V14.01,2013-01-08 14:27:00,
2013-01-08 09:28:00,49.2,42.9,30.38,North,358,4.4,4.4,79,0.00,,,0.00,97.00,VWS V14.01,2013-01-08 14:28:00,
2013-01-08 09:29:00,49.2,43.0,30.38,ENE,59,0.0,4.4,79,0.00,,,0.00,95.00,VWS V14.01,2013-01-08 14:29:00,
2013-01-08 09:30:00,49.2,43.0,30.38,NE,34,3.3,4.4,79,0.00,,,0.00,100.00,VWS V14.01,2013-01-08 14:30:00,
2013-01-08 09:31:00,49.2,43.0,30.38,ENE,68,1.1,3.3,79,0.00,,,0.00,102.00,VWS V14.01,2013-01-08 14:31:00,
2013-01-08 09:32:00,49.5,43.2,30.38,ENE,65,2.2,4.4,79,0.00,,,0.00,118.00,VWS V14.01,2013-01-08 14:32:00,
2013-01-08 09:33:00,49.5,43.2,30.38,NNW,348,4.4,4.4,79,0.00,,,0.00,118.00,VWS V14.01,2013-01-08 14:33:00,
2013-01-08 09:34:00,49.5,42.9,30.38,ENE,69,2.2,4.4,78,0.00,,,0.00,113.00,VWS V14.01,2013-01-08 14:34:00,
2013-01-08 09:35:00,49.5,43.3,30.38,NE,50,2.2,2.2,79,0.00,,,0.00,107.00,VWS V14.01,2013-01-08 14:35:00,
2013-01-08 09:36:00,49.5,43.3,30.38,NNE,33,2.2,2.2,79,0.00,,,0.00,118.00,VWS V14.01,2013-01-08 14:36:00,
2013-01-08 09:37:00,49.7,43.1,30.38,NNE,16,2.2,2.2,78,0.00,,,0.00,141.00,VWS V14.01,2013-01-08 14:37:00,
2013-01-08 09:38:00,49.7,43.1,30.38,NNE,19,2.2,3.3,78,0.00,,,0.00,134.00,VWS V14.01,2013-01-08 14:38:00,
2013-01-08 09:39:00,49.7,43.4,30.38,NNE,19,1.1,2.2,79,0.00,,,0.00,137.00,VWS V14.01,2013-01-08 14:39:00,
2013-01-08 09:40:00,49.8,43.2,30.38,North,353,3.3,3.3,78,0.00,,,0.00,146.00,VWS V14.01,2013-01-08 14:40:00,
2013-01-08 09:41:00,49.8,43.3,30.38,North,353,1.1,3.3,78,0.00,,,0.00,137.00,VWS V14.01,2013-01-08 14:41:00,
2013-01-08 09:42:00,50.0,43.8,30.38,North,358,0.0,0.0,79,0.00,,,0.00,125.00,VWS V14.01,2013-01-08 14:42:00,
2013-01-08 09:43:00,50.2,43.9,30.38,NE,56,3.3,3.3,79,0.00,,,0.00,120.00,VWS V14.01,2013-01-08 14:43:00,
2013-01-08 09:44:00,50.3,44.1,30.38,NE,34,0.0,4.4,79,0.00,,,0.00,130.00,VWS V14.01,2013-01-08 14:44:00,
2013-01-08 09:45:00,50.5,44.2,30.38,NE,34,0.0,0.0,79,0.00,,,0.00,151.00,VWS V14.01,2013-01-08 14:45:00,
2013-01-08 09:46:00,50.7,44.4,30.38,NE,34,0.0,0.0,79,0.00,,,0.00,209.00,VWS V14.01,2013-01-08 14:46:00,
2013-01-08 09:47:00,50.8,44.2,30.38,NE,34,1.1,2.2,78,0.00,,,0.00,271.00,VWS V14.01,2013-01-08 14:47:00,
2013-01-08 09:48:00,50.8,44.2,30.38,NNE,22,1.1,2.2,78,0.00,,,0.00,297.00,VWS V14.01,2013-01-08 14:48:00,
2013-01-08 09:49:00,50.8,43.9,30.38,NNE,27,1.1,1.1,77,0.00,,,0.00,315.00,VWS V14.01,2013-01-08 14:49:00,
2013-01-08 09:50:00,50.8,43.9,30.38,NNE,28,0.0,1.1,77,0.00,,,0.00,297.00,VWS V14.01,2013-01-08 14:50:00,
2013-01-08 09:51:00,51.0,44.0,30.38,NNE,28,0.0,0.0,77,0.00,,,0.00,318.00,VWS V14.01,2013-01-08 14:51:00,
2013-01-08 09:52:00,51.0,44.1,30.38,NE,37,0.0,0.0,77,0.00,,,0.00,316.00,VWS V14.01,2013-01-08 14:52:00,
2013-01-08 09:53:00,51.2,44.2,30.38,NE,37,0.0,0.0,77,0.00,,,0.00,334.00,VWS V14.01,2013-01-08 14:53:00,
2013-01-08 09:54:00,51.3,44.7,30.38,NNE,32,1.1,1.1,78,0.00,,,0.00,323.00,VWS V14.01,2013-01-08 14:54:00,
2013-01-08 09:55:00,51.3,44.4,30.38,NE,51,2.2,3.3,77,0.00,,,0.00,276.00,VWS V14.01,2013-01-08 14:55:00,
2013-01-08 09:56:00,51.5,44.2,30.38,NE,51,1.1,2.2,76,0.00,,,0.00,336.00,VWS V14.01,2013-01-08 14:56:00,
2013-01-08 09:57:00,51.5,44.2,30.38,NNE,20,1.1,2.2,76,0.00,,,0.00,276.00,VWS V14.01,2013-01-08 14:57:00,
2013-01-08 09:58:00,51.5,44.2,30.38,NNE,20,0.0,2.2,76,0.00,,,0.00,276.00,VWS V14.01,2013-01-08 14:58:00,
2013-01-08 09:59:00,51.5,44.6,30.38,NNE,23,0.0,1.1,77,0.00,,,0.00,246.00,VWS V14.01,2013-01-08 14:59:00,
2013-01-08 10:00:00,51.8,44.9,30.38,NE,34,2.2,2.2,77,0.00,,,0.00,149.00,VWS V14.01,2013-01-08 15:00:00,
2013-01-08 10:01:00,52.0,45.0,30.38,NNE,20,3.3,3.3,77,0.00,,,0.00,167.00,VWS V14.01,2013-01-08 15:01:00,
2013-01-08 10:02:00,52.0,44.7,30.38,NNE,17,0.0,1.1,76,0.00,,,0.00,169.00,VWS V14.01,2013-01-08 15:02:00,
2013-01-08 10:03:00,52.0,45.1,30.38,NNE,13,2.2,2.2,77,0.00,,,0.00,169.00,VWS V14.01,2013-01-08 15:03:00,
2013-01-08 10:04:00,52.2,44.9,30.38,NNE,13,2.2,3.3,76,0.00,,,0.00,248.00,VWS V14.01,2013-01-08 15:04:00,
2013-01-08 10:05:00,52.2,44.9,30.38,North,358,1.1,3.3,76,0.00,,,0.00,279.00,VWS V14.01,2013-01-08 15:05:00,
2013-01-08 10:06:00,52.2,44.9,30.38,NNW,348,3.3,3.3,76,0.00,,,0.00,239.00,VWS V14.01,2013-01-08 15:06:00,
2013-01-08 10:07:00,52.2,44.9,30.38,NW,322,5.5,5.5,76,0.00,,,0.00,207.00,VWS V14.01,2013-01-08 15:07:00,
2013-01-08 10:08:00,52.2,44.9,30.38,NNE,12,3.3,6.6,76,0.00,,,0.00,243.00,VWS V14.01,2013-01-08 15:08:00,
2013-01-08 10:09:00,52.3,45.0,30.38,NNW,348,4.4,5.5,76,0.00,,,0.00,292.00,VWS V14.01,2013-01-08 15:09:00,
2013-01-08 10:10:00,52.2,44.6,30.38,North,11,3.3,7.7,75,0.00,,,0.00,302.00,VWS V14.01,2013-01-08 15:10:00,
2013-01-08 10:11:00,52.2,44.9,30.38,NE,50,3.3,7.7,76,0.00,,,0.00,223.00,VWS V14.01,2013-01-08 15:11:00,
2013-01-08 10:12:00,52.3,45.0,30.38,North,8,2.2,2.2,76,0.00,,,0.00,148.00,VWS V14.01,2013-01-08 15:12:00,
2013-01-08 10:13:00,52.3,45.0,30.38,North,7,3.3,4.4,76,0.00,,,0.00,135.00,VWS V14.01,2013-01-08 15:13:00,
2013-01-08 10:14:00,52.5,45.1,30.38,North,358,0.0,3.3,76,0.00,,,0.00,139.00,VWS V14.01,2013-01-08 15:14:00,
2013-01-08 10:15:00,52.5,45.2,30.38,NNE,19,1.1,1.1,76,0.00,,,0.00,132.00,VWS V14.01,2013-01-08 15:15:00,
2013-01-08 10:16:00,52.5,45.2,30.38,NNE,22,2.2,2.2,76,0.00,,,0.00,111.00,VWS V14.01,2013-01-08 15:16:00,
2013-01-08 10:17:00,52.8,45.4,30.38,ENE,61,0.0,2.2,76,0.00,,,0.00,102.00,VWS V14.01,2013-01-08 15:17:00,
2013-01-08 10:18:00,52.8,45.4,30.38,NE,37,3.3,3.3,76,0.00,,,0.00,104.00,VWS V14.01,2013-01-08 15:18:00,
2013-01-08 10:19:00,52.8,45.5,30.38,NNE,29,1.1,3.3,76,0.00,,,0.00,100.00,VWS V14.01,2013-01-08 15:19:00,
2013-01-08 10:20:00,52.8,45.2,30.38,NNE,19,2.2,2.2,75,0.00,,,0.00,104.00,VWS V14.01,2013-01-08 15:20:00,
2013-01-08 10:21:00,53.0,45.2,30.38,NNW,348,1.1,3.3,75,0.00,,,0.00,142.00,VWS V14.01,2013-01-08 15:21:00,
2013-01-08 10:22:00,53.0,45.3,30.38,NE,49,1.1,2.2,75,0.00,,,0.00,174.00,VWS V14.01,2013-01-08 15:22:00,
2013-01-08 10:23:00,53.2,45.4,30.38,North,358,2.2,3.3,75,0.00,,,0.00,155.00,VWS V14.01,2013-01-08 15:23:00,
2013-01-08 10:24:00,53.2,45.9,30.38,NNE,17,5.5,5.5,76,0.00,,,0.00,121.00,VWS V14.01,2013-01-08 15:24:00,
2013-01-08 10:25:00,53.2,45.5,30.38,NNE,27,4.4,5.5,75,0.00,,,0.00,111.00,VWS V14.01,2013-01-08 15:25:00,
2013-01-08 10:26:00,53.3,45.6,30.38,North,2,3.3,4.4,75,0.00,,,0.00,125.00,VWS V14.01,2013-01-08 15:26:00,
2013-01-08 10:27:00,53.5,45.8,30.38,North,7,4.4,6.6,75,0.00,,,0.00,128.00,VWS V14.01,2013-01-08 15:27:00,
2013-01-08 10:28:00,53.5,45.8,30.38,North,358,4.4,6.6,75,0.00,,,0.00,146.00,VWS V14.01,2013-01-08 15:28:00,
2013-01-08 10:29:00,53.7,45.9,30.38,NNW,348,1.1,6.6,75,0.00,,,0.00,132.00,VWS V14.01,2013-01-08 15:29:00,
2013-01-08 10:30:00,53.8,46.0,30.38,NE,44,0.0,3.3,75,0.00,,,0.00,127.00,VWS V14.01,2013-01-08 15:30:00,
2013-01-08 10:31:00,53.8,46.5,30.38,NE,44,0.0,1.1,76,0.00,,,0.00,130.00,VWS V14.01,2013-01-08 15:31:00,
2013-01-08 10:32:00,54.2,46.8,30.38,NE,53,2.2,2.2,76,0.00,,,0.00,118.00,VWS V14.01,2013-01-08 15:32:00,
2013-01-08 10:33:00,54.2,46.5,30.38,NE,42,1.1,2.2,75,0.00,,,0.00,118.00,VWS V14.01,2013-01-08 15:33:00,
2013-01-08 10:34:00,54.2,46.2,30.38,NNE,29,1.1,3.3,74,0.00,,,0.00,109.00,VWS V14.01,2013-01-08 15:34:00,
2013-01-08 10:35:00,54.3,46.6,30.38,NE,35,1.1,5.5,75,0.00,,,0.00,116.00,VWS V14.01,2013-01-08 15:35:00,
2013-01-08 10:36:00,54.3,46.2,30.38,NE,35,0.0,1.1,74,0.00,,,0.00,149.00,VWS V14.01,2013-01-08 15:36:00,
2013-01-08 10:37:00,54.5,46.8,30.38,North,7,0.0,2.2,75,0.00,,,0.00,179.00,VWS V14.01,2013-01-08 15:37:00,
2013-01-08 10:38:00,54.7,46.9,30.38,North,358,4.4,4.4,75,0.00,,,0.00,179.00,VWS V14.01,2013-01-08 15:38:00,
2013-01-08 10:39:00,54.8,47.1,30.38,NNE,18,0.0,4.4,75,0.00,,,0.00,155.00,VWS V14.01,2013-01-08 15:39:00,
2013-01-08 10:40:00,55.2,47.0,30.38,WNW,295,0.0,1.1,74,0.00,,,0.00,118.00,VWS V14.01,2013-01-08 15:40:00,
2013-01-08 10:41:00,55.2,47.5,30.38,WNW,295,0.0,0.0,75,0.00,,,0.00,116.00,VWS V14.01,2013-01-08 15:41:00,
2013-01-08 10:42:00,55.5,47.4,30.38,NE,53,1.1,3.3,74,0.00,,,0.00,128.00,VWS V14.01,2013-01-08 15:42:00,
2013-01-08 10:43:00,55.5,47.0,30.38,NE,53,0.0,3.3,73,0.00,,,0.00,142.00,VWS V14.01,2013-01-08 15:43:00,
2013-01-08 10:44:00,55.7,47.5,30.38,ENE,59,0.0,1.1,74,0.00,,,0.00,137.00,VWS V14.01,2013-01-08 15:44:00,
2013-01-08 10:45:00,55.8,47.6,30.38,SSE,152,0.0,1.1,74,0.00,,,0.00,121.00,VWS V14.01,2013-01-08 15:45:00,
2013-01-08 10:46:00,56.0,47.8,30.38,SSE,152,0.0,0.0,74,0.00,,,0.00,116.00,VWS V14.01,2013-01-08 15:46:00,
2013-01-08 10:47:00,56.0,47.9,30.38,SSE,152,0.0,0.0,74,0.00,,,0.00,116.00,VWS V14.01,2013-01-08 15:47:00,
2013-01-08 10:48:00,56.0,47.9,30.38,SSE,152,0.0,0.0,74,0.00,,,0.00,114.00,VWS V14.01,2013-01-08 15:48:00,
2013-01-08 10:49:00,56.2,47.6,30.37,SSE,152,0.0,0.0,73,0.00,,,0.00,118.00,VWS V14.01,2013-01-08 15:49:00,
2013-01-08 10:50:00,56.3,47.8,30.37,SSE,152,0.0,0.0,73,0.00,,,0.00,120.00,VWS V14.01,2013-01-08 15:50:00,
2013-01-08 10:51:00,56.5,47.9,30.37,SSE,152,0.0,1.1,73,0.00,,,0.00,121.00,VWS V14.01,2013-01-08 15:51:00,
2013-01-08 10:52:00,56.5,47.9,30.37,North,4,2.2,4.4,73,0.00,,,0.00,211.00,VWS V14.01,2013-01-08 15:52:00,
2013-01-08 10:53:00,56.5,47.9,30.37,North,6,1.1,4.4,73,0.00,,,0.00,269.00,VWS V14.01,2013-01-08 15:53:00,
2013-01-08 10:54:00,56.5,47.9,30.37,East,89,0.0,1.1,73,0.00,,,0.00,269.00,VWS V14.01,2013-01-08 15:54:00,
2013-01-08 10:55:00,56.5,48.0,30.37,NNE,25,0.0,2.2,73,0.00,,,0.00,373.00,VWS V14.01,2013-01-08 15:55:00,
2013-01-08 10:56:00,56.5,48.0,30.37,NNE,25,0.0,0.0,73,0.00,,,0.00,397.00,VWS V14.01,2013-01-08 15:56:00,
2013-01-08 10:57:00,56.8,48.6,30.37,NNE,25,0.0,0.0,74,0.00,,,0.00,432.00,VWS V14.01,2013-01-08 15:57:00,
2013-01-08 10:58:00,56.8,48.2,30.37,NNE,25,0.0,0.0,73,0.00,,,0.00,475.00,VWS V14.01,2013-01-08 15:58:00,
2013-01-08 10:59:00,56.8,48.7,30.37,NNE,27,0.0,0.0,74,0.00,,,0.00,480.00,VWS V14.01,2013-01-08 15:59:00,
2013-01-08 11:00:00,57.2,49.0,30.37,NNE,27,0.0,0.0,74,0.00,,,0.00,503.00,VWS V14.01,2013-01-08 16:00:00,
2013-01-08 11:01:00,57.2,48.7,30.37,NE,35,2.2,3.3,73,0.00,,,0.00,515.00,VWS V14.01,2013-01-08 16:01:00,
2013-01-08 11:02:00,57.5,48.9,30.37,NE,35,1.1,1.1,73,0.00,,,0.00,515.00,VWS V14.01,2013-01-08 16:02:00,
2013-01-08 11:03:00,57.5,48.5,30.37,North,358,1.1,1.1,72,0.00,,,0.00,520.00,VWS V14.01,2013-01-08 16:03:00,
2013-01-08 11:04:00,57.5,48.1,30.36,NE,38,0.0,2.2,71,0.00,,,0.00,545.00,VWS V14.01,2013-01-08 16:04:00,
2013-01-08 11:05:00,57.5,48.5,30.36,NNE,16,3.3,3.3,72,0.00,,,0.00,534.00,VWS V14.01,2013-01-08 16:05:00,
2013-01-08 11:06:00,57.5,48.6,30.36,East,86,0.0,3.3,72,0.00,,,0.00,538.00,VWS V14.01,2013-01-08 16:06:00,
2013-01-08 11:07:00,57.5,48.2,30.36,NNE,26,2.2,3.3,71,0.00,,,0.00,529.00,VWS V14.01,2013-01-08 16:07:00,
2013-01-08 11:08:00,57.5,48.6,30.36,North,6,2.2,3.3,72,0.00,,,0.00,529.00,VWS V14.01,2013-01-08 16:08:00,
2013-01-08 11:09:00,57.7,48.7,30.36,NE,35,0.0,4.4,72,0.00,,,0.00,513.00,VWS V14.01,2013-01-08 16:09:00,
2013-01-08 11:10:00,57.8,49.2,30.36,South,175,0.0,2.2,73,0.00,,,0.00,487.00,VWS V14.01,2013-01-08 16:10:00,
2013-01-08 11:11:00,58.0,49.0,30.36,NNE,27,3.3,3.3,72,0.00,,,0.00,438.00,VWS V14.01,2013-01-08 16:11:00,
2013-01-08 11:12:00,58.2,48.8,30.36,NNE,24,0.0,0.0,71,0.00,,,0.00,476.00,VWS V14.01,2013-01-08 16:12:00,
2013-01-08 11:13:00,58.2,49.3,30.36,NNE,31,2.2,2.2,72,0.00,,,0.00,476.00,VWS V14.01,2013-01-08 16:13:00,
2013-01-08 11:14:00,58.5,49.1,30.36,NNE,25,3.3,3.3,71,0.00,,,0.00,490.00,VWS V14.01,2013-01-08 16:14:00,
2013-01-08 11:15:00,58.7,49.3,30.36,North,4,3.3,3.3,71,0.00,,,0.00,503.00,VWS V14.01,2013-01-08 16:15:00,
2013-01-08 11:16:00,58.7,49.3,30.36,North,2,2.2,3.3,71,0.00,,,0.00,469.00,VWS V14.01,2013-01-08 16:16:00,
2013-01-08 11:17:00,59.0,49.6,30.36,NW,324,2.2,2.2,71,0.00,,,0.00,459.00,VWS V14.01,2013-01-08 16:17:00,
2013-01-08 11:18:00,59.0,49.6,30.36,NNE,25,1.1,3.3,71,0.00,,,0.00,459.00,VWS V14.01,2013-01-08 16:18:00,
2013-01-08 11:19:00,59.0,49.2,30.36,North,353,3.3,4.4,70,0.00,,,0.00,269.00,VWS V14.01,2013-01-08 16:19:00,
2013-01-08 11:20:00,58.8,48.7,30.36,NNE,27,0.0,3.3,69,0.00,,,0.00,299.00,VWS V14.01,2013-01-08 16:20:00,
2013-01-08 11:21:00,58.8,48.6,30.36,NNE,27,0.0,0.0,69,0.00,,,0.00,302.00,VWS V14.01,2013-01-08 16:21:00,
2013-01-08 11:22:00,58.7,48.9,30.36,NNE,31,1.1,1.1,70,0.00,,,0.00,285.00,VWS V14.01,2013-01-08 16:22:00,
2013-01-08 11:23:00,58.7,48.9,30.36,NNE,12,2.2,2.2,70,0.00,,,0.00,278.00,VWS V14.01,2013-01-08 16:23:00,
2013-01-08 11:24:00,58.7,49.3,30.36,NNE,29,2.2,3.3,71,0.00,,,0.00,271.00,VWS V14.01,2013-01-08 16:24:00,
2013-01-08 11:25:00,58.8,49.4,30.36,North,11,0.0,3.3,71,0.00,,,0.00,271.00,VWS V14.01,2013-01-08 16:25:00,
2013-01-08 11:26:00,58.8,49.5,30.36,North,358,0.0,1.1,71,0.00,,,0.00,295.00,VWS V14.01,2013-01-08 16:26:00,
2013-01-08 11:27:00,58.8,49.4,30.36,NNW,348,0.0,0.0,71,0.00,,,0.00,394.00,VWS V14.01,2013-01-08 16:27:00,
2013-01-08 11:28:00,58.8,49.5,30.36,North,353,0.0,1.1,71,0.00,,,0.00,394.00,VWS V14.01,2013-01-08 16:28:00,
2013-01-08 11:29:00,59.2,50.1,30.36,North,353,0.0,0.0,72,0.00,,,0.00,290.00,VWS V14.01,2013-01-08 16:29:00,
2013-01-08 11:30:00,59.5,50.0,30.35,North,2,0.0,2.2,71,0.00,,,0.00,255.00,VWS V14.01,2013-01-08 16:30:00,
2013-01-08 11:31:00,59.5,50.2,30.35,North,2,1.1,2.2,71,0.00,,,0.00,250.00,VWS V14.01,2013-01-08 16:31:00,
2013-01-08 11:32:00,59.5,49.8,30.35,NNE,31,3.3,3.3,70,0.00,,,0.00,352.00,VWS V14.01,2013-01-08 16:32:00,
2013-01-08 11:33:00,59.5,49.4,30.35,NNE,26,3.3,3.3,69,0.00,,,0.00,352.00,VWS V14.01,2013-01-08 16:33:00,
2013-01-08 11:34:00,59.5,49.7,30.35,NNE,15,2.2,4.4,70,0.00,,,0.00,202.00,VWS V14.01,2013-01-08 16:34:00,
2013-01-08 11:35:00,59.3,49.2,30.35,NNW,343,1.1,2.2,69,0.00,,,0.00,244.00,VWS V14.01,2013-01-08 16:35:00,
2013-01-08 11:36:00,59.3,49.6,30.35,NNW,343,0.0,1.1,70,0.00,,,0.00,244.00,VWS V14.01,2013-01-08 16:36:00,
2013-01-08 11:37:00,59.5,49.7,30.35,NNE,14,1.1,1.1,70,0.00,,,0.00,439.00,VWS V14.01,2013-01-08 16:37:00,
2013-01-08 11:38:00,59.5,49.8,30.35,NNE,25,2.2,2.2,70,0.00,,,0.00,548.00,VWS V14.01,2013-01-08 16:38:00,
2013-01-08 11:39:00,59.7,49.9,30.35,NNE,12,4.4,4.4,70,0.00,,,0.00,513.00,VWS V14.01,2013-01-08 16:39:00,
2013-01-08 11:40:00,59.8,49.7,30.35,North,353,1.1,4.4,69,0.00,,,0.00,582.00,VWS V14.01,2013-01-08 16:40:00,
2013-01-08 11:41:00,60.0,49.8,30.35,NE,48,1.1,2.2,69,0.00,,,0.00,534.00,VWS V14.01,2013-01-08 16:41:00,
2013-01-08 11:42:00,60.0,50.2,30.35,North,358,0.0,1.1,70,0.00,,,0.00,534.00,VWS V14.01,2013-01-08 16:42:00,
2013-01-08 11:43:00,60.2,50.4,30.35,NNW,348,3.3,3.3,70,0.00,,,0.00,534.00,VWS V14.01,2013-01-08 16:43:00,
2013-01-08 11:44:00,60.3,50.5,30.35,North,358,4.4,5.5,70,0.00,,,0.00,534.00,VWS V14.01,2013-01-08 16:44:00,
2013-01-08 11:45:00,60.3,50.2,30.35,North,358,1.1,4.4,69,0.00,,,0.00,369.00,VWS V14.01,2013-01-08 16:45:00,
2013-01-08 11:46:00,60.2,49.7,30.35,NNE,15,3.3,4.4,68,0.00,,,0.00,346.00,VWS V14.01,2013-01-08 16:46:00,
2013-01-08 11:47:00,60.2,50.0,30.35,NNW,341,2.2,3.3,69,0.00,,,0.00,346.00,VWS V14.01,2013-01-08 16:47:00,
2013-01-08 11:48:00,60.5,50.6,30.35,NNE,28,0.0,1.1,70,0.00,,,0.00,346.00,VWS V14.01,2013-01-08 16:48:00,
2013-01-08 11:49:00,60.5,50.3,30.35,NNE,28,0.0,1.1,69,0.00,,,0.00,438.00,VWS V14.01,2013-01-08 16:49:00,
2013-01-08 11:50:00,60.5,50.3,30.35,SW,218,1.1,1.1,69,0.00,,,0.00,360.00,VWS V14.01,2013-01-08 16:50:00,
2013-01-08 11:51:00,60.5,50.0,30.35,NW,306,2.2,3.3,68,0.00,,,0.00,360.00,VWS V14.01,2013-01-08 16:51:00,
2013-01-08 11:52:00,60.5,49.8,30.35,NNE,29,3.3,3.3,68,0.00,,,0.00,234.00,VWS V14.01,2013-01-08 16:52:00,
2013-01-08 11:53:00,60.3,49.8,30.35,NNE,12,2.2,3.3,68,0.00,,,0.00,214.00,VWS V14.01,2013-01-08 16:53:00,
2013-01-08 11:54:00,60.3,49.8,30.35,North,358,0.0,3.3,68,0.00,,,0.00,193.00,VWS V14.01,2013-01-08 16:54:00,
2013-01-08 11:55:00,60.2,50.0,30.35,NNE,23,3.3,3.3,69,0.00,,,0.00,199.00,VWS V14.01,2013-01-08 16:55:00,
2013-01-08 11:56:00,60.2,50.0,30.35,North,5,5.5,5.5,69,0.00,,,0.00,204.00,VWS V14.01,2013-01-08 16:56:00,
2013-01-08 11:57:00,60.2,50.0,30.34,NNE,15,3.3,5.5,69,0.00,,,0.00,204.00,VWS V14.01,2013-01-08 16:57:00,
2013-01-08 11:58:00,60.2,50.0,30.34,NE,36,2.2,2.2,69,0.00,,,0.00,267.00,VWS V14.01,2013-01-08 16:58:00,
2013-01-08 11:59:00,60.2,50.0,30.34,NNE,19,2.2,2.2,69,0.00,,,0.00,207.00,VWS V14.01,2013-01-08 16:59:00,
2013-01-08 12:00:00,60.2,50.3,30.34,NNE,18,4.4,4.4,70,0.00,,,0.00,199.00,VWS V14.01,2013-01-08 17:00:00,
2013-01-08 12:01:00,60.2,50.3,30.34,North,6,3.3,4.4,70,0.00,,,0.00,204.00,VWS V14.01,2013-01-08 17:01:00,
2013-01-08 12:02:00,60.2,50.3,30.34,North,358,2.2,3.3,70,0.00,,,0.00,214.00,VWS V14.01,2013-01-08 17:02:00,
2013-01-08 12:03:00,60.2,50.4,30.34,NNW,329,1.1,2.2,70,0.00,,,0.00,214.00,VWS V14.01,2013-01-08 17:03:00,
2013-01-08 12:04:00,60.3,50.5,30.34,North,10,2.2,3.3,70,0.00,,,0.00,360.00,VWS V14.01,2013-01-08 17:04:00,
2013-01-08 12:05:00,60.5,50.3,30.34,North,358,0.0,2.2,69,0.00,,,0.00,360.00,VWS V14.01,2013-01-08 17:05:00,
2013-01-08 12:06:00,60.7,50.8,30.34,North,358,0.0,0.0,70,0.00,,,0.00,360.00,VWS V14.01,2013-01-08 17:06:00,
2013-01-08 12:07:00,60.8,50.9,30.34,North,358,0.0,0.0,70,0.00,,,0.00,241.00,VWS V14.01,2013-01-08 17:07:00,
2013-01-08 12:08:00,61.0,51.1,30.34,NNE,28,1.1,2.2,70,0.00,,,0.00,239.00,VWS V14.01,2013-01-08 17:08:00,
2013-01-08 12:09:00,61.0,51.1,30.34,NNE,28,0.0,2.2,70,0.00,,,0.00,236.00,VWS V14.01,2013-01-08 17:09:00,
2013-01-08 12:10:00,61.0,51.2,30.34,NNE,28,0.0,1.1,70,0.00,,,0.00,229.00,VWS V14.01,2013-01-08 17:10:00,
2013-01-08 12:11:00,61.2,51.3,30.34,NNE,20,1.1,1.1,70,0.00,,,0.00,220.00,VWS V14.01,2013-01-08 17:11:00,
2013-01-08 12:12:00,61.2,50.9,30.34,West,272,0.0,2.2,69,0.00,,,0.00,204.00,VWS V14.01,2013-01-08 17:12:00,
2013-01-08 12:13:00,61.2,50.9,30.34,West,272,0.0,0.0,69,0.00,,,0.00,185.00,VWS V14.01,2013-01-08 17:13:00,
2013-01-08 12:14:00,61.2,51.3,30.34,West,272,0.0,0.0,70,0.00,,,0.00,206.00,VWS V14.01,2013-01-08 17:14:00,
2013-01-08 12:15:00,61.2,51.4,30.34,West,272,0.0,1.1,70,0.00,,,0.00,223.00,VWS V14.01,2013-01-08 17:15:00,
2013-01-08 12:16:00,61.3,51.5,30.34,NNE,33,2.2,2.2,70,0.00,,,0.00,223.00,VWS V14.01,2013-01-08 17:16:00,
2013-01-08 12:17:00,61.3,51.1,30.34,NNE,27,0.0,4.4,69,0.00,,,0.00,223.00,VWS V14.01,2013-01-08 17:17:00,
2013-01-08 12:18:00,61.3,51.1,30.34,ENE,77,1.1,2.2,69,0.00,,,0.00,330.00,VWS V14.01,2013-01-08 17:18:00,
2013-01-08 12:19:00,61.3,51.5,30.34,ENE,62,1.1,2.2,70,0.00,,,0.00,297.00,VWS V14.01,2013-01-08 17:19:00,
2013-01-08 12:20:00,61.5,51.6,30.34,ENE,62,0.0,1.1,70,0.00,,,0.00,297.00,VWS V14.01,2013-01-08 17:20:00,
2013-01-08 12:21:00,61.7,51.8,30.34,NNE,31,1.1,3.3,70,0.00,,,0.00,297.00,VWS V14.01,2013-01-08 17:21:00,
2013-01-08 12:22:00,61.7,51.4,30.34,ENE,59,0.0,2.2,69,0.00,,,0.00,304.00,VWS V14.01,2013-01-08 17:22:00,
2013-01-08 12:23:00,61.8,51.5,30.34,ENE,60,1.1,1.1,69,0.00,,,0.00,281.00,VWS V14.01,2013-01-08 17:23:00,
2013-01-08 12:24:00,61.8,51.6,30.34,ENE,68,0.0,2.2,69,0.00,,,0.00,281.00,VWS V14.01,2013-01-08 17:24:00,
2013-01-08 12:25:00,61.8,51.6,30.34,ENE,67,0.0,0.0,69,0.00,,,0.00,267.00,VWS V14.01,2013-01-08 17:25:00,
2013-01-08 12:26:00,62.0,52.2,30.34,NE,52,0.0,0.0,70,0.00,,,0.00,258.00,VWS V14.01,2013-01-08 17:26:00,
2013-01-08 12:27:00,62.0,51.8,30.34,NE,52,0.0,0.0,69,0.00,,,0.00,271.00,VWS V14.01,2013-01-08 17:27:00,
2013-01-08 12:28:00,62.2,52.4,30.34,NNE,27,2.2,2.2,70,0.00,,,0.00,262.00,VWS V14.01,2013-01-08 17:28:00,
2013-01-08 12:29:00,62.3,51.7,30.34,NNE,23,0.0,3.3,68,0.00,,,0.00,267.00,VWS V14.01,2013-01-08 17:29:00,
2013-01-08 12:30:00,62.3,52.1,30.34,NE,39,0.0,1.1,69,0.00,,,0.00,260.00,VWS V14.01,2013-01-08 17:30:00,
2013-01-08 12:31:00,62.3,52.1,30.34,NE,39,0.0,0.0,69,0.00,,,0.00,239.00,VWS V14.01,2013-01-08 17:31:00,
2013-01-08 12:32:00,62.2,51.6,30.34,NNE,17,6.6,6.6,68,0.00,,,0.00,255.00,VWS V14.01,2013-01-08 17:32:00,
2013-01-08 12:33:00,62.2,51.5,30.34,NNE,13,3.3,5.5,68,0.00,,,0.00,308.00,VWS V14.01,2013-01-08 17:33:00,
2013-01-08 12:34:00,62.0,51.4,30.34,NNE,17,0.0,5.5,68,0.00,,,0.00,325.00,VWS V14.01,2013-01-08 17:34:00,
2013-01-08 12:35:00,62.0,52.2,30.34,NW,307,3.3,3.3,70,0.00,,,0.00,325.00,VWS V14.01,2013-01-08 17:35:00,
2013-01-08 12:36:00,62.2,51.5,30.34,NW,310,1.1,3.3,68,0.00,,,0.00,325.00,VWS V14.01,2013-01-08 17:36:00,
2013-01-08 12:37:00,62.2,51.5,30.34,NW,314,1.1,2.2,68,0.00,,,0.00,295.00,VWS V14.01,2013-01-08 17:37:00,
2013-01-08 12:38:00,62.2,51.2,30.34,North,2,1.1,2.2,67,0.00,,,0.00,278.00,VWS V14.01,2013-01-08 17:38:00,
2013-01-08 12:39:00,62.2,51.2,30.34,North,2,0.0,2.2,67,0.00,,,0.00,278.00,VWS V14.01,2013-01-08 17:39:00,
2013-01-08 12:40:00,62.2,52.0,30.34,North,358,3.3,5.5,69,0.00,,,0.00,278.00,VWS V14.01,2013-01-08 17:40:00,
2013-01-08 12:41:00,62.3,51.7,30.34,NNE,14,4.4,5.5,68,0.00,,,0.00,278.00,VWS V14.01,2013-01-08 17:41:00,
2013-01-08 12:42:00,62.3,52.1,30.34,NNE,17,2.2,4.4,69,0.00,,,0.00,383.00,VWS V14.01,2013-01-08 17:42:00,
2013-01-08 12:43:00,62.5,52.2,30.34,North,9,0.0,2.2,69,0.00,,,0.00,383.00,VWS V14.01,2013-01-08 17:43:00,
2013-01-08 12:44:00,62.5,51.9,30.34,NNE,16,1.1,2.2,68,0.00,,,0.00,401.00,VWS V14.01,2013-01-08 17:44:00,
2013-01-08 12:45:00,62.7,52.3,30.34,NNE,24,1.1,3.3,69,0.00,,,0.00,387.00,VWS V14.01,2013-01-08 17:45:00,
2013-01-08 12:46:00,62.7,52.0,30.34,WNW,283,2.2,2.2,68,0.00,,,0.00,387.00,VWS V14.01,2013-01-08 17:46:00,
2013-01-08 12:48:00,62.8,52.5,30.33,WSW,245,0.0,0.0,69,0.00,,,0.00,599.00,VWS V14.01,2013-01-08 17:48:00,
2013-01-08 12:49:00,63.2,52.8,30.33,WSW,245,0.0,1.1,69,0.00,,,0.00,635.00,VWS V14.01,2013-01-08 17:49:00,
2013-01-08 12:50:00,63.3,52.6,30.33,East,91,0.0,1.1,68,0.00,,,0.00,578.00,VWS V14.01,2013-01-08 17:50:00,
2013-01-08 12:51:00,63.7,52.9,30.33,NE,51,0.0,1.1,68,0.00,,,0.00,578.00,VWS V14.01,2013-01-08 17:51:00,
2013-01-08 12:52:00,63.8,52.7,30.33,NNE,19,0.0,2.2,67,0.00,,,0.00,410.00,VWS V14.01,2013-01-08 17:52:00,
2013-01-08 12:53:00,63.8,52.2,30.33,NE,48,0.0,0.0,66,0.00,,,0.00,348.00,VWS V14.01,2013-01-08 17:53:00,
2013-01-08 12:54:00,63.7,52.1,30.33,NE,50,0.0,0.0,66,0.00,,,0.00,348.00,VWS V14.01,2013-01-08 17:54:00,
2013-01-08 12:55:00,63.7,52.5,30.33,NE,50,0.0,0.0,67,0.00,,,0.00,302.00,VWS V14.01,2013-01-08 17:55:00,
2013-01-08 12:56:00,63.8,52.7,30.33,NE,50,0.0,1.1,67,0.00,,,0.00,302.00,VWS V14.01,2013-01-08 17:56:00,
2013-01-08 12:57:00,64.0,53.2,30.33,ENE,63,2.2,2.2,68,0.00,,,0.00,332.00,VWS V14.01,2013-01-08 17:57:00,
2013-01-08 12:58:00,63.8,52.3,30.33,NE,35,3.3,4.4,66,0.00,,,0.00,332.00,VWS V14.01,2013-01-08 17:58:00,
2013-01-08 12:59:00,63.8,52.6,30.33,NE,44,1.1,4.4,67,0.00,,,0.00,332.00,VWS V14.01,2013-01-08 17:59:00,
2013-01-08 13:00:00,63.7,52.5,30.33,NNE,25,0.0,2.2,67,0.00,,,0.00,388.00,VWS V14.01,2013-01-08 18:00:00,
2013-01-08 13:01:00,63.7,52.9,30.33,ESE,123,0.0,0.0,68,0.00,,,0.00,482.00,VWS V14.01,2013-01-08 18:01:00,
2013-01-08 13:02:00,63.8,53.0,30.33,ESE,123,0.0,2.2,68,0.00,,,0.00,496.00,VWS V14.01,2013-01-08 18:02:00,
2013-01-08 13:03:00,63.8,52.6,30.33,ESE,123,0.0,0.0,67,0.00,,,0.00,396.00,VWS V14.01,2013-01-08 18:03:00,
2013-01-08 13:04:00,63.8,52.3,30.33,ESE,123,0.0,1.1,66,0.00,,,0.00,429.00,VWS V14.01,2013-01-08 18:04:00,
2013-01-08 13:05:00,63.8,52.7,30.33,ESE,113,1.1,1.1,67,0.00,,,0.00,429.00,VWS V14.01,2013-01-08 18:05:00,
2013-01-08 13:06:00,64.1,52.9,30.33,NNE,13,2.2,4.4,67,0.00,,,0.00,429.00,VWS V14.01,2013-01-08 18:06:00,
2013-01-08 13:07:00,64.2,52.6,30.33,NNE,16,1.1,3.3,66,0.00,,,0.00,664.00,VWS V14.01,2013-01-08 18:07:00,
2013-01-08 13:08:00,64.4,52.4,30.33,NE,36,4.4,4.4,65,0.00,,,0.00,635.00,VWS V14.01,2013-01-08 18:08:00,
2013-01-08 13:09:00,64.6,52.5,30.33,NNW,341,0.0,4.4,65,0.00,,,0.00,626.00,VWS V14.01,2013-01-08 18:09:00,
2013-01-08 13:10:00,64.4,52.4,30.32,NE,55,0.0,1.1,65,0.00,,,0.00,563.00,VWS V14.01,2013-01-08 18:10:00,
2013-01-08 13:11:00,64.4,52.4,30.32,NNE,19,1.1,2.2,65,0.00,,,0.00,580.00,VWS V14.01,2013-01-08 18:11:00,
2013-01-08 13:12:00,64.6,53.0,30.32,NW,316,2.2,3.3,66,0.00,,,0.00,492.00,VWS V14.01,2013-01-08 18:12:00,
2013-01-08 13:13:00,64.8,53.1,30.32,NW,318,2.2,2.2,66,0.00,,,0.00,492.00,VWS V14.01,2013-01-08 18:13:00,
2013-01-08 13:14:00,64.7,52.2,30.32,NNW,348,3.3,5.5,64,0.00,,,0.00,492.00,VWS V14.01,2013-01-08 18:14:00,
2013-01-08 13:15:00,64.7,52.6,30.32,NW,322,2.2,4.4,65,0.00,,,0.00,399.00,VWS V14.01,2013-01-08 18:15:00,
2013-01-08 13:16:00,64.7,52.6,30.32,NW,323,2.2,3.3,65,0.00,,,0.00,403.00,VWS V14.01,2013-01-08 18:16:00,
2013-01-08 13:17:00,64.7,53.0,30.32,NW,310,3.3,3.3,66,0.00,,,0.00,394.00,VWS V14.01,2013-01-08 18:17:00,
2013-01-08 13:18:00,64.8,53.1,30.32,NW,312,5.5,5.5,66,0.00,,,0.00,309.00,VWS V14.01,2013-01-08 18:18:00,
2013-01-08 13:19:00,64.7,53.0,30.32,North,2,0.0,5.5,66,0.00,,,0.00,309.00,VWS V14.01,2013-01-08 18:19:00,
2013-01-08 13:20:00,64.9,54.2,30.32,NNE,29,0.0,3.3,68,0.00,,,0.00,563.00,VWS V14.01,2013-01-08 18:20:00,
2013-01-08 13:21:00,65.2,53.9,30.32,NE,44,0.0,2.2,67,0.00,,,0.00,571.00,VWS V14.01,2013-01-08 18:21:00,
2013-01-08 13:22:00,65.4,53.4,30.32,SSE,154,1.1,1.1,65,0.00,,,0.00,578.00,VWS V14.01,2013-01-08 18:22:00,
2013-01-08 13:23:00,65.6,53.5,30.32,SSE,152,0.0,0.0,65,0.00,,,0.00,536.00,VWS V14.01,2013-01-08 18:23:00,
2013-01-08 13:24:00,65.8,54.1,30.32,East,99,1.1,1.1,66,0.00,,,0.00,548.00,VWS V14.01,2013-01-08 18:24:00,
2013-01-08 13:25:00,65.8,53.8,30.32,ENE,69,0.0,2.2,65,0.00,,,0.00,512.00,VWS V14.01,2013-01-08 18:25:00,
2013-01-08 13:26:00,65.8,53.8,30.32,ENE,64,0.0,2.2,65,0.00,,,0.00,545.00,VWS V14.01,2013-01-08 18:26:00,
2013-01-08 13:27:00,65.8,53.3,30.32,NE,48,0.0,1.1,64,0.00,,,0.00,578.00,VWS V14.01,2013-01-08 18:27:00,
2013-01-08 13:28:00,65.7,53.2,30.32,NNE,24,3.3,3.3,64,0.00,,,0.00,578.00,VWS V14.01,2013-01-08 18:28:00,
2013-01-08 13:29:00,65.4,53.0,30.32,NE,50,4.4,6.6,64,0.00,,,0.00,255.00,VWS V14.01,2013-01-08 18:29:00,
2013-01-08 13:30:00,65.2,52.8,30.32,North,8,1.1,4.4,64,0.00,,,0.00,345.00,VWS V14.01,2013-01-08 18:30:00,
2013-01-08 13:31:00,65.1,53.0,30.32,NNE,17,2.2,2.2,65,0.00,,,0.00,345.00,VWS V14.01,2013-01-08 18:31:00,
2013-01-08 13:32:00,65.1,53.0,30.32,NNE,30,0.0,3.3,65,0.00,,,0.00,345.00,VWS V14.01,2013-01-08 18:32:00,
2013-01-08 13:33:00,65.1,53.0,30.32,NNE,19,2.2,4.4,65,0.00,,,0.00,345.00,VWS V14.01,2013-01-08 18:33:00,
2013-01-08 13:34:00,65.2,53.1,30.32,NNE,25,3.3,5.5,65,0.00,,,0.00,262.00,VWS V14.01,2013-01-08 18:34:00,
2013-01-08 13:35:00,65.1,53.0,30.32,NNE,30,4.4,4.4,65,0.00,,,0.00,431.00,VWS V14.01,2013-01-08 18:35:00,
2013-01-08 13:36:00,64.9,52.9,30.32,NNW,329,3.3,5.5,65,0.00,,,0.00,431.00,VWS V14.01,2013-01-08 18:36:00,
2013-01-08 13:37:00,65.1,53.0,30.32,NNW,337,2.2,4.4,65,0.00,,,0.00,482.00,VWS V14.01,2013-01-08 18:37:00,
2013-01-08 13:38:00,65.1,53.0,30.31,NW,323,3.3,3.3,65,0.00,,,0.00,462.00,VWS V14.01,2013-01-08 18:38:00,
2013-01-08 13:39:00,65.1,53.0,30.31,NE,38,0.0,4.4,65,0.00,,,0.00,462.00,VWS V14.01,2013-01-08 18:39:00,
2013-01-08 13:40:00,65.2,53.5,30.31,NE,38,0.0,0.0,66,0.00,,,0.00,599.00,VWS V14.01,2013-01-08 18:40:00,
2013-01-08 13:41:00,65.4,53.4,30.31,East,81,0.0,2.2,65,0.00,,,0.00,599.00,VWS V14.01,2013-01-08 18:41:00,
2013-01-08 13:42:00,65.4,53.4,30.31,NW,315,2.2,2.2,65,0.00,,,0.00,459.00,VWS V14.01,2013-01-08 18:42:00,
2013-01-08 13:43:00,65.6,53.9,30.31,WNW,292,1.1,1.1,66,0.00,,,0.00,415.00,VWS V14.01,2013-01-08 18:43:00,
2013-01-08 13:44:00,65.8,53.7,30.31,NNE,12,1.1,2.2,65,0.00,,,0.00,415.00,VWS V14.01,2013-01-08 18:44:00,
2013-01-08 13:45:00,65.9,54.3,30.31,North,10,0.0,1.1,66,0.00,,,0.00,541.00,VWS V14.01,2013-01-08 18:45:00,
2013-01-08 13:46:00,66.2,54.0,30.31,NNE,25,0.0,1.1,65,0.00,,,0.00,557.00,VWS V14.01,2013-01-08 18:46:00,
2013-01-08 13:47:00,66.3,54.2,30.31,East,100,0.0,4.4,65,0.00,,,0.00,566.00,VWS V14.01,2013-01-08 18:47:00,
2013-01-08 13:48:00,66.4,53.9,30.31,NNW,341,2.2,3.3,64,0.00,,,0.00,557.00,VWS V14.01,2013-01-08 18:48:00,
2013-01-08 13:49:00,66.6,54.0,30.31,North,358,3.3,5.5,64,0.00,,,0.00,536.00,VWS V14.01,2013-01-08 18:49:00,
2013-01-08 13:50:00,66.4,53.5,30.31,NW,316,1.1,3.3,63,0.00,,,0.00,531.00,VWS V14.01,2013-01-08 18:50:00,
2013-01-08 13:51:00,66.6,54.4,30.32,NNE,28,3.3,3.3,65,0.00,,,0.00,522.00,VWS V14.01,2013-01-08 18:51:00,
2013-01-08 13:52:00,66.7,53.7,30.31,ENE,73,2.2,6.6,63,0.00,,,0.00,538.00,VWS V14.01,2013-01-08 18:52:00,
2013-01-08 13:53:00,66.6,53.6,30.31,East,79,0.0,0.0,63,0.00,,,0.00,533.00,VWS V14.01,2013-01-08 18:53:00,
2013-01-08 13:54:00,66.7,54.1,30.31,ENE,77,0.0,1.1,64,0.00,,,0.00,529.00,VWS V14.01,2013-01-08 18:54:00,
2013-01-08 13:56:00,66.8,54.3,30.31,North,358,2.2,4.4,64,0.00,,,0.00,529.00,VWS V14.01,2013-01-08 18:56:00,
2013-01-08 13:57:00,67.2,54.6,30.31,NNE,29,2.2,4.4,64,0.00,,,0.00,527.00,VWS V14.01,2013-01-08 18:57:00,
2013-01-08 13:58:00,67.2,54.2,30.31,NNE,12,3.3,3.3,63,0.00,,,0.00,526.00,VWS V14.01,2013-01-08 18:58:00,
2013-01-08 14:00:00,67.3,54.8,30.31,ENE,60,1.1,3.3,64,0.00,,,0.00,524.00,VWS V14.01,2013-01-08 19:00:00,
2013-01-08 14:01:00,67.3,54.3,30.31,NE,52,1.1,2.2,63,0.00,,,0.00,522.00,VWS V14.01,2013-01-08 19:01:00,
2013-01-08 14:02:00,67.3,54.8,30.31,NW,322,4.4,4.4,64,0.00,,,0.00,522.00,VWS V14.01,2013-01-08 19:02:00,
2013-01-08 14:03:00,67.2,54.2,30.31,North,2,1.1,1.1,63,0.00,,,0.00,490.00,VWS V14.01,2013-01-08 19:03:00,
2013-01-08 14:04:00,67.2,54.2,30.31,NNE,18,2.2,2.2,63,0.00,,,0.00,434.00,VWS V14.01,2013-01-08 19:04:00,
2013-01-08 14:05:00,67.2,54.2,30.31,NNE,23,0.0,3.3,63,0.00,,,0.00,487.00,VWS V14.01,2013-01-08 19:05:00,
2013-01-08 14:06:00,67.2,54.2,30.31,NNE,23,0.0,1.1,63,0.00,,,0.00,512.00,VWS V14.01,2013-01-08 19:06:00,
2013-01-08 14:07:00,67.2,54.7,30.31,NE,49,3.3,3.3,64,0.00,,,0.00,506.00,VWS V14.01,2013-01-08 19:07:00,
2013-01-08 14:08:00,67.4,54.9,30.31,NNE,24,2.2,2.2,64,0.00,,,0.00,508.00,VWS V14.01,2013-01-08 19:08:00,
2013-01-08 14:09:00,67.4,54.4,30.31,East,101,0.0,3.3,63,0.00,,,0.00,504.00,VWS V14.01,2013-01-08 19:09:00,
2013-01-08 14:11:00,67.8,55.2,30.31,NNW,342,0.0,2.2,64,0.00,,,0.00,499.00,VWS V14.01,2013-01-08 19:11:00,
2013-01-08 14:12:00,68.2,56.4,30.31,NNE,23,1.1,2.2,66,0.00,,,0.00,497.00,VWS V14.01,2013-01-08 19:12:00,
2013-01-08 14:13:00,68.2,55.2,30.31,NNE,23,0.0,0.0,63,0.00,,,0.00,496.00,VWS V14.01,2013-01-08 19:13:00,
2013-01-08 14:14:00,68.3,55.3,30.31,NNE,29,3.3,3.3,63,0.00,,,0.00,494.00,VWS V14.01,2013-01-08 19:14:00,
2013-01-08 14:15:00,68.3,55.3,30.31,NE,37,0.0,3.3,63,0.00,,,0.00,490.00,VWS V14.01,2013-01-08 19:15:00,
2013-01-08 14:16:00,68.4,55.8,30.31,NE,37,0.0,0.0,64,0.00,,,0.00,487.00,VWS V14.01,2013-01-08 19:16:00,
2013-01-08 14:17:00,68.6,55.5,30.31,NE,37,0.0,0.0,63,0.00,,,0.00,485.00,VWS V14.01,2013-01-08 19:17:00,
2013-01-08 14:18:00,68.6,55.5,30.31,NNE,29,1.1,2.2,63,0.00,,,0.00,485.00,VWS V14.01,2013-01-08 19:18:00,
2013-01-08 14:19:00,68.8,56.1,30.31,NNE,32,0.0,2.2,64,0.00,,,0.00,482.00,VWS V14.01,2013-01-08 19:19:00,
2013-01-08 14:20:00,68.8,55.3,30.31,NNE,29,3.3,3.3,62,0.00,,,0.00,476.00,VWS V14.01,2013-01-08 19:20:00,
2013-01-08 14:21:00,68.6,55.0,30.31,NNW,327,2.2,3.3,62,0.00,,,0.00,476.00,VWS V14.01,2013-01-08 19:21:00,
2013-01-08 14:22:00,68.3,54.8,30.31,NNE,23,2.2,2.2,62,0.00,,,0.00,476.00,VWS V14.01,2013-01-08 19:22:00,
2013-01-08 14:23:00,68.2,55.1,30.31,North,5,1.1,2.2,63,0.00,,,0.00,464.00,VWS V14.01,2013-01-08 19:23:00,
2013-01-08 14:24:00,68.1,54.6,30.31,North,6,0.0,2.2,62,0.00,,,0.00,469.00,VWS V14.01,2013-01-08 19:24:00,
2013-01-08 14:25:00,68.2,55.5,30.31,North,6,0.0,0.0,64,0.00,,,0.00,473.00,VWS V14.01,2013-01-08 19:25:00,
2013-01-08 14:26:00,68.2,55.5,30.31,North,6,0.0,0.0,64,0.00,,,0.00,473.00,VWS V14.01,2013-01-08 19:26:00,
2013-01-08 14:27:00,68.2,55.5,30.31,North,8,0.0,1.1,64,0.00,,,0.00,473.00,VWS V14.01,2013-01-08 19:27:00,
2013-01-08 14:28:00,68.2,55.5,30.31,SE,146,0.0,0.0,64,0.00,,,0.00,469.00,VWS V14.01,2013-01-08 19:28:00,
2013-01-08 14:29:00,68.2,55.2,30.31,NE,41,0.0,1.1,63,0.00,,,0.00,466.00,VWS V14.01,2013-01-08 19:29:00,
2013-01-08 14:30:00,68.3,55.3,30.31,NE,40,0.0,1.1,63,0.00,,,0.00,466.00,VWS V14.01,2013-01-08 19:30:00,
2013-01-08 14:31:00,68.2,54.8,30.31,SE,139,0.0,1.1,62,0.00,,,0.00,462.00,VWS V14.01,2013-01-08 19:31:00,
2013-01-08 14:32:00,68.3,55.7,30.31,SE,139,0.0,2.2,64,0.00,,,0.00,462.00,VWS V14.01,2013-01-08 19:32:00,
2013-01-08 14:33:00,68.8,56.5,30.31,SE,139,0.0,0.0,65,0.00,,,0.00,461.00,VWS V14.01,2013-01-08 19:33:00,
2013-01-08 14:34:00,68.9,55.8,30.31,SE,139,0.0,0.0,63,0.00,,,0.00,459.00,VWS V14.01,2013-01-08 19:34:00,
2013-01-08 14:35:00,69.2,56.0,30.31,ENE,58,1.1,2.2,63,0.00,,,0.00,464.00,VWS V14.01,2013-01-08 19:35:00,
2013-01-08 14:36:00,69.2,55.6,30.31,NE,50,0.0,2.2,62,0.00,,,0.00,461.00,VWS V14.01,2013-01-08 19:36:00,
2013-01-08 14:37:00,68.9,55.0,30.31,NE,43,1.1,1.1,61,0.00,,,0.00,432.00,VWS V14.01,2013-01-08 19:37:00,
2013-01-08 14:38:00,68.9,55.8,30.31,NE,35,0.0,0.0,63,0.00,,,0.00,394.00,VWS V14.01,2013-01-08 19:38:00,
2013-01-08 14:39:00,68.9,55.8,30.31,NE,39,0.0,0.0,63,0.00,,,0.00,362.00,VWS V14.01,2013-01-08 19:39:00,
2013-01-08 14:40:00,69.1,55.9,30.31,SE,129,0.0,1.1,63,0.00,,,0.00,448.00,VWS V14.01,2013-01-08 19:40:00,
2013-01-08 14:41:00,69.1,55.5,30.31,SE,129,0.0,1.1,62,0.00,,,0.00,394.00,VWS V14.01,2013-01-08 19:41:00,
2013-01-08 14:42:00,68.9,55.4,30.30,NE,35,1.1,1.1,62,0.00,,,0.00,390.00,VWS V14.01,2013-01-08 19:42:00,
2013-01-08 14:43:00,69.1,55.5,30.31,NE,39,0.0,1.1,62,0.00,,,0.00,373.00,VWS V14.01,2013-01-08 19:43:00,
2013-01-08 14:44:00,69.1,55.9,30.31,ENE,75,0.0,2.2,63,0.00,,,0.00,373.00,VWS V14.01,2013-01-08 19:44:00,
2013-01-08 14:45:00,69.1,56.4,30.31,ENE,75,0.0,0.0,64,0.00,,,0.00,288.00,VWS V14.01,2013-01-08 19:45:00,
2013-01-08 14:47:00,69.2,56.0,30.30,NE,34,0.0,2.2,63,0.00,,,0.00,362.00,VWS V14.01,2013-01-08 19:47:00,
2013-01-08 14:48:00,69.1,55.5,30.30,NNE,23,2.2,2.2,62,0.00,,,0.00,364.00,VWS V14.01,2013-01-08 19:48:00,
2013-01-08 14:49:00,68.8,54.9,30.30,North,358,3.3,4.4,61,0.00,,,0.00,355.00,VWS V14.01,2013-01-08 19:49:00,
2013-01-08 14:50:00,68.7,55.6,30.30,ENE,69,1.1,3.3,63,0.00,,,0.00,373.00,VWS V14.01,2013-01-08 19:50:00,
2013-01-08 14:51:00,68.6,55.5,30.30,NE,52,0.0,2.2,63,0.00,,,0.00,394.00,VWS V14.01,2013-01-08 19:51:00,
2013-01-08 14:52:00,68.8,56.1,30.30,NE,54,1.1,1.1,64,0.00,,,0.00,320.00,VWS V14.01,2013-01-08 19:52:00,
2013-01-08 14:53:00,68.8,55.7,30.30,NNE,16,3.3,3.3,63,0.00,,,0.00,367.00,VWS V14.01,2013-01-08 19:53:00,
2013-01-08 14:54:00,68.7,55.1,30.30,NNE,26,3.3,3.3,62,0.00,,,0.00,427.00,VWS V14.01,2013-01-08 19:54:00,
2013-01-08 14:55:00,68.7,55.6,30.30,North,358,1.1,3.3,63,0.00,,,0.00,420.00,VWS V14.01,2013-01-08 19:55:00,
2013-01-08 14:56:00,68.7,55.6,30.30,North,358,0.0,1.1,63,0.00,,,0.00,345.00,VWS V14.01,2013-01-08 19:56:00,
2013-01-08 14:57:00,68.8,56.2,30.30,NNE,29,1.1,1.1,64,0.00,,,0.00,309.00,VWS V14.01,2013-01-08 19:57:00,
2013-01-08 14:58:00,68.9,56.3,30.30,NNE,28,0.0,0.0,64,0.00,,,0.00,396.00,VWS V14.01,2013-01-08 19:58:00,
2013-01-08 14:59:00,69.1,55.9,30.30,NE,40,1.1,3.3,63,0.00,,,0.00,406.00,VWS V14.01,2013-01-08 19:59:00,
2013-01-08 15:00:00,69.1,55.9,30.30,NE,42,0.0,0.0,63,0.00,,,0.00,408.00,VWS V14.01,2013-01-08 20:00:00,
2013-01-08 15:01:00,69.1,55.9,30.30,NE,53,0.0,0.0,63,0.00,,,0.00,388.00,VWS V14.01,2013-01-08 20:01:00,
2013-01-08 15:02:00,69.2,56.5,30.30,North,3,0.0,1.1,64,0.00,,,0.00,388.00,VWS V14.01,2013-01-08 20:02:00,
2013-01-08 15:03:00,69.2,56.0,30.30,North,7,0.0,1.1,63,0.00,,,0.00,388.00,VWS V14.01,2013-01-08 20:03:00,
2013-01-08 15:04:00,69.2,56.6,30.30,NE,39,0.0,1.1,64,0.00,,,0.00,329.00,VWS V14.01,2013-01-08 20:04:00,
2013-01-08 15:05:00,69.2,56.0,30.30,NE,37,1.1,2.2,63,0.00,,,0.00,396.00,VWS V14.01,2013-01-08 20:05:00,
2013-01-08 15:06:00,69.1,55.9,30.30,NE,39,1.1,3.3,63,0.00,,,0.00,376.00,VWS V14.01,2013-01-08 20:06:00,
2013-01-08 15:07:00,68.9,55.8,30.30,NNE,23,2.2,2.2,63,0.00,,,0.00,394.00,VWS V14.01,2013-01-08 20:07:00,
2013-01-08 15:08:00,68.9,55.8,30.30,NNE,31,3.3,3.3,63,0.00,,,0.00,394.00,VWS V14.01,2013-01-08 20:08:00,
2013-01-08 15:09:00,69.1,56.4,30.30,NNE,31,0.0,3.3,64,0.00,,,0.00,373.00,VWS V14.01,2013-01-08 20:09:00,
2013-01-08 15:10:00,69.2,56.9,30.30,NNE,31,0.0,0.0,65,0.00,,,0.00,385.00,VWS V14.01,2013-01-08 20:10:00,
2013-01-08 15:11:00,69.3,56.7,30.30,North,11,2.2,3.3,64,0.00,,,0.00,388.00,VWS V14.01,2013-01-08 20:11:00,
2013-01-08 15:12:00,69.4,56.3,30.30,NE,37,2.2,3.3,63,0.00,,,0.00,290.00,VWS V14.01,2013-01-08 20:12:00,
2013-01-08 15:13:00,69.4,56.3,30.30,ENE,67,1.1,2.2,63,0.00,,,0.00,323.00,VWS V14.01,2013-01-08 20:13:00,
2013-01-08 15:14:00,69.3,55.8,30.30,ENE,68,1.1,3.3,62,0.00,,,0.00,371.00,VWS V14.01,2013-01-08 20:14:00,
2013-01-08 15:15:00,69.2,56.1,30.30,NE,52,0.0,3.3,63,0.00,,,0.00,378.00,VWS V14.01,2013-01-08 20:15:00,
2013-01-08 15:16:00,69.1,55.9,30.30,ENE,60,0.0,2.2,63,0.00,,,0.00,350.00,VWS V14.01,2013-01-08 20:16:00,
2013-01-08 15:17:00,69.2,56.5,30.30,ENE,58,0.0,1.1,64,0.00,,,0.00,385.00,VWS V14.01,2013-01-08 20:17:00,
2013-01-08 15:18:00,69.2,56.0,30.30,ENE,58,1.1,1.1,63,0.00,,,0.00,297.00,VWS V14.01,2013-01-08 20:18:00,
2013-01-08 15:19:00,69.2,56.0,30.30,NNE,17,4.4,4.4,63,0.00,,,0.00,257.00,VWS V14.01,2013-01-08 20:19:00,
2013-01-08 15:20:00,68.9,55.4,30.30,NNE,15,4.4,4.4,62,0.00,,,0.00,281.00,VWS V14.01,2013-01-08 20:20:00,
2013-01-08 15:21:00,68.8,55.7,30.30,North,2,2.2,4.4,63,0.00,,,0.00,193.00,VWS V14.01,2013-01-08 20:21:00,
2013-01-08 15:22:00,68.7,55.6,30.30,North,11,1.1,3.3,63,0.00,,,0.00,183.00,VWS V14.01,2013-01-08 20:22:00,
2013-01-08 15:23:00,68.7,55.6,30.30,NNE,19,2.2,2.2,63,0.00,,,0.00,237.00,VWS V14.01,2013-01-08 20:23:00,
2013-01-08 15:24:00,68.7,55.6,30.30,NE,48,1.1,2.2,63,0.00,,,0.00,243.00,VWS V14.01,2013-01-08 20:24:00,
2013-01-08 15:25:00,68.6,55.5,30.30,NNE,21,1.1,1.1,63,0.00,,,0.00,258.00,VWS V14.01,2013-01-08 20:25:00,
2013-01-08 15:26:00,68.6,55.9,30.30,NE,37,0.0,1.1,64,0.00,,,0.00,251.00,VWS V14.01,2013-01-08 20:26:00,
2013-01-08 15:27:00,68.7,56.0,30.30,NE,37,0.0,0.0,64,0.00,,,0.00,329.00,VWS V14.01,2013-01-08 20:27:00,
2013-01-08 15:28:00,68.8,56.5,30.30,NE,37,0.0,0.0,65,0.00,,,0.00,355.00,VWS V14.01,2013-01-08 20:28:00,
2013-01-08 15:29:00,68.9,56.7,30.30,NE,37,0.0,1.1,65,0.00,,,0.00,345.00,VWS V14.01,2013-01-08 20:29:00,
2013-01-08 15:30:00,69.2,56.5,30.30,NE,37,1.1,2.2,64,0.00,,,0.00,334.00,VWS V14.01,2013-01-08 20:30:00,
2013-01-08 15:31:00,69.1,56.4,30.30,NE,37,2.2,2.2,64,0.00,,,0.00,334.00,VWS V14.01,2013-01-08 20:31:00,
2013-01-08 15:32:00,69.1,55.9,30.30,NNW,342,3.3,3.3,63,0.00,,,0.00,334.00,VWS V14.01,2013-01-08 20:32:00,
2013-01-08 15:33:00,69.1,55.9,30.30,NNW,348,0.0,3.3,63,0.00,,,0.00,315.00,VWS V14.01,2013-01-08 20:33:00,
2013-01-08 15:34:00,69.1,55.9,30.30,NNE,19,0.0,2.2,63,0.00,,,0.00,315.00,VWS V14.01,2013-01-08 20:34:00,
2013-01-08 15:35:00,69.1,56.4,30.30,NE,50,1.1,1.1,64,0.00,,,0.00,311.00,VWS V14.01,2013-01-08 20:35:00,
2013-01-08 15:36:00,69.1,56.4,30.30,East,83,1.1,2.2,64,0.00,,,0.00,308.00,VWS V14.01,2013-01-08 20:36:00,
2013-01-08 15:37:00,69.2,56.5,30.30,NE,44,0.0,1.1,64,0.00,,,0.00,304.00,VWS V14.01,2013-01-08 20:37:00,
2013-01-08 15:38:00,69.2,56.1,30.30,North,4,0.0,2.2,63,0.00,,,0.00,299.00,VWS V14.01,2013-01-08 20:38:00,
2013-01-08 15:39:00,69.3,56.2,30.30,North,9,3.3,3.3,63,0.00,,,0.00,301.00,VWS V14.01,2013-01-08 20:39:00,
2013-01-08 15:40:00,69.2,56.1,30.30,NNE,14,2.2,3.3,63,0.00,,,0.00,295.00,VWS V14.01,2013-01-08 20:40:00,
2013-01-08 15:41:00,69.2,56.0,30.30,ENE,66,1.1,4.4,63,0.00,,,0.00,297.00,VWS V14.01,2013-01-08 20:41:00,
2013-01-08 15:42:00,69.2,56.0,30.30,ENE,58,0.0,1.1,63,0.00,,,0.00,294.00,VWS V14.01,2013-01-08 20:42:00,
2013-01-08 15:43:00,69.2,56.0,30.30,ENE,58,0.0,0.0,63,0.00,,,0.00,283.00,VWS V14.01,2013-01-08 20:43:00,
2013-01-08 15:44:00,69.2,56.5,30.30,North,8,0.0,2.2,64,0.00,,,0.00,279.00,VWS V14.01,2013-01-08 20:44:00,
2013-01-08 15:45:00,69.2,56.0,30.30,North,8,0.0,0.0,63,0.00,,,0.00,276.00,VWS V14.01,2013-01-08 20:45:00,
2013-01-08 15:46:00,69.1,55.9,30.30,NNE,15,0.0,2.2,63,0.00,,,0.00,265.00,VWS V14.01,2013-01-08 20:46:00,
2013-01-08 15:47:00,69.1,56.4,30.30,NNE,16,1.1,1.1,64,0.00,,,0.00,255.00,VWS V14.01,2013-01-08 20:47:00,
2013-01-08 15:48:00,69.2,56.9,30.30,NNE,16,0.0,1.1,65,0.00,,,0.00,241.00,VWS V14.01,2013-01-08 20:48:00,
2013-01-08 15:49:00,69.2,56.1,30.30,NNE,16,0.0,0.0,63,0.00,,,0.00,241.00,VWS V14.01,2013-01-08 20:49:00,
2013-01-08 15:50:00,69.2,56.6,30.30,NNE,19,1.1,1.1,64,0.00,,,0.00,230.00,VWS V14.01,2013-01-08 20:50:00,
2013-01-08 15:51:00,69.2,56.0,30.30,NNE,19,0.0,1.1,63,0.00,,,0.00,225.00,VWS V14.01,2013-01-08 20:51:00,
2013-01-08 15:52:00,69.1,55.9,30.30,NNE,30,1.1,2.2,63,0.00,,,0.00,204.00,VWS V14.01,2013-01-08 20:52:00,
2013-01-08 15:53:00,68.9,56.3,30.30,North,10,2.2,2.2,64,0.00,,,0.00,223.00,VWS V14.01,2013-01-08 20:53:00,
2013-01-08 15:54:00,68.8,56.6,30.30,North,2,4.4,4.4,65,0.00,,,0.00,211.00,VWS V14.01,2013-01-08 20:54:00,
2013-01-08 15:55:00,68.8,56.1,30.30,NE,54,2.2,4.4,64,0.00,,,0.00,232.00,VWS V14.01,2013-01-08 20:55:00,
2013-01-08 15:56:00,68.8,56.1,30.30,ENE,62,1.1,2.2,64,0.00,,,0.00,243.00,VWS V14.01,2013-01-08 20:56:00,
2013-01-08 15:57:00,68.7,56.0,30.30,ENE,60,0.0,2.2,64,0.00,,,0.00,244.00,VWS V14.01,2013-01-08 20:57:00,
2013-01-08 15:58:00,68.8,56.5,30.30,ENE,63,0.0,0.0,65,0.00,,,0.00,236.00,VWS V14.01,2013-01-08 20:58:00,
2013-01-08 15:59:00,68.8,56.5,30.30,NE,35,1.1,1.1,65,0.00,,,0.00,206.00,VWS V14.01,2013-01-08 20:59:00,
2013-01-08 16:00:00,68.8,56.2,30.30,NE,46,1.1,3.3,64,0.00,,,0.00,134.00,VWS V14.01,2013-01-08 21:00:00,
2013-01-08 16:01:00,68.7,56.0,30.30,North,353,2.2,2.2,64,0.00,,,0.00,107.00,VWS V14.01,2013-01-08 21:01:00,
2013-01-08 16:02:00,68.6,55.9,30.30,NE,39,2.2,3.3,64,0.00,,,0.00,146.00,VWS V14.01,2013-01-08 21:02:00,
2013-01-08 16:03:00,68.6,56.3,30.29,North,2,3.3,3.3,65,0.00,,,0.00,113.00,VWS V14.01,2013-01-08 21:03:00,
2013-01-08 16:04:00,68.6,56.3,30.29,North,3,3.3,3.3,65,0.00,,,0.00,135.00,VWS V14.01,2013-01-08 21:04:00,
2013-01-08 16:05:00,68.3,55.7,30.29,NNW,348,2.2,4.4,64,0.00,,,0.00,144.00,VWS V14.01,2013-01-08 21:05:00,
2013-01-08 16:06:00,68.2,55.6,30.29,North,6,2.2,5.5,64,0.00,,,0.00,121.00,VWS V14.01,2013-01-08 21:06:00,
2013-01-08 16:07:00,68.2,56.0,30.29,North,358,2.2,2.2,65,0.00,,,0.00,132.00,VWS V14.01,2013-01-08 21:07:00,
2013-01-08 16:08:00,68.2,56.0,30.29,North,2,1.1,1.1,65,0.00,,,0.00,141.00,VWS V14.01,2013-01-08 21:08:00,
2013-01-08 16:09:00,68.2,56.4,30.29,North,4,0.0,1.1,66,0.00,,,0.00,90.00,VWS V14.01,2013-01-08 21:09:00,
2013-01-08 16:10:00,68.2,56.4,30.29,North,3,0.0,0.0,66,0.00,,,0.00,105.00,VWS V14.01,2013-01-08 21:10:00,
2013-01-08 16:11:00,68.2,56.5,30.30,North,4,0.0,0.0,66,0.00,,,0.00,97.00,VWS V14.01,2013-01-08 21:11:00,
2013-01-08 16:12:00,68.2,56.4,30.29,North,4,0.0,0.0,66,0.00,,,0.00,86.00,VWS V14.01,2013-01-08 21:12:00,
2013-01-08 16:13:00,68.2,56.4,30.30,NE,56,1.1,1.1,66,0.00,,,0.00,76.00,VWS V14.01,2013-01-08 21:13:00,
2013-01-08 16:14:00,68.1,56.3,30.30,NE,56,0.0,1.1,66,0.00,,,0.00,76.00,VWS V14.01,2013-01-08 21:14:00,
2013-01-08 16:15:00,68.1,56.3,30.30,NNE,33,0.0,1.1,66,0.00,,,0.00,83.00,VWS V14.01,2013-01-08 21:15:00,
2013-01-08 16:16:00,67.9,56.2,30.30,NNE,33,0.0,0.0,66,0.00,,,0.00,69.00,VWS V14.01,2013-01-08 21:16:00,
2013-01-08 16:17:00,67.8,56.1,30.30,NNE,32,0.0,1.1,66,0.00,,,0.00,63.00,VWS V14.01,2013-01-08 21:17:00,
2013-01-08 16:18:00,67.7,55.9,30.30,NNE,32,0.0,0.0,66,0.00,,,0.00,58.00,VWS V14.01,2013-01-08 21:18:00,
2013-01-08 16:19:00,67.7,56.3,30.30,NNE,32,0.0,1.1,67,0.00,,,0.00,65.00,VWS V14.01,2013-01-08 21:19:00,
2013-01-08 16:20:00,67.6,56.2,30.29,NNE,32,0.0,0.0,67,0.00,,,0.00,76.00,VWS V14.01,2013-01-08 21:20:00,
2013-01-08 16:21:00,67.4,56.5,30.30,NE,45,0.0,1.1,68,0.00,,,0.00,83.00,VWS V14.01,2013-01-08 21:21:00,
2013-01-08 16:22:00,67.3,56.4,30.29,NE,45,0.0,1.1,68,0.00,,,0.00,88.00,VWS V14.01,2013-01-08 21:22:00,
2013-01-08 16:23:00,67.2,56.3,30.30,NE,45,0.0,0.0,68,0.00,,,0.00,81.00,VWS V14.01,2013-01-08 21:23:00,
2013-01-08 16:24:00,67.2,56.3,30.30,NE,44,0.0,0.0,68,0.00,,,0.00,83.00,VWS V14.01,2013-01-08 21:24:00,
2013-01-08 16:25:00,67.2,56.3,30.29,NE,50,1.1,2.2,68,0.00,,,0.00,72.00,VWS V14.01,2013-01-08 21:25:00,
2013-01-08 16:26:00,67.2,56.3,30.30,NE,50,0.0,1.1,68,0.00,,,0.00,65.00,VWS V14.01,2013-01-08 21:26:00,
2013-01-08 16:27:00,67.2,56.3,30.30,NNE,31,1.1,2.2,68,0.00,,,0.00,63.00,VWS V14.01,2013-01-08 21:27:00,
2013-01-08 16:28:00,67.2,56.3,30.30,NE,38,0.0,2.2,68,0.00,,,0.00,62.00,VWS V14.01,2013-01-08 21:28:00,
2013-01-08 16:29:00,67.2,56.3,30.30,North,8,1.1,3.3,68,0.00,,,0.00,62.00,VWS V14.01,2013-01-08 21:29:00,
2013-01-08 16:30:00,67.2,56.3,30.30,North,9,0.0,2.2,68,0.00,,,0.00,56.00,VWS V14.01,2013-01-08 21:30:00,
2013-01-08 16:31:00,67.2,56.2,30.30,NNE,12,0.0,0.0,68,0.00,,,0.00,54.00,VWS V14.01,2013-01-08 21:31:00,
2013-01-08 16:32:00,67.1,56.2,30.29,NNE,12,0.0,0.0,68,0.00,,,0.00,49.00,VWS V14.01,2013-01-08 21:32:00,
2013-01-08 16:33:00,67.1,56.2,30.30,NNE,19,0.0,0.0,68,0.00,,,0.00,47.00,VWS V14.01,2013-01-08 21:33:00,
2013-01-08 16:34:00,66.9,56.5,30.30,NNE,19,0.0,1.1,69,0.00,,,0.00,47.00,VWS V14.01,2013-01-08 21:34:00,
2013-01-08 16:35:00,66.8,56.4,30.30,NNE,19,0.0,0.0,69,0.00,,,0.00,49.00,VWS V14.01,2013-01-08 21:35:00,
2013-01-08 16:36:00,66.8,56.3,30.30,NNE,19,0.0,0.0,69,0.00,,,0.00,49.00,VWS V14.01,2013-01-08 21:36:00,
2013-01-08 16:37:00,66.8,56.3,30.30,NNE,19,0.0,0.0,69,0.00,,,0.00,51.00,VWS V14.01,2013-01-08 21:37:00,
2013-01-08 16:38:00,66.7,56.6,30.30,NNE,19,0.0,0.0,70,0.00,,,0.00,51.00,VWS V14.01,2013-01-08 21:38:00,
2013-01-08 16:39:00,66.7,56.6,30.30,NNE,19,0.0,0.0,70,0.00,,,0.00,51.00,VWS V14.01,2013-01-08 21:39:00,
2013-01-08 16:40:00,66.4,56.4,30.29,NNE,19,0.0,1.1,70,0.00,,,0.00,49.00,VWS V14.01,2013-01-08 21:40:00,
2013-01-08 16:41:00,66.4,56.4,30.29,NNE,19,0.0,1.1,70,0.00,,,0.00,47.00,VWS V14.01,2013-01-08 21:41:00,
2013-01-08 16:42:00,66.3,56.7,30.29,NNE,19,0.0,0.0,71,0.00,,,0.00,46.00,VWS V14.01,2013-01-08 21:42:00,
2013-01-08 16:43:00,66.2,56.6,30.29,NNE,19,0.0,0.0,71,0.00,,,0.00,44.00,VWS V14.01,2013-01-08 21:43:00,
2013-01-08 16:44:00,66.2,57.0,30.29,NNE,19,0.0,0.0,72,0.00,,,0.00,42.00,VWS V14.01,2013-01-08 21:44:00,
2013-01-08 16:45:00,66.1,56.8,30.29,NNE,19,0.0,0.0,72,0.00,,,0.00,40.00,VWS V14.01,2013-01-08 21:45:00,
2013-01-08 16:46:00,65.9,56.7,30.29,NNE,19,0.0,0.0,72,0.00,,,0.00,40.00,VWS V14.01,2013-01-08 21:46:00,
2013-01-08 16:47:00,65.9,56.7,30.29,NNE,19,0.0,1.1,72,0.00,,,0.00,39.00,VWS V14.01,2013-01-08 21:47:00,
2013-01-08 16:48:00,65.8,56.6,30.29,NNE,19,0.0,0.0,72,0.00,,,0.00,35.00,VWS V14.01,2013-01-08 21:48:00,
2013-01-08 16:49:00,65.8,56.9,30.29,NNE,19,0.0,0.0,73,0.00,,,0.00,33.00,VWS V14.01,2013-01-08 21:49:00,
2013-01-08 16:50:00,65.7,56.4,30.30,NNE,19,0.0,0.0,72,0.00,,,0.00,35.00,VWS V14.01,2013-01-08 21:50:00,
2013-01-08 16:51:00,65.6,56.7,30.29,NNE,19,0.0,0.0,73,0.00,,,0.00,39.00,VWS V14.01,2013-01-08 21:51:00,
2013-01-08 16:52:00,65.4,57.0,30.29,NNE,19,0.0,0.0,74,0.00,,,0.00,37.00,VWS V14.01,2013-01-08 21:52:00,
2013-01-08 16:53:00,65.3,56.9,30.30,NNE,19,0.0,0.0,74,0.00,,,0.00,37.00,VWS V14.01,2013-01-08 21:53:00,
2013-01-08 16:54:00,65.2,56.8,30.30,NNE,19,0.0,0.0,74,0.00,,,0.00,42.00,VWS V14.01,2013-01-08 21:54:00,
2013-01-08 16:55:00,65.2,56.7,30.29,NNE,19,0.0,0.0,74,0.00,,,0.00,42.00,VWS V14.01,2013-01-08 21:55:00,
2013-01-08 16:56:00,65.1,56.9,30.29,NNE,19,0.0,0.0,75,0.00,,,0.00,42.00,VWS V14.01,2013-01-08 21:56:00,
2013-01-08 16:57:00,64.8,56.8,30.30,NNE,19,0.0,0.0,75,0.00,,,0.00,46.00,VWS V14.01,2013-01-08 21:57:00,
2013-01-08 16:58:00,64.8,57.1,30.29,NNE,19,0.0,0.0,76,0.00,,,0.00,46.00,VWS V14.01,2013-01-08 21:58:00,
2013-01-08 16:59:00,64.8,57.0,30.29,NNE,19,0.0,0.0,76,0.00,,,0.00,46.00,VWS V14.01,2013-01-08 21:59:00,
2013-01-08 17:00:00,64.8,57.0,30.29,NNE,19,0.0,0.0,76,0.00,,,0.00,46.00,VWS V14.01,2013-01-08 22:00:00,
2013-01-08 17:01:00,64.7,56.9,30.30,NNE,19,0.0,0.0,76,0.00,,,0.00,46.00,VWS V14.01,2013-01-08 22:01:00,
2013-01-08 17:02:00,64.6,56.8,30.30,NNE,19,0.0,0.0,76,0.00,,,0.00,44.00,VWS V14.01,2013-01-08 22:02:00,
2013-01-08 17:03:00,64.6,57.2,30.30,NNE,19,0.0,0.0,77,0.00,,,0.00,44.00,VWS V14.01,2013-01-08 22:03:00,
2013-01-08 17:04:00,64.6,57.2,30.30,NNE,19,0.0,0.0,77,0.00,,,0.00,42.00,VWS V14.01,2013-01-08 22:04:00,
2013-01-08 17:05:00,64.4,57.1,30.30,NNE,19,0.0,0.0,77,0.00,,,0.00,40.00,VWS V14.01,2013-01-08 22:05:00,
2013-01-08 17:06:00,64.4,56.7,30.30,NNE,19,0.0,0.0,76,0.00,,,0.00,33.00,VWS V14.01,2013-01-08 22:06:00,
2013-01-08 17:07:00,64.3,56.6,30.30,NNE,19,0.0,0.0,76,0.00,,,0.00,30.00,VWS V14.01,2013-01-08 22:07:00,
2013-01-08 17:08:00,64.3,56.6,30.30,NNE,19,0.0,0.0,76,0.00,,,0.00,28.00,VWS V14.01,2013-01-08 22:08:00,
2013-01-08 17:09:00,64.2,56.5,30.30,NNE,19,0.0,0.0,76,0.00,,,0.00,26.00,VWS V14.01,2013-01-08 22:09:00,
2013-01-08 17:10:00,64.2,56.8,30.30,NNE,19,0.0,0.0,77,0.00,,,0.00,26.00,VWS V14.01,2013-01-08 22:10:00,
2013-01-08 17:11:00,64.1,56.7,30.30,NNE,19,0.0,0.0,77,0.00,,,0.00,26.00,VWS V14.01,2013-01-08 22:11:00,
2013-01-08 17:12:00,64.1,56.7,30.30,NNE,19,0.0,0.0,77,0.00,,,0.00,19.00,VWS V14.01,2013-01-08 22:12:00,
2013-01-08 17:13:00,64.0,57.0,30.30,NNE,19,0.0,0.0,78,0.00,,,0.00,18.00,VWS V14.01,2013-01-08 22:13:00,
2013-01-08 17:14:00,63.8,56.9,30.30,NNE,19,0.0,0.0,78,0.00,,,0.00,16.00,VWS V14.01,2013-01-08 22:14:00,
2013-01-08 17:15:00,63.8,56.8,30.30,NNE,19,0.0,0.0,78,0.00,,,0.00,14.00,VWS V14.01,2013-01-08 22:15:00,
2013-01-08 17:16:00,63.7,56.7,30.30,NNE,19,0.0,0.0,78,0.00,,,0.00,12.00,VWS V14.01,2013-01-08 22:16:00,
2013-01-08 17:17:00,63.5,56.6,30.30,NNE,19,0.0,0.0,78,0.00,,,0.00,11.00,VWS V14.01,2013-01-08 22:17:00,
2013-01-08 17:18:00,63.5,56.8,30.30,NNE,19,0.0,0.0,79,0.00,,,0.00,9.00,VWS V14.01,2013-01-08 22:18:00,
2013-01-08 17:19:00,63.3,56.7,30.30,NNE,19,0.0,0.0,79,0.00,,,0.00,7.00,VWS V14.01,2013-01-08 22:19:00,
2013-01-08 17:20:00,63.2,56.6,30.30,NNE,19,0.0,0.0,79,0.00,,,0.00,7.00,VWS V14.01,2013-01-08 22:20:00,
2013-01-08 17:21:00,63.2,56.5,30.30,NNE,19,0.0,0.0,79,0.00,,,0.00,7.00,VWS V14.01,2013-01-08 22:21:00,
2013-01-08 17:22:00,63.0,56.8,30.30,NNE,19,0.0,0.0,80,0.00,,,0.00,5.00,VWS V14.01,2013-01-08 22:22:00,
2013-01-08 17:23:00,63.0,56.7,30.30,NNE,19,0.0,0.0,80,0.00,,,0.00,5.00,VWS V14.01,2013-01-08 22:23:00,
2013-01-08 17:24:00,62.8,56.6,30.30,NNE,19,0.0,0.0,80,0.00,,,0.00,0.00,VWS V14.01,2013-01-08 22:24:00,
2013-01-08 17:25:00,62.8,56.5,30.30,NNE,19,0.0,0.0,80,0.00,,,0.00,0.00,VWS V14.01,2013-01-08 22:25:00,
2013-01-08 17:26:00,62.7,56.4,30.31,NNE,19,0.0,0.0,80,0.00,,,0.00,0.00,VWS V14.01,2013-01-08 22:26:00,
2013-01-08 17:27:00,62.5,56.3,30.30,NNE,19,0.0,0.0,80,0.00,,,0.00,0.00,VWS V14.01,2013-01-08 22:27:00,
2013-01-08 17:28:00,62.3,56.1,30.30,NNE,19,0.0,0.0,80,0.00,,,0.00,0.00,VWS V14.01,2013-01-08 22:28:00,
2013-01-08 17:29:00,62.2,56.3,30.30,NNE,19,0.0,0.0,81,0.00,,,0.00,0.00,VWS V14.01,2013-01-08 22:29:00,
2013-01-08 17:30:00,62.0,56.1,30.31,NNE,19,0.0,0.0,81,0.00,,,0.00,0.00,VWS V14.01,2013-01-08 22:30:00,
2013-01-08 17:32:00,61.7,56.1,30.30,NNE,19,0.0,0.0,82,0.00,,,0.00,0.00,VWS V14.01,2013-01-08 22:32:00,
2013-01-08 17:33:00,61.5,56.0,30.31,NNE,19,0.0,0.0,82,0.00,,,0.00,0.00,VWS V14.01,2013-01-08 22:33:00,
2013-01-08 17:34:00,61.3,55.8,30.31,NNE,19,0.0,0.0,82,0.00,,,0.00,0.00,VWS V14.01,2013-01-08 22:34:00,
2013-01-08 17:35:00,61.2,56.0,30.30,NNE,19,0.0,0.0,83,0.00,,,0.00,0.00,VWS V14.01,2013-01-08 22:35:00,
2013-01-08 17:36:00,61.0,55.8,30.30,NNE,19,0.0,0.0,83,0.00,,,0.00,0.00,VWS V14.01,2013-01-08 22:36:00,
2013-01-08 17:37:00,60.8,55.6,30.30,NNE,19,0.0,0.0,83,0.00,,,0.00,0.00,VWS V14.01,2013-01-08 22:37:00,
2013-01-08 17:38:00,60.5,55.7,30.31,NNE,19,0.0,0.0,84,0.00,,,0.00,0.00,VWS V14.01,2013-01-08 22:38:00,
2013-01-08 17:39:00,60.5,55.6,30.31,NNE,19,0.0,0.0,84,0.00,,,0.00,0.00,VWS V14.01,2013-01-08 22:39:00,
2013-01-08 17:40:00,60.2,55.4,30.31,NNE,19,0.0,0.0,84,0.00,,,0.00,0.00,VWS V14.01,2013-01-08 22:40:00,
2013-01-08 17:41:00,60.2,55.3,30.31,NNE,19,0.0,0.0,84,0.00,,,0.00,0.00,VWS V14.01,2013-01-08 22:41:00,
2013-01-08 17:42:00,60.0,55.2,30.30,NNE,19,0.0,0.0,84,0.00,,,0.00,0.00,VWS V14.01,2013-01-08 22:42:00,
2013-01-08 17:43:00,60.0,55.5,30.30,NNE,19,0.0,0.0,85,0.00,,,0.00,0.00,VWS V14.01,2013-01-08 22:43:00,
2013-01-08 17:44:00,60.0,55.5,30.30,NNE,19,0.0,0.0,85,0.00,,,0.00,0.00,VWS V14.01,2013-01-08 22:44:00,
2013-01-08 17:45:00,60.0,55.4,30.30,NNE,19,0.0,0.0,85,0.00,,,0.00,0.00,VWS V14.01,2013-01-08 22:45:00,
2013-01-08 17:46:00,59.8,55.3,30.30,NNE,19,0.0,0.0,85,0.00,,,0.00,0.00,VWS V14.01,2013-01-08 22:46:00,
2013-01-08 17:47:00,59.7,55.1,30.31,NNE,19,0.0,0.0,85,0.00,,,0.00,0.00,VWS V14.01,2013-01-08 22:47:00,
2013-01-08 17:48:00,59.5,54.9,30.31,NNE,19,0.0,0.0,85,0.00,,,0.00,0.00,VWS V14.01,2013-01-08 22:48:00,
2013-01-08 17:49:00,59.3,54.8,30.31,NNE,19,0.0,0.0,85,0.00,,,0.00,0.00,VWS V14.01,2013-01-08 22:49:00,
2013-01-08 17:50:00,59.2,55.1,30.31,NNE,19,0.0,0.0,86,0.00,,,0.00,0.00,VWS V14.01,2013-01-08 22:50:00,
2013-01-08 17:51:00,59.2,55.1,30.31,NNE,19,0.0,0.0,86,0.00,,,0.00,0.00,VWS V14.01,2013-01-08 22:51:00,
2013-01-08 17:52:00,59.2,55.0,30.31,NNE,19,0.0,0.0,86,0.00,,,0.00,0.00,VWS V14.01,2013-01-08 22:52:00,
2013-01-08 17:53:00,59.0,55.2,30.31,NNE,19,0.0,0.0,87,0.00,,,0.00,0.00,VWS V14.01,2013-01-08 22:53:00,
2013-01-08 17:55:00,59.0,55.1,30.31,NNE,19,0.0,0.0,87,0.00,,,0.00,0.00,VWS V14.01,2013-01-08 22:55:00,
2013-01-08 17:56:00,58.8,55.0,30.31,NNE,19,0.0,0.0,87,0.00,,,0.00,0.00,VWS V14.01,2013-01-08 22:56:00,
2013-01-08 17:58:00,58.8,54.9,30.31,NNE,19,0.0,0.0,87,0.00,,,0.00,0.00,VWS V14.01,2013-01-08 22:58:00,
2013-01-08 17:59:00,58.7,54.8,30.31,NNE,19,0.0,0.0,87,0.00,,,0.00,0.00,VWS V14.01,2013-01-08 22:59:00,
2013-01-08 18:00:00,58.5,54.7,30.31,NNE,19,0.0,0.0,87,0.00,,,0.00,0.00,VWS V14.01,2013-01-08 23:00:00,
2013-01-08 18:01:00,58.5,54.6,30.31,NNE,19,0.0,0.0,87,0.00,,,0.00,0.00,VWS V14.01,2013-01-08 23:01:00,
2013-01-08 18:02:00,58.3,54.8,30.31,NNE,19,0.0,0.0,88,0.00,,,0.00,0.00,VWS V14.01,2013-01-08 23:02:00,
2013-01-08 18:03:00,58.3,54.8,30.31,NNE,19,0.0,0.0,88,0.00,,,0.00,0.00,VWS V14.01,2013-01-08 23:03:00,
2013-01-08 18:04:00,58.2,54.7,30.31,NNE,19,0.0,0.0,88,0.00,,,0.00,0.00,VWS V14.01,2013-01-08 23:04:00,
2013-01-08 18:05:00,58.2,54.6,30.31,NNE,19,0.0,0.0,88,0.00,,,0.00,0.00,VWS V14.01,2013-01-08 23:05:00,
2013-01-08 18:06:00,58.2,54.9,30.31,NNE,19,0.0,0.0,89,0.00,,,0.00,0.00,VWS V14.01,2013-01-08 23:06:00,
2013-01-08 18:07:00,58.2,54.6,30.31,NNE,19,0.0,0.0,88,0.00,,,0.00,0.00,VWS V14.01,2013-01-08 23:07:00,
2013-01-08 18:08:00,58.0,54.5,30.31,NNE,19,0.0,0.0,88,0.00,,,0.00,0.00,VWS V14.01,2013-01-08 23:08:00,
2013-01-08 18:09:00,58.0,54.5,30.31,NNE,19,0.0,0.0,88,0.00,,,0.00,0.00,VWS V14.01,2013-01-08 23:09:00,
2013-01-08 18:10:00,58.0,54.4,30.31,NNE,19,0.0,0.0,88,0.00,,,0.00,0.00,VWS V14.01,2013-01-08 23:10:00,
2013-01-08 18:11:00,58.0,54.4,30.31,NNE,19,0.0,0.0,88,0.00,,,0.00,0.00,VWS V14.01,2013-01-08 23:11:00,
2013-01-08 18:12:00,57.8,54.3,30.31,NNE,19,0.0,0.0,88,0.00,,,0.00,0.00,VWS V14.01,2013-01-08 23:12:00,
2013-01-08 18:13:00,57.8,54.3,30.31,NNE,19,0.0,0.0,88,0.00,,,0.00,0.00,VWS V14.01,2013-01-08 23:13:00,
2013-01-08 18:14:00,57.8,54.2,30.31,NNE,19,0.0,0.0,88,0.00,,,0.00,0.00,VWS V14.01,2013-01-08 23:14:00,
2013-01-08 18:15:00,57.7,54.1,30.31,NNE,19,0.0,0.0,88,0.00,,,0.00,0.00,VWS V14.01,2013-01-08 23:15:00,
2013-01-08 18:16:00,57.5,54.3,30.31,NNE,19,0.0,0.0,89,0.00,,,0.00,0.00,VWS V14.01,2013-01-08 23:16:00,
2013-01-08 18:17:00,57.5,54.2,30.31,NNE,19,0.0,0.0,89,0.00,,,0.00,0.00,VWS V14.01,2013-01-08 23:17:00,
2013-01-08 18:18:00,57.3,54.1,30.31,NNE,19,0.0,0.0,89,0.00,,,0.00,0.00,VWS V14.01,2013-01-08 23:18:00,
2013-01-08 18:19:00,57.2,54.0,30.31,NNE,19,0.0,0.0,89,0.00,,,0.00,0.00,VWS V14.01,2013-01-08 23:19:00,
2013-01-08 18:20:00,57.2,53.9,30.31,NNE,19,0.0,0.0,89,0.00,,,0.00,0.00,VWS V14.01,2013-01-08 23:20:00,
2013-01-08 18:21:00,57.0,53.8,30.31,NNE,19,0.0,0.0,89,0.00,,,0.00,0.00,VWS V14.01,2013-01-08 23:21:00,
2013-01-08 18:23:00,56.8,54.0,30.32,NNE,19,0.0,0.0,90,0.00,,,0.00,0.00,VWS V14.01,2013-01-08 23:23:00,
2013-01-08 18:24:00,56.8,54.0,30.31,NNE,19,0.0,0.0,90,0.00,,,0.00,0.00,VWS V14.01,2013-01-08 23:24:00,
2013-01-08 18:25:00,56.8,53.8,30.32,NNE,19,0.0,0.0,90,0.00,,,0.00,0.00,VWS V14.01,2013-01-08 23:25:00,
2013-01-08 18:26:00,56.8,53.8,30.32,NNE,19,0.0,0.0,90,0.00,,,0.00,0.00,VWS V14.01,2013-01-08 23:26:00,
2013-01-08 18:27:00,56.7,53.8,30.32,NNE,19,0.0,0.0,90,0.00,,,0.00,0.00,VWS V14.01,2013-01-08 23:27:00,
2013-01-08 18:28:00,56.7,53.8,30.32,NNE,19,0.0,0.0,90,0.00,,,0.00,0.00,VWS V14.01,2013-01-08 23:28:00,
2013-01-08 18:29:00,56.7,53.8,30.32,NNE,19,0.0,0.0,90,0.00,,,0.00,0.00,VWS V14.01,2013-01-08 23:29:00,
2013-01-08 18:30:00,56.5,53.7,30.32,NNE,19,0.0,0.0,90,0.00,,,0.00,0.00,VWS V14.01,2013-01-08 23:30:00,
2013-01-08 18:31:00,56.5,53.6,30.32,NNE,19,0.0,0.0,90,0.00,,,0.00,0.00,VWS V14.01,2013-01-08 23:31:00,
2013-01-08 18:32:00,56.5,53.6,30.32,NNE,19,0.0,0.0,90,0.00,,,0.00,0.00,VWS V14.01,2013-01-08 23:32:00,
2013-01-08 18:33:00,56.3,53.5,30.32,NNE,19,0.0,0.0,90,0.00,,,0.00,0.00,VWS V14.01,2013-01-08 23:33:00,
2013-01-08 18:34:00,56.2,53.4,30.32,NNE,19,0.0,0.0,90,0.00,,,0.00,0.00,VWS V14.01,2013-01-08 23:34:00,
2013-01-08 18:35:00,56.2,53.7,30.32,NNE,19,0.0,0.0,91,0.00,,,0.00,0.00,VWS V14.01,2013-01-08 23:35:00,
2013-01-08 18:36:00,56.2,53.7,30.32,NNE,19,0.0,0.0,91,0.00,,,0.00,0.00,VWS V14.01,2013-01-08 23:36:00,
2013-01-08 18:37:00,56.2,53.6,30.32,NNE,19,0.0,0.0,91,0.00,,,0.00,0.00,VWS V14.01,2013-01-08 23:37:00,
2013-01-08 18:38:00,56.2,53.6,30.32,NNE,19,0.0,0.0,91,0.00,,,0.00,0.00,VWS V14.01,2013-01-08 23:38:00,
2013-01-08 18:39:00,56.2,53.6,30.32,NNE,19,0.0,0.0,91,0.00,,,0.00,0.00,VWS V14.01,2013-01-08 23:39:00,
2013-01-08 18:40:00,56.0,53.5,30.32,NNE,19,0.0,0.0,91,0.00,,,0.00,0.00,VWS V14.01,2013-01-08 23:40:00,
2013-01-08 18:41:00,56.0,53.5,30.32,NNE,19,0.0,0.0,91,0.00,,,0.00,0.00,VWS V14.01,2013-01-08 23:41:00,
2013-01-08 18:42:00,56.0,53.5,30.32,NNE,19,0.0,0.0,91,0.00,,,0.00,0.00,VWS V14.01,2013-01-08 23:42:00,
2013-01-08 18:43:00,56.0,53.4,30.32,NNE,19,0.0,0.0,91,0.00,,,0.00,0.00,VWS V14.01,2013-01-08 23:43:00,
2013-01-08 18:44:00,56.0,53.4,30.32,NNE,19,0.0,0.0,91,0.00,,,0.00,0.00,VWS V14.01,2013-01-08 23:44:00,
2013-01-08 18:45:00,56.0,53.4,30.32,NNE,19,0.0,0.0,91,0.00,,,0.00,0.00,VWS V14.01,2013-01-08 23:45:00,
2013-01-08 18:46:00,56.0,53.4,30.32,NNE,19,0.0,0.0,91,0.00,,,0.00,0.00,VWS V14.01,2013-01-08 23:46:00,
2013-01-08 18:47:00,56.0,53.4,30.32,NNE,19,0.0,0.0,91,0.00,,,0.00,0.00,VWS V14.01,2013-01-08 23:47:00,
2013-01-08 18:48:00,55.8,53.0,30.32,NNE,19,0.0,0.0,90,0.00,,,0.00,0.00,VWS V14.01,2013-01-08 23:48:00,
2013-01-08 18:49:00,55.8,52.9,30.32,NNE,19,0.0,0.0,90,0.00,,,0.00,0.00,VWS V14.01,2013-01-08 23:49:00,
2013-01-08 18:50:00,55.7,53.1,30.32,NNE,19,0.0,0.0,91,0.00,,,0.00,0.00,VWS V14.01,2013-01-08 23:50:00,
2013-01-08 18:51:00,55.7,53.1,30.32,NNE,19,0.0,0.0,91,0.00,,,0.00,0.00,VWS V14.01,2013-01-08 23:51:00,
2013-01-08 18:52:00,55.7,53.1,30.32,NNE,19,0.0,0.0,91,0.00,,,0.00,0.00,VWS V14.01,2013-01-08 23:52:00,
2013-01-08 18:53:00,55.5,53.0,30.31,NNE,19,0.0,0.0,91,0.00,,,0.00,0.00,VWS V14.01,2013-01-08 23:53:00,
2013-01-08 18:54:00,55.5,53.0,30.31,NNE,19,0.0,0.0,91,0.00,,,0.00,0.00,VWS V14.01,2013-01-08 23:54:00,
2013-01-08 18:55:00,55.5,53.0,30.32,NNE,19,0.0,0.0,91,0.00,,,0.00,0.00,VWS V14.01,2013-01-08 23:55:00,
2013-01-08 18:56:00,55.5,53.0,30.32,NNE,19,0.0,0.0,91,0.00,,,0.00,0.00,VWS V14.01,2013-01-08 23:56:00,
2013-01-08 18:57:00,55.5,53.0,30.32,NNE,19,0.0,0.0,91,0.00,,,0.00,0.00,VWS V14.01,2013-01-08 23:57:00,
2013-01-08 18:58:00,55.5,53.0,30.32,NNE,19,0.0,0.0,91,0.00,,,0.00,0.00,VWS V14.01,2013-01-08 23:58:00,
2013-01-08 18:59:00,55.5,53.0,30.32,NNE,19,0.0,0.0,91,0.00,,,0.00,0.00,VWS V14.01,2013-01-08 23:59:00,
2013-01-08 19:00:00,55.5,53.0,30.32,NNE,19,0.0,0.0,91,0.00,,,0.00,0.00,VWS V14.01,2013-01-09 00:00:00,
2013-01-08 19:01:00,55.5,52.9,30.32,NNE,19,0.0,0.0,91,0.00,,,0.00,0.00,VWS V14.01,2013-01-09 00:01:00,
2013-01-08 19:02:00,55.5,52.9,30.32,NNE,19,0.0,0.0,91,0.00,,,0.00,0.00,VWS V14.01,2013-01-09 00:02:00,
2013-01-08 19:03:00,55.5,52.9,30.32,NNE,19,0.0,0.0,91,0.00,,,0.00,0.00,VWS V14.01,2013-01-09 00:03:00,
2013-01-08 19:04:00,55.5,52.9,30.32,NNE,19,0.0,0.0,91,0.00,,,0.00,0.00,VWS V14.01,2013-01-09 00:04:00,
2013-01-08 19:05:00,55.5,52.9,30.32,NNE,19,0.0,0.0,91,0.00,,,0.00,0.00,VWS V14.01,2013-01-09 00:05:00,
2013-01-08 19:06:00,55.3,52.8,30.32,NNE,19,0.0,0.0,91,0.00,,,0.00,0.00,VWS V14.01,2013-01-09 00:06:00,
2013-01-08 19:07:00,55.3,52.8,30.32,NNE,19,0.0,0.0,91,0.00,,,0.00,0.00,VWS V14.01,2013-01-09 00:07:00,
2013-01-08 19:08:00,55.3,52.8,30.32,NNE,19,0.0,0.0,91,0.00,,,0.00,0.00,VWS V14.01,2013-01-09 00:08:00,
2013-01-08 19:09:00,55.3,52.8,30.32,NNE,19,0.0,0.0,91,0.00,,,0.00,0.00,VWS V14.01,2013-01-09 00:09:00,
2013-01-08 19:10:00,55.2,52.7,30.32,NNE,19,0.0,0.0,91,0.00,,,0.00,0.00,VWS V14.01,2013-01-09 00:10:00,
2013-01-08 19:11:00,55.2,52.7,30.32,NNE,19,0.0,0.0,91,0.00,,,0.00,0.00,VWS V14.01,2013-01-09 00:11:00,
2013-01-08 19:12:00,55.2,53.0,30.32,NNE,19,0.0,0.0,92,0.00,,,0.00,0.00,VWS V14.01,2013-01-09 00:12:00,
2013-01-08 19:13:00,55.2,53.0,30.32,NNE,19,0.0,0.0,92,0.00,,,0.00,0.00,VWS V14.01,2013-01-09 00:13:00,
2013-01-08 19:14:00,55.3,53.1,30.32,NNE,19,0.0,0.0,92,0.00,,,0.00,0.00,VWS V14.01,2013-01-09 00:14:00,
2013-01-08 19:15:00,55.3,53.1,30.32,NNE,25,0.0,0.0,92,0.00,,,0.00,0.00,VWS V14.01,2013-01-09 00:15:00,
2013-01-08 19:16:00,55.5,53.2,30.32,NNE,25,0.0,0.0,92,0.00,,,0.00,0.00,VWS V14.01,2013-01-09 00:16:00,
2013-01-08 19:17:00,55.5,53.2,30.32,NNE,25,0.0,1.1,92,0.00,,,0.00,0.00,VWS V14.01,2013-01-09 00:17:00,
2013-01-08 19:18:00,55.5,53.2,30.33,NNE,25,0.0,0.0,92,0.00,,,0.00,0.00,VWS V14.01,2013-01-09 00:18:00,
2013-01-08 19:19:00,55.3,53.1,30.32,NNE,25,0.0,0.0,92,0.00,,,0.00,0.00,VWS V14.01,2013-01-09 00:19:00,
2013-01-08 19:20:00,55.3,53.1,30.33,NNE,25,0.0,1.1,92,0.00,,,0.00,0.00,VWS V14.01,2013-01-09 00:20:00,
2013-01-08 19:21:00,55.2,53.0,30.33,NNE,25,0.0,0.0,92,0.00,,,0.00,0.00,VWS V14.01,2013-01-09 00:21:00,
2013-01-08 19:22:00,55.2,52.9,30.33,NNE,25,0.0,0.0,92,0.00,,,0.00,0.00,VWS V14.01,2013-01-09 00:22:00,
2013-01-08 19:23:00,55.0,52.8,30.33,NNE,25,0.0,0.0,92,0.00,,,0.00,0.00,VWS V14.01,2013-01-09 00:23:00,
2013-01-08 19:24:00,55.0,52.8,30.33,NNE,25,0.0,0.0,92,0.00,,,0.00,0.00,VWS V14.01,2013-01-09 00:24:00,
2013-01-08 19:25:00,55.0,52.8,30.33,NNE,25,0.0,0.0,92,0.00,,,0.00,0.00,VWS V14.01,2013-01-09 00:25:00,
2013-01-08 19:26:00,55.0,53.1,30.33,NNE,25,0.0,1.1,93,0.00,,,0.00,0.00,VWS V14.01,2013-01-09 00:26:00,
2013-01-08 19:27:00,55.0,53.1,30.33,NNE,25,0.0,0.0,93,0.00,,,0.00,0.00,VWS V14.01,2013-01-09 00:27:00,
2013-01-08 19:28:00,55.0,53.1,30.33,NNE,25,0.0,0.0,93,0.00,,,0.00,0.00,VWS V14.01,2013-01-09 00:28:00,
2013-01-08 19:29:00,55.0,53.1,30.33,NNE,25,0.0,0.0,93,0.00,,,0.00,0.00,VWS V14.01,2013-01-09 00:29:00,
2013-01-08 19:30:00,55.0,53.1,30.33,NNE,25,0.0,0.0,93,0.00,,,0.00,0.00,VWS V14.01,2013-01-09 00:30:00,
2013-01-08 19:31:00,55.0,53.1,30.33,NNE,25,0.0,0.0,93,0.00,,,0.00,0.00,VWS V14.01,2013-01-09 00:31:00,
2013-01-08 19:32:00,55.0,53.0,30.33,NNE,25,0.0,0.0,93,0.00,,,0.00,0.00,VWS V14.01,2013-01-09 00:32:00,
2013-01-08 19:33:00,54.8,52.9,30.33,NNE,25,0.0,0.0,93,0.00,,,0.00,0.00,VWS V14.01,2013-01-09 00:33:00,
2013-01-08 19:34:00,54.8,52.8,30.33,NNE,25,0.0,0.0,93,0.00,,,0.00,0.00,VWS V14.01,2013-01-09 00:34:00,
2013-01-08 19:35:00,54.8,52.8,30.33,NNE,25,0.0,0.0,93,0.00,,,0.00,0.00,VWS V14.01,2013-01-09 00:35:00,
2013-01-08 19:36:00,54.7,52.7,30.33,NNE,25,0.0,0.0,93,0.00,,,0.00,0.00,VWS V14.01,2013-01-09 00:36:00,
2013-01-08 19:37:00,54.7,52.7,30.34,NNE,25,0.0,0.0,93,0.00,,,0.00,0.00,VWS V14.01,2013-01-09 00:37:00,
2013-01-08 19:38:00,54.7,52.7,30.34,NNE,25,0.0,0.0,93,0.00,,,0.00,0.00,VWS V14.01,2013-01-09 00:38:00,
2013-01-08 19:39:00,54.5,52.6,30.34,NNE,25,0.0,0.0,93,0.00,,,0.00,0.00,VWS V14.01,2013-01-09 00:39:00,
2013-01-08 19:40:00,54.5,52.6,30.34,NNE,25,0.0,0.0,93,0.00,,,0.00,0.00,VWS V14.01,2013-01-09 00:40:00,
2013-01-08 19:41:00,54.5,52.5,30.34,NNE,25,0.0,0.0,93,0.00,,,0.00,0.00,VWS V14.01,2013-01-09 00:41:00,
2013-01-08 19:42:00,54.3,52.4,30.34,NNE,25,0.0,0.0,93,0.00,,,0.00,0.00,VWS V14.01,2013-01-09 00:42:00,
2013-01-08 19:43:00,54.3,52.7,30.34,NNE,25,0.0,0.0,94,0.00,,,0.00,0.00,VWS V14.01,2013-01-09 00:43:00,
2013-01-08 19:44:00,54.2,52.6,30.34,NNE,25,0.0,0.0,94,0.00,,,0.00,0.00,VWS V14.01,2013-01-09 00:44:00,
2013-01-08 19:45:00,54.2,52.6,30.34,NNE,25,0.0,0.0,94,0.00,,,0.00,0.00,VWS V14.01,2013-01-09 00:45:00,
2013-01-08 19:46:00,54.2,52.6,30.34,NNE,25,0.0,0.0,94,0.00,,,0.00,0.00,VWS V14.01,2013-01-09 00:46:00,
2013-01-08 19:47:00,54.2,52.6,30.34,NNE,25,0.0,0.0,94,0.00,,,0.00,0.00,VWS V14.01,2013-01-09 00:47:00,
2013-01-08 19:48:00,54.3,52.7,30.33,NNE,26,0.0,0.0,94,0.00,,,0.00,0.00,VWS V14.01,2013-01-09 00:48:00,
2013-01-08 19:49:00,54.3,52.7,30.33,NNE,26,0.0,0.0,94,0.00,,,0.00,0.00,VWS V14.01,2013-01-09 00:49:00,
2013-01-08 19:50:00,54.3,52.7,30.33,NNE,26,0.0,0.0,94,0.00,,,0.00,0.00,VWS V14.01,2013-01-09 00:50:00,
2013-01-08 19:51:00,54.3,52.7,30.33,NNE,26,0.0,0.0,94,0.00,,,0.00,0.00,VWS V14.01,2013-01-09 00:51:00,
2013-01-08 19:52:00,54.3,52.7,30.33,NNE,26,0.0,0.0,94,0.00,,,0.00,0.00,VWS V14.01,2013-01-09 00:52:00,
2013-01-08 19:53:00,54.3,52.7,30.33,NNE,26,0.0,0.0,94,0.00,,,0.00,0.00,VWS V14.01,2013-01-09 00:53:00,
2013-01-08 19:54:00,54.3,52.7,30.33,NNE,26,0.0,0.0,94,0.00,,,0.00,0.00,VWS V14.01,2013-01-09 00:54:00,
2013-01-08 19:55:00,54.2,52.6,30.33,NNE,26,0.0,0.0,94,0.00,,,0.00,0.00,VWS V14.01,2013-01-09 00:55:00,
2013-01-08 19:56:00,54.2,52.6,30.33,NNE,26,0.0,0.0,94,0.00,,,0.00,0.00,VWS V14.01,2013-01-09 00:56:00,
2013-01-08 19:57:00,54.2,52.6,30.33,NNE,26,0.0,0.0,94,0.00,,,0.00,0.00,VWS V14.01,2013-01-09 00:57:00,
2013-01-08 19:58:00,54.2,52.6,30.33,NNE,26,0.0,0.0,94,0.00,,,0.00,0.00,VWS V14.01,2013-01-09 00:58:00,
2013-01-08 19:59:00,54.2,52.6,30.33,NNE,26,0.0,0.0,94,0.00,,,0.00,0.00,VWS V14.01,2013-01-09 00:59:00,
2013-01-08 20:00:00,54.2,52.5,30.33,NNE,26,0.0,0.0,94,0.00,,,0.00,0.00,VWS V14.01,2013-01-09 01:00:00,
2013-01-08 20:01:00,54.0,52.4,30.33,NNE,26,0.0,0.0,94,0.00,,,0.00,0.00,VWS V14.01,2013-01-09 01:01:00,
2013-01-08 20:02:00,54.0,52.4,30.33,NNE,26,0.0,0.0,94,0.00,,,0.00,0.00,VWS V14.01,2013-01-09 01:02:00,
2013-01-08 20:03:00,54.0,52.4,30.33,NNE,26,0.0,0.0,94,0.00,,,0.00,0.00,VWS V14.01,2013-01-09 01:03:00,
2013-01-08 20:04:00,54.0,52.4,30.33,NNE,26,0.0,0.0,94,0.00,,,0.00,0.00,VWS V14.01,2013-01-09 01:04:00,
2013-01-08 20:06:00,53.8,52.2,30.33,NNE,26,0.0,0.0,94,0.00,,,0.00,0.00,VWS V14.01,2013-01-09 01:06:00,
2013-01-08 20:07:00,53.8,52.2,30.33,NNE,26,0.0,0.0,94,0.00,,,0.00,0.00,VWS V14.01,2013-01-09 01:07:00,
2013-01-08 20:08:00,53.8,52.1,30.33,NNE,26,0.0,0.0,94,0.00,,,0.00,0.00,VWS V14.01,2013-01-09 01:08:00,
2013-01-08 20:09:00,53.8,52.1,30.33,NNE,26,0.0,0.0,94,0.00,,,0.00,0.00,VWS V14.01,2013-01-09 01:09:00,
2013-01-08 20:10:00,53.8,52.1,30.33,NNE,26,0.0,0.0,94,0.00,,,0.00,0.00,VWS V14.01,2013-01-09 01:10:00,
2013-01-08 20:11:00,53.8,52.1,30.33,NNE,26,0.0,0.0,94,0.00,,,0.00,0.00,VWS V14.01,2013-01-09 01:11:00,
2013-01-08 20:12:00,53.8,52.2,30.33,NNE,26,0.0,0.0,94,0.00,,,0.00,0.00,VWS V14.01,2013-01-09 01:12:00,
2013-01-08 20:13:00,53.8,52.2,30.33,NNE,26,0.0,0.0,94,0.00,,,0.00,0.00,VWS V14.01,2013-01-09 01:13:00,
2013-01-08 20:14:00,53.8,52.2,30.33,NNE,26,0.0,0.0,94,0.00,,,0.00,0.00,VWS V14.01,2013-01-09 01:14:00,
2013-01-08 20:15:00,53.8,52.2,30.33,NNE,26,0.0,0.0,94,0.00,,,0.00,0.00,VWS V14.01,2013-01-09 01:15:00,
2013-01-08 20:16:00,53.8,52.1,30.33,NNE,26,0.0,0.0,94,0.00,,,0.00,0.00,VWS V14.01,2013-01-09 01:16:00,
2013-01-08 20:17:00,53.8,52.1,30.33,NNE,26,0.0,0.0,94,0.00,,,0.00,0.00,VWS V14.01,2013-01-09 01:17:00,
2013-01-08 20:18:00,53.7,52.0,30.33,NNE,26,0.0,0.0,94,0.00,,,0.00,0.00,VWS V14.01,2013-01-09 01:18:00,
2013-01-08 20:19:00,53.5,51.9,30.33,NNE,26,0.0,0.0,94,0.00,,,0.00,0.00,VWS V14.01,2013-01-09 01:19:00,
2013-01-08 20:20:00,53.5,51.9,30.33,NNE,26,0.0,0.0,94,0.00,,,0.00,0.00,VWS V14.01,2013-01-09 01:20:00,
2013-01-08 20:21:00,53.5,51.9,30.33,NNE,26,0.0,0.0,94,0.00,,,0.00,0.00,VWS V14.01,2013-01-09 01:21:00,
2013-01-08 20:22:00,53.5,51.9,30.33,NNE,26,0.0,0.0,94,0.00,,,0.00,0.00,VWS V14.01,2013-01-09 01:22:00,
2013-01-08 20:23:00,53.5,51.9,30.33,NNE,26,0.0,0.0,94,0.00,,,0.00,0.00,VWS V14.01,2013-01-09 01:23:00,
2013-01-08 20:24:00,53.5,51.9,30.33,NNE,26,0.0,0.0,94,0.00,,,0.00,0.00,VWS V14.01,2013-01-09 01:24:00,
2013-01-08 20:25:00,53.5,51.9,30.33,NNE,26,0.0,0.0,94,0.00,,,0.00,0.00,VWS V14.01,2013-01-09 01:25:00,
2013-01-08 20:26:00,53.5,51.9,30.33,NNE,26,0.0,0.0,94,0.00,,,0.00,0.00,VWS V14.01,2013-01-09 01:26:00,
2013-01-08 20:27:00,53.5,51.8,30.33,NNE,26,0.0,0.0,94,0.00,,,0.00,0.00,VWS V14.01,2013-01-09 01:27:00,
2013-01-08 20:28:00,53.3,51.7,30.33,NNE,26,0.0,0.0,94,0.00,,,0.00,0.00,VWS V14.01,2013-01-09 01:28:00,
2013-01-08 20:29:00,53.3,51.7,30.33,NNE,26,0.0,0.0,94,0.00,,,0.00,0.00,VWS V14.01,2013-01-09 01:29:00,
2013-01-08 20:30:00,53.3,51.7,30.33,NNE,26,0.0,0.0,94,0.00,,,0.00,0.00,VWS V14.01,2013-01-09 01:30:00,
2013-01-08 20:31:00,53.2,51.6,30.33,NNE,26,0.0,0.0,94,0.00,,,0.00,0.00,VWS V14.01,2013-01-09 01:31:00,
2013-01-08 20:32:00,53.2,51.6,30.33,NNE,26,0.0,0.0,94,0.00,,,0.00,0.00,VWS V14.01,2013-01-09 01:32:00,
2013-01-08 20:33:00,53.2,51.6,30.33,NNE,27,0.0,0.0,94,0.00,,,0.00,0.00,VWS V14.01,2013-01-09 01:33:00,
2013-01-08 20:34:00,53.2,51.6,30.33,NNE,27,0.0,0.0,94,0.00,,,0.00,0.00,VWS V14.01,2013-01-09 01:34:00,
2013-01-08 20:35:00,53.2,51.6,30.33,NNE,27,0.0,0.0,94,0.00,,,0.00,0.00,VWS V14.01,2013-01-09 01:35:00,
2013-01-08 20:36:00,53.2,51.6,30.33,NNE,27,0.0,0.0,94,0.00,,,0.00,0.00,VWS V14.01,2013-01-09 01:36:00,
2013-01-08 20:37:00,53.2,51.5,30.33,NNE,27,0.0,0.0,94,0.00,,,0.00,0.00,VWS V14.01,2013-01-09 01:37:00,
2013-01-08 20:38:00,53.2,51.5,30.33,NNE,27,0.0,0.0,94,0.00,,,0.00,0.00,VWS V14.01,2013-01-09 01:38:00,
2013-01-08 20:39:00,53.2,51.5,30.33,NNE,27,0.0,0.0,94,0.00,,,0.00,0.00,VWS V14.01,2013-01-09 01:39:00,
2013-01-08 20:40:00,53.2,51.8,30.33,NNE,27,0.0,0.0,95,0.00,,,0.00,0.00,VWS V14.01,2013-01-09 01:40:00,
2013-01-08 20:41:00,53.0,51.4,30.33,NNE,27,0.0,0.0,94,0.00,,,0.00,0.00,VWS V14.01,2013-01-09 01:41:00,
2013-01-08 20:42:00,53.0,51.3,30.33,NNE,27,0.0,0.0,94,0.00,,,0.00,0.00,VWS V14.01,2013-01-09 01:42:00,
2013-01-08 20:43:00,53.0,51.3,30.33,NNE,27,0.0,0.0,94,0.00,,,0.00,0.00,VWS V14.01,2013-01-09 01:43:00,
2013-01-08 20:44:00,53.0,51.3,30.33,NNE,27,0.0,0.0,94,0.00,,,0.00,0.00,VWS V14.01,2013-01-09 01:44:00,
2013-01-08 20:45:00,52.8,51.2,30.33,NNE,27,0.0,0.0,94,0.00,,,0.00,0.00,VWS V14.01,2013-01-09 01:45:00,
2013-01-08 20:46:00,52.8,51.2,30.33,NNE,27,0.0,0.0,94,0.00,,,0.00,0.00,VWS V14.01,2013-01-09 01:46:00,
2013-01-08 20:47:00,52.8,51.5,30.33,NNE,27,0.0,0.0,95,0.00,,,0.00,0.00,VWS V14.01,2013-01-09 01:47:00,
2013-01-08 20:48:00,52.8,51.5,30.33,NNE,27,0.0,0.0,95,0.00,,,0.00,0.00,VWS V14.01,2013-01-09 01:48:00,
2013-01-08 20:49:00,52.8,51.5,30.33,NNE,27,0.0,0.0,95,0.00,,,0.00,0.00,VWS V14.01,2013-01-09 01:49:00,
2013-01-08 20:50:00,52.8,51.5,30.33,NNE,27,0.0,0.0,95,0.00,,,0.00,0.00,VWS V14.01,2013-01-09 01:50:00,
2013-01-08 20:51:00,52.8,51.5,30.33,NNE,27,0.0,0.0,95,0.00,,,0.00,0.00,VWS V14.01,2013-01-09 01:51:00,
2013-01-08 20:52:00,52.8,51.5,30.33,NNE,27,0.0,0.0,95,0.00,,,0.00,0.00,VWS V14.01,2013-01-09 01:52:00,
2013-01-08 20:53:00,52.8,51.5,30.33,NNE,27,0.0,0.0,95,0.00,,,0.00,0.00,VWS V14.01,2013-01-09 01:53:00,
2013-01-08 20:54:00,52.8,51.5,30.33,NNE,27,0.0,0.0,95,0.00,,,0.00,0.00,VWS V14.01,2013-01-09 01:54:00,
2013-01-08 20:55:00,52.8,51.4,30.34,NNE,27,0.0,0.0,95,0.00,,,0.00,0.00,VWS V14.01,2013-01-09 01:55:00,
2013-01-08 20:56:00,52.8,51.4,30.34,NNE,27,0.0,0.0,95,0.00,,,0.00,0.00,VWS V14.01,2013-01-09 01:56:00,
2013-01-08 20:57:00,52.7,51.3,30.34,NNE,27,0.0,0.0,95,0.00,,,0.00,0.00,VWS V14.01,2013-01-09 01:57:00,
2013-01-08 20:58:00,52.7,51.3,30.34,NNE,27,0.0,0.0,95,0.00,,,0.00,0.00,VWS V14.01,2013-01-09 01:58:00,
2013-01-08 20:59:00,52.5,51.2,30.34,NNE,27,0.0,0.0,95,0.00,,,0.00,0.00,VWS V14.01,2013-01-09 01:59:00,
2013-01-08 21:00:00,52.5,51.1,30.33,NNE,27,0.0,0.0,95,0.00,,,0.00,0.00,VWS V14.01,2013-01-09 02:00:00,
2013-01-08 21:01:00,52.5,51.1,30.34,NNE,27,0.0,0.0,95,0.00,,,0.00,0.00,VWS V14.01,2013-01-09 02:01:00,
2013-01-08 21:02:00,52.3,51.0,30.34,NNE,27,0.0,0.0,95,0.00,,,0.00,0.00,VWS V14.01,2013-01-09 02:02:00,
2013-01-08 21:03:00,52.3,51.0,30.33,NNE,27,0.0,0.0,95,0.00,,,0.00,0.00,VWS V14.01,2013-01-09 02:03:00,
2013-01-08 21:04:00,52.3,51.0,30.33,NNE,27,0.0,0.0,95,0.00,,,0.00,0.00,VWS V14.01,2013-01-09 02:04:00,
2013-01-08 21:05:00,52.3,51.0,30.33,NNE,27,0.0,0.0,95,0.00,,,0.00,0.00,VWS V14.01,2013-01-09 02:05:00,
2013-01-08 21:06:00,52.3,51.0,30.33,NNE,27,0.0,0.0,95,0.00,,,0.00,0.00,VWS V14.01,2013-01-09 02:06:00,
2013-01-08 21:07:00,52.2,50.9,30.33,NNE,27,0.0,0.0,95,0.00,,,0.00,0.00,VWS V14.01,2013-01-09 02:07:00,
2013-01-08 21:08:00,52.2,50.9,30.33,NNE,27,0.0,1.1,95,0.00,,,0.00,0.00,VWS V14.01,2013-01-09 02:08:00,
2013-01-08 21:09:00,52.2,50.9,30.33,NNE,27,0.0,0.0,95,0.00,,,0.00,0.00,VWS V14.01,2013-01-09 02:09:00,
2013-01-08 21:10:00,52.2,50.8,30.33,NNE,27,0.0,0.0,95,0.00,,,0.00,0.00,VWS V14.01,2013-01-09 02:10:00,
2013-01-08 21:11:00,52.2,50.8,30.33,NNE,27,0.0,0.0,95,0.00,,,0.00,0.00,VWS V14.01,2013-01-09 02:11:00,
2013-01-08 21:12:00,52.0,50.7,30.33,NNE,27,0.0,0.0,95,0.00,,,0.00,0.00,VWS V14.01,2013-01-09 02:12:00,
2013-01-08 21:13:00,52.0,50.6,30.33,NNE,27,0.0,0.0,95,0.00,,,0.00,0.00,VWS V14.01,2013-01-09 02:13:00,
2013-01-08 21:14:00,52.0,50.6,30.33,NNE,27,0.0,0.0,95,0.00,,,0.00,0.00,VWS V14.01,2013-01-09 02:14:00,
2013-01-08 21:15:00,51.8,50.5,30.33,NNE,27,0.0,0.0,95,0.00,,,0.00,0.00,VWS V14.01,2013-01-09 02:15:00,
2013-01-08 21:16:00,51.8,50.5,30.33,NNE,27,0.0,0.0,95,0.00,,,0.00,0.00,VWS V14.01,2013-01-09 02:16:00,
2013-01-08 21:17:00,51.8,50.5,30.34,NNE,27,0.0,0.0,95,0.00,,,0.00,0.00,VWS V14.01,2013-01-09 02:17:00,
2013-01-08 21:18:00,51.8,50.5,30.33,NNE,27,0.0,0.0,95,0.00,,,0.00,0.00,VWS V14.01,2013-01-09 02:18:00,
2013-01-08 21:19:00,51.8,50.5,30.34,NNE,27,0.0,0.0,95,0.00,,,0.00,0.00,VWS V14.01,2013-01-09 02:19:00,
2013-01-08 21:20:00,51.8,50.4,30.34,NNE,27,0.0,0.0,95,0.00,,,0.00,0.00,VWS V14.01,2013-01-09 02:20:00,
2013-01-08 21:21:00,51.8,50.4,30.34,NNE,27,0.0,1.1,95,0.00,,,0.00,0.00,VWS V14.01,2013-01-09 02:21:00,
2013-01-08 21:22:00,51.8,50.4,30.34,NNE,27,0.0,0.0,95,0.00,,,0.00,0.00,VWS V14.01,2013-01-09 02:22:00,
2013-01-08 21:23:00,51.8,50.4,30.34,NNE,27,0.0,0.0,95,0.00,,,0.00,0.00,VWS V14.01,2013-01-09 02:23:00,
2013-01-08 21:24:00,51.8,50.4,30.34,NNE,27,0.0,0.0,95,0.00,,,0.00,0.00,VWS V14.01,2013-01-09 02:24:00,
2013-01-08 21:25:00,51.8,50.4,30.34,NNE,27,0.0,0.0,95,0.00,,,0.00,0.00,VWS V14.01,2013-01-09 02:25:00,
2013-01-08 21:26:00,51.7,50.3,30.34,NNE,27,0.0,0.0,95,0.00,,,0.00,0.00,VWS V14.01,2013-01-09 02:26:00,
2013-01-08 21:27:00,51.7,50.3,30.34,NNE,27,0.0,0.0,95,0.00,,,0.00,0.00,VWS V14.01,2013-01-09 02:27:00,
2013-01-08 21:28:00,51.5,50.2,30.34,NNE,27,0.0,0.0,95,0.00,,,0.00,0.00,VWS V14.01,2013-01-09 02:28:00,
2013-01-08 21:29:00,51.5,50.2,30.34,NNE,27,0.0,0.0,95,0.00,,,0.00,0.00,VWS V14.01,2013-01-09 02:29:00,
2013-01-08 21:30:00,51.5,50.1,30.34,NNE,27,0.0,0.0,95,0.00,,,0.00,0.00,VWS V14.01,2013-01-09 02:30:00,
2013-01-08 21:31:00,51.3,50.0,30.34,NNE,27,0.0,0.0,95,0.00,,,0.00,0.00,VWS V14.01,2013-01-09 02:31:00,
2013-01-08 21:32:00,51.3,50.0,30.34,NNE,27,0.0,0.0,95,0.00,,,0.00,0.00,VWS V14.01,2013-01-09 02:32:00,
2013-01-08 21:33:00,51.2,49.9,30.34,NNE,27,0.0,0.0,95,0.00,,,0.00,0.00,VWS V14.01,2013-01-09 02:33:00,
2013-01-08 21:34:00,51.3,50.0,30.34,NNE,27,0.0,1.1,95,0.00,,,0.00,0.00,VWS V14.01,2013-01-09 02:34:00,
2013-01-08 21:35:00,51.3,50.0,30.34,NNE,27,0.0,1.1,95,0.00,,,0.00,0.00,VWS V14.01,2013-01-09 02:35:00,
2013-01-08 21:36:00,51.3,50.2,30.34,NNE,27,0.0,1.1,96,0.00,,,0.00,0.00,VWS V14.01,2013-01-09 02:36:00,
2013-01-08 21:37:00,51.2,50.2,30.34,NNE,27,0.0,0.0,96,0.00,,,0.00,0.00,VWS V14.01,2013-01-09 02:37:00,
2013-01-08 21:38:00,51.2,50.0,30.34,NNE,27,0.0,0.0,96,0.00,,,0.00,0.00,VWS V14.01,2013-01-09 02:38:00,
2013-01-08 21:39:00,51.2,50.0,30.34,NNE,27,0.0,0.0,96,0.00,,,0.00,0.00,VWS V14.01,2013-01-09 02:39:00,
2013-01-08 21:40:00,51.2,50.0,30.34,NNE,27,0.0,0.0,96,0.00,,,0.00,0.00,VWS V14.01,2013-01-09 02:40:00,
2013-01-08 21:41:00,51.0,50.0,30.34,NNE,27,0.0,0.0,96,0.00,,,0.00,0.00,VWS V14.01,2013-01-09 02:41:00,
2013-01-08 21:42:00,51.0,50.0,30.34,NNE,27,0.0,1.1,96,0.00,,,0.00,0.00,VWS V14.01,2013-01-09 02:42:00,
2013-01-08 21:43:00,51.0,49.7,30.34,NNE,25,0.0,2.2,95,0.00,,,0.00,0.00,VWS V14.01,2013-01-09 02:43:00,
2013-01-08 21:44:00,51.0,49.6,30.34,NNE,25,0.0,0.0,95,0.00,,,0.00,0.00,VWS V14.01,2013-01-09 02:44:00,
2013-01-08 21:45:00,51.0,49.6,30.34,NNE,25,0.0,0.0,95,0.00,,,0.00,0.00,VWS V14.01,2013-01-09 02:45:00,
2013-01-08 21:46:00,51.0,50.0,30.34,NNE,25,0.0,0.0,96,0.00,,,0.00,0.00,VWS V14.01,2013-01-09 02:46:00,
2013-01-08 21:47:00,51.0,50.0,30.34,NNE,25,0.0,0.0,96,0.00,,,0.00,0.00,VWS V14.01,2013-01-09 02:47:00,
2013-01-08 21:48:00,51.0,50.0,30.34,NNE,25,0.0,0.0,96,0.00,,,0.00,0.00,VWS V14.01,2013-01-09 02:48:00,
2013-01-08 21:49:00,51.0,50.0,30.34,NNE,25,0.0,0.0,96,0.00,,,0.00,0.00,VWS V14.01,2013-01-09 02:49:00,
2013-01-08 21:50:00,51.0,50.0,30.34,NNE,25,0.0,0.0,96,0.00,,,0.00,0.00,VWS V14.01,2013-01-09 02:50:00,
2013-01-08 21:51:00,51.0,50.0,30.34,NNE,25,0.0,0.0,96,0.00,,,0.00,0.00,VWS V14.01,2013-01-09 02:51:00,
2013-01-08 21:52:00,51.0,49.8,30.34,NNE,25,0.0,0.0,96,0.00,,,0.00,0.00,VWS V14.01,2013-01-09 02:52:00,
2013-01-08 21:53:00,51.0,49.8,30.34,NNE,25,0.0,0.0,96,0.00,,,0.00,0.00,VWS V14.01,2013-01-09 02:53:00,
2013-01-08 21:54:00,51.0,49.8,30.34,NNE,25,0.0,0.0,96,0.00,,,0.00,0.00,VWS V14.01,2013-01-09 02:54:00,
2013-01-08 21:55:00,50.8,49.8,30.34,NNE,25,0.0,0.0,96,0.00,,,0.00,0.00,VWS V14.01,2013-01-09 02:55:00,
2013-01-08 21:56:00,50.8,49.8,30.34,NNE,25,0.0,0.0,96,0.00,,,0.00,0.00,VWS V14.01,2013-01-09 02:56:00,
2013-01-08 21:57:00,50.8,49.8,30.34,NNE,25,0.0,0.0,96,0.00,,,0.00,0.00,VWS V14.01,2013-01-09 02:57:00,
2013-01-08 21:58:00,50.8,49.8,30.34,NNE,25,0.0,0.0,96,0.00,,,0.00,0.00,VWS V14.01,2013-01-09 02:58:00,
2013-01-08 21:59:00,50.8,49.7,30.34,NNE,25,0.0,0.0,96,0.00,,,0.00,0.00,VWS V14.01,2013-01-09 02:59:00,
2013-01-08 22:00:00,50.8,49.7,30.34,NNE,25,0.0,0.0,96,0.00,,,0.00,0.00,VWS V14.01,2013-01-09 03:00:00,
2013-01-08 22:01:00,50.7,49.6,30.34,NNE,25,0.0,0.0,96,0.00,,,0.00,0.00,VWS V14.01,2013-01-09 03:01:00,
2013-01-08 22:02:00,50.7,49.6,30.34,NNE,25,0.0,0.0,96,0.00,,,0.00,0.00,VWS V14.01,2013-01-09 03:02:00,
2013-01-08 22:03:00,50.5,49.5,30.34,NNE,25,0.0,0.0,96,0.00,,,0.00,0.00,VWS V14.01,2013-01-09 03:03:00,
2013-01-08 22:04:00,50.5,49.3,30.34,NNE,25,0.0,0.0,96,0.00,,,0.00,0.00,VWS V14.01,2013-01-09 03:04:00,
2013-01-08 22:05:00,50.5,49.3,30.34,NNE,25,0.0,0.0,96,0.00,,,0.00,0.00,VWS V14.01,2013-01-09 03:05:00,
2013-01-08 22:06:00,50.5,49.3,30.34,NNE,25,0.0,0.0,96,0.00,,,0.00,0.00,VWS V14.01,2013-01-09 03:06:00,
2013-01-08 22:07:00,50.5,49.4,30.34,NNE,25,0.0,0.0,96,0.00,,,0.00,0.00,VWS V14.01,2013-01-09 03:07:00,
2013-01-08 22:08:00,50.5,49.5,30.34,NNE,25,0.0,0.0,96,0.00,,,0.00,0.00,VWS V14.01,2013-01-09 03:08:00,
2013-01-08 22:09:00,50.5,49.5,30.34,NNE,25,1.1,1.1,96,0.00,,,0.00,0.00,VWS V14.01,2013-01-09 03:09:00,
2013-01-08 22:10:00,50.5,49.5,30.34,NNE,25,0.0,1.1,96,0.00,,,0.00,0.00,VWS V14.01,2013-01-09 03:10:00,
2013-01-08 22:11:00,50.5,49.5,30.34,NNE,25,0.0,0.0,96,0.00,,,0.00,0.00,VWS V14.01,2013-01-09 03:11:00,
2013-01-08 22:12:00,50.5,49.5,30.34,NNE,25,0.0,0.0,96,0.00,,,0.00,0.00,VWS V14.01,2013-01-09 03:12:00,
2013-01-08 22:13:00,50.5,49.5,30.34,NNE,25,0.0,0.0,96,0.00,,,0.00,0.00,VWS V14.01,2013-01-09 03:13:00,
2013-01-08 22:14:00,50.5,49.3,30.34,NNE,25,0.0,0.0,96,0.00,,,0.00,0.00,VWS V14.01,2013-01-09 03:14:00,
2013-01-08 22:15:00,50.3,49.3,30.34,NNE,25,1.1,1.1,96,0.00,,,0.00,0.00,VWS V14.01,2013-01-09 03:15:00,
2013-01-08 22:16:00,50.3,49.3,30.34,NNE,25,0.0,1.1,96,0.00,,,0.00,0.00,VWS V14.01,2013-01-09 03:16:00,
2013-01-08 22:17:00,50.3,49.3,30.34,NNE,25,0.0,0.0,96,0.00,,,0.00,0.00,VWS V14.01,2013-01-09 03:17:00,
2013-01-08 22:18:00,50.3,49.3,30.34,NNE,25,0.0,0.0,96,0.00,,,0.00,0.00,VWS V14.01,2013-01-09 03:18:00,
2013-01-08 22:19:00,50.3,49.3,30.34,NNE,25,0.0,0.0,96,0.00,,,0.00,0.00,VWS V14.01,2013-01-09 03:19:00,
2013-01-08 22:20:00,50.3,49.3,30.34,NNE,25,0.0,0.0,96,0.00,,,0.00,0.00,VWS V14.01,2013-01-09 03:20:00,
2013-01-08 22:21:00,50.3,49.3,30.34,NNE,25,0.0,0.0,96,0.00,,,0.00,0.00,VWS V14.01,2013-01-09 03:21:00,
2013-01-08 22:22:00,50.2,49.2,30.34,NNE,25,0.0,0.0,96,0.00,,,0.00,0.00,VWS V14.01,2013-01-09 03:22:00,
2013-01-08 22:23:00,50.2,49.2,30.34,NNE,25,0.0,0.0,96,0.00,,,0.00,0.00,VWS V14.01,2013-01-09 03:23:00,
2013-01-08 22:24:00,50.2,49.2,30.34,NNE,25,0.0,0.0,96,0.00,,,0.00,0.00,VWS V14.01,2013-01-09 03:24:00,
2013-01-08 22:25:00,50.2,49.2,30.34,NNE,25,0.0,1.1,96,0.00,,,0.00,0.00,VWS V14.01,2013-01-09 03:25:00,
2013-01-08 22:26:00,50.2,49.1,30.34,NNE,25,0.0,0.0,96,0.00,,,0.00,0.00,VWS V14.01,2013-01-09 03:26:00,
2013-01-08 22:27:00,50.2,49.1,30.34,NNE,25,0.0,1.1,96,0.00,,,0.00,0.00,VWS V14.01,2013-01-09 03:27:00,
2013-01-08 22:28:00,50.2,49.1,30.34,NNE,25,1.1,1.1,96,0.00,,,0.00,0.00,VWS V14.01,2013-01-09 03:28:00,
2013-01-08 22:29:00,50.2,49.1,30.34,NNE,25,0.0,1.1,96,0.00,,,0.00,0.00,VWS V14.01,2013-01-09 03:29:00,
2013-01-08 22:30:00,50.2,49.2,30.34,NNE,25,0.0,0.0,96,0.00,,,0.00,0.00,VWS V14.01,2013-01-09 03:30:00,
2013-01-08 22:31:00,50.3,49.3,30.34,NNE,25,0.0,0.0,96,0.00,,,0.00,0.00,VWS V14.01,2013-01-09 03:31:00,
2013-01-08 22:32:00,50.5,49.4,30.34,NNE,25,0.0,0.0,96,0.00,,,0.00,0.00,VWS V14.01,2013-01-09 03:32:00,
2013-01-08 22:33:00,50.5,49.3,30.34,NNE,25,0.0,0.0,96,0.00,,,0.00,0.00,VWS V14.01,2013-01-09 03:33:00,
2013-01-08 22:34:00,50.5,49.3,30.34,NNE,25,0.0,0.0,96,0.00,,,0.00,0.00,VWS V14.01,2013-01-09 03:34:00,
2013-01-08 22:35:00,50.5,49.3,30.34,NNE,25,0.0,0.0,96,0.00,,,0.00,0.00,VWS V14.01,2013-01-09 03:35:00,
2013-01-08 22:36:00,50.5,49.3,30.34,NNE,25,1.1,1.1,96,0.00,,,0.00,0.00,VWS V14.01,2013-01-09 03:36:00,
2013-01-08 22:37:00,50.3,49.3,30.34,NNE,25,0.0,0.0,96,0.00,,,0.00,0.00,VWS V14.01,2013-01-09 03:37:00,
2013-01-08 22:38:00,50.3,49.3,30.34,NNE,25,0.0,0.0,96,0.00,,,0.00,0.00,VWS V14.01,2013-01-09 03:38:00,
2013-01-08 22:39:00,50.3,49.3,30.34,NNE,25,0.0,1.1,96,0.00,,,0.00,0.00,VWS V14.01,2013-01-09 03:39:00,
2013-01-08 22:40:00,50.3,49.3,30.34,NNE,25,0.0,0.0,96,0.00,,,0.00,0.00,VWS V14.01,2013-01-09 03:40:00,
2013-01-08 22:41:00,50.2,49.2,30.34,NNE,25,0.0,0.0,96,0.00,,,0.00,0.00,VWS V14.01,2013-01-09 03:41:00,
2013-01-08 22:42:00,50.2,49.2,30.34,NNE,25,0.0,0.0,96,0.00,,,0.00,0.00,VWS V14.01,2013-01-09 03:42:00,
2013-01-08 22:43:00,50.2,49.2,30.34,NNE,25,0.0,0.0,96,0.00,,,0.00,0.00,VWS V14.01,2013-01-09 03:43:00,
2013-01-08 22:44:00,50.2,49.2,30.34,NNE,25,0.0,0.0,96,0.00,,,0.00,0.00,VWS V14.01,2013-01-09 03:44:00,
2013-01-08 22:45:00,50.2,49.2,30.34,NNE,25,0.0,0.0,96,0.00,,,0.00,0.00,VWS V14.01,2013-01-09 03:45:00,
2013-01-08 22:46:00,50.2,49.1,30.34,NNE,25,0.0,0.0,96,0.00,,,0.00,0.00,VWS V14.01,2013-01-09 03:46:00,
2013-01-08 22:47:00,50.2,49.2,30.34,NNE,25,0.0,0.0,96,0.00,,,0.00,0.00,VWS V14.01,2013-01-09 03:47:00,
2013-01-08 22:48:00,50.2,49.1,30.34,NNE,25,0.0,0.0,96,0.00,,,0.00,0.00,VWS V14.01,2013-01-09 03:48:00,
2013-01-08 22:49:00,50.2,49.1,30.34,NNE,25,0.0,0.0,96,0.00,,,0.00,0.00,VWS V14.01,2013-01-09 03:49:00,
2013-01-08 22:50:00,50.2,49.1,30.34,NNE,25,0.0,0.0,96,0.00,,,0.00,0.00,VWS V14.01,2013-01-09 03:50:00,
2013-01-08 22:51:00,50.2,49.1,30.34,NNE,25,0.0,0.0,96,0.00,,,0.00,0.00,VWS V14.01,2013-01-09 03:51:00,
2013-01-08 22:52:00,50.2,49.1,30.34,NE,36,0.0,0.0,96,0.00,,,0.00,0.00,VWS V14.01,2013-01-09 03:52:00,
2013-01-08 22:53:00,50.2,49.1,30.34,NE,36,0.0,0.0,96,0.00,,,0.00,0.00,VWS V14.01,2013-01-09 03:53:00,
2013-01-08 22:54:00,50.2,49.1,30.34,NE,36,0.0,0.0,96,0.00,,,0.00,0.00,VWS V14.01,2013-01-09 03:54:00,
2013-01-08 22:55:00,50.2,49.1,30.34,NE,36,0.0,0.0,96,0.00,,,0.00,0.00,VWS V14.01,2013-01-09 03:55:00,
2013-01-08 22:56:00,50.2,49.1,30.34,NE,36,0.0,0.0,96,0.00,,,0.00,0.00,VWS V14.01,2013-01-09 03:56:00,
2013-01-08 22:57:00,50.0,49.0,30.34,NE,36,0.0,0.0,96,0.00,,,0.00,0.00,VWS V14.01,2013-01-09 03:57:00,
2013-01-08 22:58:00,50.0,49.0,30.34,NE,36,0.0,0.0,96,0.00,,,0.00,0.00,VWS V14.01,2013-01-09 03:58:00,
2013-01-08 22:59:00,50.0,49.0,30.34,NE,36,0.0,0.0,96,0.00,,,0.00,0.00,VWS V14.01,2013-01-09 03:59:00,
2013-01-08 23:00:00,50.0,49.0,30.34,NE,36,0.0,0.0,96,0.00,,,0.00,0.00,VWS V14.01,2013-01-09 04:00:00,
2013-01-08 23:01:00,50.0,49.0,30.34,NE,36,0.0,0.0,96,0.00,,,0.00,0.00,VWS V14.01,2013-01-09 04:01:00,
2013-01-08 23:02:00,50.0,49.0,30.34,NE,36,0.0,0.0,96,0.00,,,0.00,0.00,VWS V14.01,2013-01-09 04:02:00,
2013-01-08 23:03:00,50.0,49.0,30.34,NE,36,0.0,0.0,96,0.00,,,0.00,0.00,VWS V14.01,2013-01-09 04:03:00,
2013-01-08 23:04:00,50.0,48.9,30.34,NE,36,0.0,0.0,96,0.00,,,0.00,0.00,VWS V14.01,2013-01-09 04:04:00,
2013-01-08 23:05:00,50.0,48.9,30.34,NE,36,0.0,0.0,96,0.00,,,0.00,0.00,VWS V14.01,2013-01-09 04:05:00,
2013-01-08 23:06:00,50.0,48.9,30.34,NE,36,0.0,0.0,96,0.00,,,0.00,0.00,VWS V14.01,2013-01-09 04:06:00,
2013-01-08 23:07:00,50.0,48.9,30.34,NE,36,0.0,0.0,96,0.00,,,0.00,0.00,VWS V14.01,2013-01-09 04:07:00,
2013-01-08 23:08:00,50.0,48.9,30.34,NE,36,0.0,0.0,96,0.00,,,0.00,0.00,VWS V14.01,2013-01-09 04:08:00,
2013-01-08 23:09:00,50.0,48.9,30.34,NE,36,0.0,0.0,96,0.00,,,0.00,0.00,VWS V14.01,2013-01-09 04:09:00,
2013-01-08 23:10:00,50.0,48.9,30.34,NE,36,0.0,0.0,96,0.00,,,0.00,0.00,VWS V14.01,2013-01-09 04:10:00,
2013-01-08 23:11:00,49.8,48.8,30.34,NE,36,0.0,0.0,96,0.00,,,0.00,0.00,VWS V14.01,2013-01-09 04:11:00,
2013-01-08 23:12:00,49.8,48.7,30.34,NE,36,0.0,0.0,96,0.00,,,0.00,0.00,VWS V14.01,2013-01-09 04:12:00,
2013-01-08 23:13:00,49.8,48.7,30.34,NE,36,0.0,0.0,96,0.00,,,0.00,0.00,VWS V14.01,2013-01-09 04:13:00,
2013-01-08 23:14:00,49.8,48.7,30.34,NE,36,0.0,0.0,96,0.00,,,0.00,0.00,VWS V14.01,2013-01-09 04:14:00,
2013-01-08 23:15:00,49.7,48.6,30.34,NE,36,0.0,0.0,96,0.00,,,0.00,0.00,VWS V14.01,2013-01-09 04:15:00,
2013-01-08 23:16:00,49.7,48.6,30.34,NE,36,0.0,0.0,96,0.00,,,0.00,0.00,VWS V14.01,2013-01-09 04:16:00,
2013-01-08 23:17:00,49.7,48.6,30.34,NE,36,0.0,0.0,96,0.00,,,0.00,0.00,VWS V14.01,2013-01-09 04:17:00,
2013-01-08 23:18:00,49.7,48.6,30.34,NE,36,0.0,0.0,96,0.00,,,0.00,0.00,VWS V14.01,2013-01-09 04:18:00,
2013-01-08 23:19:00,49.7,48.6,30.34,NE,36,0.0,0.0,96,0.00,,,0.00,0.00,VWS V14.01,2013-01-09 04:19:00,
2013-01-08 23:20:00,49.7,48.6,30.34,NE,36,0.0,0.0,96,0.00,,,0.00,0.00,VWS V14.01,2013-01-09 04:20:00,
2013-01-08 23:21:00,49.5,48.5,30.34,NE,36,0.0,0.0,96,0.00,,,0.00,0.00,VWS V14.01,2013-01-09 04:21:00,
2013-01-08 23:22:00,49.5,48.4,30.34,NE,36,0.0,0.0,96,0.00,,,0.00,0.00,VWS V14.01,2013-01-09 04:22:00,
2013-01-08 23:23:00,49.5,48.5,30.34,NE,36,0.0,0.0,96,0.00,,,0.00,0.00,VWS V14.01,2013-01-09 04:23:00,
2013-01-08 23:24:00,49.5,48.5,30.34,NE,36,0.0,0.0,96,0.00,,,0.00,0.00,VWS V14.01,2013-01-09 04:24:00,
2013-01-08 23:25:00,49.5,48.5,30.34,NE,36,0.0,0.0,96,0.00,,,0.00,0.00,VWS V14.01,2013-01-09 04:25:00,
2013-01-08 23:26:00,49.7,48.8,30.34,NE,36,0.0,0.0,97,0.00,,,0.00,0.00,VWS V14.01,2013-01-09 04:26:00,
2013-01-08 23:27:00,49.8,48.9,30.34,NE,36,0.0,1.1,97,0.00,,,0.00,0.00,VWS V14.01,2013-01-09 04:27:00,
2013-01-08 23:28:00,49.8,48.9,30.34,NE,36,0.0,1.1,97,0.00,,,0.00,0.00,VWS V14.01,2013-01-09 04:28:00,
2013-01-08 23:29:00,49.8,48.9,30.34,NE,36,0.0,0.0,97,0.00,,,0.00,0.00,VWS V14.01,2013-01-09 04:29:00,
2013-01-08 23:30:00,49.8,48.9,30.34,NE,36,0.0,0.0,97,0.00,,,0.00,0.00,VWS V14.01,2013-01-09 04:30:00,
2013-01-08 23:31:00,49.7,48.8,30.34,NE,36,0.0,0.0,97,0.00,,,0.00,0.00,VWS V14.01,2013-01-09 04:31:00,
2013-01-08 23:32:00,49.7,48.6,30.34,NE,36,0.0,0.0,96,0.00,,,0.00,0.00,VWS V14.01,2013-01-09 04:32:00,
2013-01-08 23:33:00,49.7,48.6,30.34,NE,36,0.0,0.0,96,0.00,,,0.00,0.00,VWS V14.01,2013-01-09 04:33:00,
2013-01-08 23:34:00,49.7,48.8,30.34,NE,36,0.0,0.0,97,0.00,,,0.00,0.00,VWS V14.01,2013-01-09 04:34:00,
2013-01-08 23:35:00,49.8,48.9,30.34,North,358,0.0,1.1,97,0.00,,,0.00,0.00,VWS V14.01,2013-01-09 04:35:00,
2013-01-08 23:36:00,49.8,49.0,30.34,North,358,0.0,0.0,97,0.00,,,0.00,0.00,VWS V14.01,2013-01-09 04:36:00,
2013-01-08 23:37:00,50.0,49.1,30.34,North,358,0.0,0.0,97,0.00,,,0.00,0.00,VWS V14.01,2013-01-09 04:37:00,
2013-01-08 23:38:00,50.0,49.1,30.34,North,358,0.0,0.0,97,0.00,,,0.00,0.00,VWS V14.01,2013-01-09 04:38:00,
2013-01-08 23:39:00,50.0,49.1,30.34,North,358,0.0,0.0,97,0.00,,,0.00,0.00,VWS V14.01,2013-01-09 04:39:00,
2013-01-08 23:40:00,50.0,49.2,30.34,North,358,0.0,0.0,97,0.00,,,0.00,0.00,VWS V14.01,2013-01-09 04:40:00,
2013-01-08 23:41:00,50.0,49.2,30.34,NNE,19,0.0,0.0,97,0.00,,,0.00,0.00,VWS V14.01,2013-01-09 04:41:00,
2013-01-08 23:42:00,50.0,49.2,30.34,NNE,19,0.0,0.0,97,0.00,,,0.00,0.00,VWS V14.01,2013-01-09 04:42:00,
2013-01-08 23:43:00,50.0,49.2,30.34,NNE,19,0.0,0.0,97,0.00,,,0.00,0.00,VWS V14.01,2013-01-09 04:43:00,
2013-01-08 23:44:00,50.0,49.2,30.34,NNE,19,0.0,0.0,97,0.00,,,0.00,0.00,VWS V14.01,2013-01-09 04:44:00,
2013-01-08 23:46:00,50.2,49.3,30.34,NNE,19,0.0,0.0,97,0.00,,,0.00,0.00,VWS V14.01,2013-01-09 04:46:00,
2013-01-08 23:47:00,50.2,49.3,30.34,NNE,19,0.0,0.0,97,0.00,,,0.00,0.00,VWS V14.01,2013-01-09 04:47:00,
2013-01-08 23:48:00,50.2,49.3,30.34,NNE,19,0.0,0.0,97,0.00,,,0.00,0.00,VWS V14.01,2013-01-09 04:48:00,
2013-01-08 23:49:00,50.2,49.3,30.34,NNE,19,0.0,0.0,97,0.00,,,0.00,0.00,VWS V14.01,2013-01-09 04:49:00,
2013-01-08 23:50:00,50.2,49.3,30.34,NNE,19,0.0,0.0,97,0.00,,,0.00,0.00,VWS V14.01,2013-01-09 04:50:00,
2013-01-08 23:51:00,50.2,49.4,30.34,NNE,19,0.0,0.0,97,0.00,,,0.00,0.00,VWS V14.01,2013-01-09 04:51:00,
2013-01-08 23:52:00,50.2,49.4,30.34,NNE,19,0.0,0.0,97,0.00,,,0.00,0.00,VWS V14.01,2013-01-09 04:52:00,
2013-01-08 23:53:00,50.3,49.5,30.34,NNE,19,0.0,0.0,97,0.00,,,0.00,0.00,VWS V14.01,2013-01-09 04:53:00,
2013-01-08 23:54:00,50.3,49.5,30.34,NNE,19,0.0,0.0,97,0.00,,,0.00,0.00,VWS V14.01,2013-01-09 04:54:00,
2013-01-08 23:55:00,50.3,49.5,30.34,NNE,19,0.0,0.0,97,0.00,,,0.00,0.00,VWS V14.01,2013-01-09 04:55:00,
2013-01-08 23:56:00,50.5,49.6,30.33,NNE,19,0.0,0.0,97,0.00,,,0.00,0.00,VWS V14.01,2013-01-09 04:56:00,
2013-01-08 23:57:00,50.5,49.7,30.33,NNE,19,0.0,0.0,97,0.00,,,0.00,0.00,VWS V14.01,2013-01-09 04:57:00,
2013-01-08 23:58:00,50.5,49.7,30.33,NNE,19,0.0,0.0,97,0.00,,,0.00,0.00,VWS V14.01,2013-01-09 04:58:00,
2013-01-08 23:59:00,50.5,49.7,30.33,NNE,19,0.0,0.0,97,0.00,,,0.00,0.00,VWS V14.01,2013-01-09 04:59:00,